[[{"header":{"parameterUnit":"m.s-1","parameterCategory":1,"la1":31.0,"la2":29.5877,"lo1":-88.7671,"lo2":-86.6584,"dx":0.0162,"dy":0.0185,"nx":115,"ny":88,"refTime":"2022-11-20T06:00:00:Z","depth":0,"parameterNumber":2,"parameterNumberName":"U-component_of_WINDS"},"data":[0.0,0.0,0.0,0.0,0.0,0.0,0.0,0.0,0.0,0.0,0.0,0.0,0.0,0.0,0.0,0.0,0.0,0.0,0.0,0.0,0.0,0.0,0.0,0.0,0.0,0.0,0.0,0.0,0.0,0.0,0.0,0.0,0.0,0.0,0.0,0.0,0.0,0.0,0.0,0.0,0.0,0.0,0.0,0.0,0.0,0.0,0.0,0.0,0.0,0.0,0.0,0.0,0.0,0.0,0.0,0.0,0.0,0.0,0.0,0.0,0.0,0.0,0.0,0.0,0.0,0.0,0.0,0.0,0.0,0.0,0.0,0.0,0.0,0.0,0.0,0.0,0.0,0.0,0.0,0.0,0.0,0.0,0.0,0.0,0.0,0.0,0.0,0.0,0.0,0.0,0.0,0.0,0.0,0.0,0.0,0.0,0.0,0.0,0.0,0.0,0.0,0.0,0.0,0.0,0.0,0.0,0.0,0.0,0.0,0.0,0.0,0.0,0.0,0.0,0.0,0.0,0.0,0.0,0.0,0.0,0.0,0.0,0.0,0.0,0.0,0.0,0.0,0.0,0.0,0.0,0.0,0.0,0.0,0.0,0.0,0.0,0.0,0.0,0.0,0.0,0.0,0.0,0.0,0.0,0.0,0.0,0.0,0.0,0.0,0.0,0.0,0.0,0.0,0.0,0.0,0.0,0.0,0.0,0.0,0.0,0.0,0.0,0.0,0.0,0.0,0.0,0.0,0.0,0.0,0.0,0.0,0.0,0.0,0.0,0.0,0.0,0.0,0.0,0.0,0.0,0.0,0.0,0.0,0.0,0.0,0.0,0.0,0.0,0.0,0.0,0.0,0.0,0.0,0.0,0.0,0.0,0.0,0.0,0.0,0.0,0.0,0.0,0.0,0.0,0.0,0.0,0.0,0.0,0.0,0.0,0.0,0.0,0.0,0.0,0.0,0.0,0.0,0.0,0.0,0.0,0.0,0.0,0.0,0.0,0.0,0.0,0.0,0.0,0.0,0.0,0.0,0.0,0.0,0.0,0.0,0.0,0.0,0.0,0.0,0.0,0.0,0.0,0.0,0.0,0.0,0.0,0.0,0.0,0.0,0.0,0.0,0.0,0.0,0.0,0.0,0.0,0.0,0.0,0.0,0.0,0.0,0.0,0.0,0.0,0.0,0.0,0.0,0.0,0.0,0.0,0.0,0.0,0.0,0.0,0.0,0.0,0.0,0.0,0.0,0.0,0.0,0.0,0.0,0.0,0.0,0.0,0.0,0.0,0.0,0.0,0.0,0.0,0.0,0.0,0.0,0.0,0.0,0.0,0.0,0.0,0.0,0.0,0.0,0.0,0.0,0.0,0.0,0.0,0.0,0.0,0.0,0.0,0.0,0.0,0.0,0.0,0.0,0.0,0.0,0.0,0.0,0.0,0.0,0.0,0.0,0.0,0.0,0.0,0.0,0.0,0.0,0.0,0.0,0.0,0.0,0.0,0.0,0.0,0.0,0.0,0.0,0.0,0.0,0.0,0.0,0.0,0.0,0.0,0.0,0.0,0.0,0.0,0.0,0.0,0.0,0.0,0.0,0.0,0.0,0.0,0.0,0.0,0.0,0.0,0.0,0.0,0.0,0.0,0.0,0.0,0.0,0.0,0.0,0.0,0.0,0.0,0.0,0.0,0.0,0.0,0.0,0.0,0.0,0.0,0.0,0.0,0.0,0.0,0.0,0.0,0.0,0.0,0.0,0.0,0.0,0.0,0.0,0.0,0.0,0.0,0.0,0.0,0.0,0.0,0.0,0.0,0.0,0.0,0.0,0.0,0.0,0.0,0.0,0.0,0.0,0.0,0.0,0.0,0.0,0.0,0.0,0.0,0.0,0.0,0.0,0.0,0.0,0.0,0.0,0.0,0.0,0.0,0.0,0.0,0.0,0.0,0.0,0.0,0.0,0.0,0.0,0.0,0.0,0.0,0.0,0.0,0.0,0.0,0.0,0.0,0.0,0.0,0.0,0.0,0.0,0.0,0.0,0.0,0.0,0.0,0.0,0.0,0.0,0.0,0.0,0.0,0.0,0.0,0.0,0.0,0.0,0.0,0.0,0.0,0.0,0.0,0.0,0.0,0.0,0.0,0.0,0.0,0.0,0.0,0.0,0.0,0.0,0.0,0.0,0.0,0.0,0.0,0.0,0.0,0.0,0.0,0.0,0.0,0.0,0.0,0.0,0.0,0.0,0.0,0.0,0.0,0.0,0.0,0.0,0.0,0.0,0.0,0.0,0.0,0.0,0.0,0.0,0.0,0.0,0.0,0.0,0.0,0.0,0.0,0.0,0.0,0.0,0.0,0.0,0.0,0.0,0.0,0.0,0.0,0.0,0.0,0.0,0.0,0.0,0.0,0.0,0.0,0.0,0.0,0.0,0.0,0.0,0.0,0.0,0.0,0.0,0.0,0.0,0.0,0.0,0.0,0.0,0.0,0.0,0.0,0.0,0.0,0.0,0.0,0.0,0.0,0.0,0.0,0.0,0.0,0.0,0.0,0.0,0.0,0.0,0.0,0.0,0.0,0.0,0.0,0.0,0.0,0.0,0.0,0.0,0.0,0.0,0.0,0.0,0.0,0.0,0.0,0.0,0.0,0.0,0.0,0.0,0.0,0.0,0.0,0.0,0.0,0.0,0.0,0.0,0.0,0.0,0.0,0.0,0.0,0.0,0.0,0.0,0.0,0.0,0.0,0.0,0.0,0.0,0.0,0.0,0.0,0.0,0.0,0.0,0.0,0.0,0.0,0.0,0.0,0.0,0.0,0.0,0.0,0.0,0.0,0.0,0.0,0.0,0.0,0.0,0.0,0.0,0.0,0.0,0.0,0.0,0.0,0.0,0.0,0.0,0.0,0.0,0.0,0.0,0.0,0.0,0.0,0.0,0.0,0.0,0.0,0.0,0.0,0.0,0.0,0.0,0.0,0.0,0.0,0.0,0.0,0.0,0.0,0.0,0.0,0.0,0.0,0.0,0.0,0.0,0.0,0.0,0.0,0.0,0.0,0.0,0.0,0.0,0.0,0.0,0.0,0.0,0.0,0.0,0.0,0.0,0.0,0.0,0.0,0.0,0.0,0.0,0.0,0.0,0.0,0.0,0.0,0.0,0.0,0.0,0.0,0.0,0.0,0.0,0.0,0.0,0.0,0.0,0.0,0.0,0.0,0.0,0.0,0.0,0.0,0.0,0.0,0.0,0.0,0.0,0.0,0.0,0.0,0.0,0.0,0.0,0.0,0.0,0.0,0.0,0.0,0.0,0.0,0.0,0.0,0.0,0.0,0.0,0.0,0.0,0.0,0.0,0.0,0.0,0.0,0.0,0.0,0.0,0.0,0.0,0.0,0.0,0.0,0.0,0.0,0.0,0.0,0.0,0.0,0.0,0.0,0.0,0.0,0.0,0.0,0.0,0.0,0.0,0.0,0.0,0.0,0.0,0.0,0.0,0.0,0.0,0.0,0.0,0.0,0.0,0.0,0.0,0.0,0.0,0.0,0.0,0.0,0.0,0.0,0.0,0.0,0.0,0.0,0.0,0.0,0.0,0.0,0.0,0.0,0.0,0.0,0.0,0.0,0.0,0.0,0.0,0.0,0.0,0.0,0.0,0.0,0.0,0.0,0.0,0.0,0.0,0.0,0.0,0.0,0.0,0.0,0.0,0.0,0.0,0.0,0.0,0.0,0.0,0.0,0.0,0.0,0.0,0.0,0.0,0.0,0.0,0.0,0.0,0.0,0.0,0.0,0.0,0.0,0.0,0.0,0.0,0.0,0.0,0.0,0.0,0.0,0.0,0.0,0.0,0.0,0.0,0.0,0.0,0.0,0.0,0.0,0.0,0.0,0.0,0.0,0.0,0.0,0.0,0.0,0.0,0.0,0.0,0.0,0.0,0.0,0.0,0.0,0.0,0.0,0.0,0.0,0.0,0.0,0.0,0.0,0.0,0.0,0.0,0.0,0.0,0.0,0.0,0.0,0.0,0.0,0.0,0.0,0.0,0.0,0.0,0.0,0.0,0.0,0.0,0.0,0.0,0.0,0.0,0.0,0.0,0.0,0.0,0.0,0.0,0.0,0.0,0.0,0.0,0.0,0.0,0.0,0.0,0.0,0.0,0.0,0.0,0.0,0.0,0.0,0.0,0.0,0.0,0.0,0.0,0.0,0.0,0.0,0.0,0.0,0.0,0.0,0.0,0.0,0.0,0.0,0.0,0.0,0.0,0.0,0.0,0.0,3.5459,0.0,0.0,0.0,3.1944,0.0,0.0,0.0,0.0,0.0,0.0,0.0,0.0,0.0,0.0,0.0,0.0,0.0,0.0,0.0,0.0,0.0,0.0,0.0,0.0,0.0,0.0,0.0,0.0,0.0,0.0,0.0,0.0,0.0,0.0,0.0,0.0,0.0,0.0,0.0,0.0,0.0,0.0,0.0,0.0,0.0,0.0,0.0,0.0,0.0,0.0,0.0,0.0,0.0,0.0,0.0,0.0,0.0,0.0,0.0,0.0,0.0,0.0,0.0,0.0,0.0,0.0,0.0,0.0,0.0,0.0,0.0,0.0,0.0,0.0,0.0,0.0,0.0,0.0,0.0,0.0,0.0,0.0,0.0,0.0,0.0,0.0,0.0,0.0,0.0,0.0,0.0,0.0,0.0,0.0,0.0,0.0,0.0,0.0,0.0,0.0,0.0,0.0,0.0,0.0,0.0,0.0,0.0,0.0,0.0,0.0,0.0,0.0,0.0,0.0,3.5495,3.3917,3.6637,3.6053,3.1647,0.0,0.0,0.0,0.0,0.0,0.0,0.0,0.0,0.0,0.0,0.0,0.0,0.0,0.0,0.0,0.0,0.0,0.0,0.0,0.0,0.0,0.0,0.0,0.0,0.0,0.0,0.0,0.0,0.0,0.0,0.0,0.0,0.0,0.0,0.0,0.0,0.0,0.0,0.0,0.0,0.0,0.0,0.0,0.0,0.0,0.0,0.0,0.0,0.0,0.0,0.0,0.0,0.0,0.0,0.0,0.0,0.0,0.0,0.0,0.0,0.0,0.0,0.0,0.0,0.0,0.0,0.0,0.0,0.0,0.0,0.0,0.0,0.0,0.0,0.0,0.0,0.0,0.0,0.0,0.0,0.0,0.0,0.0,0.0,0.0,0.0,0.0,0.0,0.0,0.0,0.0,0.0,0.0,0.0,0.0,0.0,0.0,0.0,0.0,0.0,0.0,0.0,0.0,0.0,0.0,0.0,0.0,0.0,0.0,0.0,0.0,0.0,3.6923,3.6229,3.2161,0.0,0.0,0.0,0.0,0.0,0.0,0.0,0.0,0.0,0.0,0.0,0.0,0.0,0.0,0.0,0.0,0.0,0.0,0.0,0.0,0.0,0.0,0.0,0.0,0.0,0.0,0.0,0.0,0.0,0.0,0.0,0.0,0.0,0.0,0.0,0.0,0.0,0.0,0.0,0.0,0.0,0.0,0.0,0.0,0.0,0.0,0.0,0.0,0.0,0.0,0.0,0.0,0.0,0.0,0.0,0.0,0.0,0.0,0.0,0.0,0.0,0.0,0.0,0.0,0.0,0.0,0.0,0.0,0.0,0.0,0.0,0.0,0.0,0.0,0.0,0.0,0.0,0.0,0.0,0.0,0.0,0.0,0.0,0.0,0.0,0.0,0.0,0.0,0.0,0.0,0.0,0.0,0.0,0.0,0.0,0.0,0.0,0.0,0.0,0.0,0.0,0.0,0.0,0.0,0.0,0.0,0.0,0.0,0.0,0.0,3.5022,3.7088,3.6754,0.0,3.3693,0.0,0.0,0.0,0.0,0.0,0.0,0.0,0.0,0.0,0.0,0.0,0.0,0.0,0.0,0.0,0.0,0.0,0.0,0.0,0.0,0.0,0.0,0.0,0.0,0.0,0.0,0.0,0.0,0.0,0.0,0.0,0.0,0.0,0.0,0.0,0.0,0.0,0.0,0.0,0.0,0.0,0.0,0.0,0.0,0.0,0.0,0.0,0.0,0.0,0.0,0.0,0.0,0.0,0.0,0.0,0.0,0.0,0.0,0.0,0.0,0.0,0.0,0.0,0.0,0.0,0.0,0.0,0.0,0.0,0.0,0.0,0.0,0.0,0.0,0.0,0.0,0.0,0.0,0.0,0.0,0.0,0.0,0.0,0.0,0.0,0.0,0.0,0.0,0.0,0.0,0.0,0.0,0.0,0.0,0.0,0.0,0.0,0.0,0.0,0.0,0.0,0.0,0.0,0.0,0.0,0.0,0.0,0.0,0.0,0.0,3.6013,3.7452,3.6229,3.4754,0.0,0.0,0.0,0.0,0.0,0.0,0.0,0.0,0.0,0.0,0.0,0.0,0.0,0.0,0.0,0.0,0.0,0.0,0.0,0.0,0.0,0.0,0.0,0.0,0.0,0.0,0.0,0.0,0.0,0.0,0.0,0.0,0.0,0.0,0.0,0.0,0.0,0.0,0.0,0.0,0.0,0.0,0.0,0.0,0.0,0.0,0.0,0.0,0.0,0.0,0.0,0.0,0.0,0.0,0.0,0.0,0.0,0.0,0.0,0.0,0.0,0.0,0.0,0.0,0.0,0.0,0.0,0.0,0.0,0.0,0.0,0.0,0.0,0.0,0.0,0.0,0.0,0.0,0.0,0.0,0.0,0.0,0.0,0.0,0.0,0.0,0.0,0.0,0.0,0.0,0.0,0.0,0.0,0.0,0.0,0.0,0.0,0.0,0.0,0.0,0.0,0.0,0.0,0.0,0.0,0.0,0.0,0.0,0.0,0.0,3.6674,3.7445,3.8366,3.6883,3.5078,3.2993,0.0,0.0,0.0,0.0,0.0,0.0,0.0,0.0,0.0,0.0,0.0,0.0,0.0,0.0,0.0,0.0,0.0,0.0,0.0,0.0,0.0,0.0,0.0,0.0,0.0,0.0,0.0,0.0,0.0,0.0,0.0,0.0,0.0,0.0,0.0,0.0,0.0,0.0,0.0,0.0,0.0,0.0,0.0,0.0,0.0,0.0,0.0,0.0,0.0,0.0,0.0,0.0,0.0,0.0,0.0,0.0,0.0,0.0,0.0,0.0,0.0,0.0,0.0,0.0,0.0,0.0,0.0,0.0,0.0,0.0,0.0,0.0,0.0,0.0,0.0,0.0,0.0,0.0,0.0,0.0,0.0,0.0,0.0,0.0,0.0,0.0,0.0,0.0,0.0,0.0,0.0,0.0,0.0,0.0,0.0,0.0,0.0,0.0,0.0,0.0,0.0,0.0,0.0,0.0,0.0,0.0,0.0,0.0,4.1438,3.9672,3.9342,4.0838,3.9378,3.7033,0.0,0.0,0.0,0.0,0.0,0.0,0.0,0.0,0.0,0.0,0.0,0.0,0.0,0.0,0.0,0.0,0.0,0.0,0.0,0.0,0.0,0.0,0.0,0.0,0.0,0.0,0.0,0.0,0.0,0.0,0.0,0.0,0.0,0.0,0.0,0.0,0.0,0.0,0.0,0.0,0.0,0.0,0.0,0.0,0.0,0.0,0.0,0.0,0.0,0.0,0.0,0.0,0.0,0.0,0.0,0.0,0.0,0.0,0.0,0.0,0.0,0.0,0.0,0.0,0.0,0.0,0.0,0.0,0.0,0.0,0.0,0.0,0.0,0.0,0.0,0.0,0.0,0.0,0.0,0.0,0.0,0.0,0.0,0.0,0.0,0.0,0.0,0.0,0.0,0.0,0.0,0.0,0.0,0.0,0.0,0.0,0.0,0.0,0.0,0.0,0.0,0.0,0.0,0.0,0.0,0.0,0.0,0.0,0.0,3.682,3.9052,4.0997,4.247,4.008,3.7914,0.0,0.0,0.0,0.0,0.0,0.0,0.0,0.0,0.0,0.0,0.0,0.0,0.0,0.0,0.0,0.0,0.0,0.0,0.0,0.0,0.0,0.0,0.0,0.0,0.0,0.0,0.0,0.0,0.0,0.0,0.0,0.0,0.0,0.0,0.0,0.0,0.0,0.0,0.0,0.0,0.0,0.0,0.0,0.0,0.0,0.0,0.0,0.0,0.0,0.0,0.0,0.0,0.0,0.0,0.0,0.0,0.0,0.0,0.0,0.0,0.0,0.0,0.0,0.0,0.0,0.0,0.0,0.0,0.0,0.0,0.0,0.0,0.0,0.0,0.0,0.0,0.0,0.0,0.0,0.0,0.0,0.0,0.0,0.0,0.0,0.0,0.0,0.0,0.0,0.0,0.0,0.0,0.0,0.0,0.0,0.0,0.0,0.0,0.0,0.0,0.0,0.0,0.0,0.0,0.0,0.0,0.0,0.0,0.0,3.6597,4.1067,4.3599,4.3759,4.0744,3.7995,0.0,0.0,0.0,0.0,0.0,0.0,0.0,0.0,0.0,0.0,0.0,0.0,0.0,0.0,0.0,0.0,0.0,0.0,0.0,0.0,0.0,0.0,0.0,0.0,0.0,0.0,0.0,0.0,0.0,0.0,0.0,0.0,0.0,0.0,0.0,0.0,0.0,0.0,0.0,0.0,0.0,0.0,0.0,0.0,0.0,0.0,0.0,0.0,0.0,0.0,0.0,0.0,0.0,0.0,0.0,0.0,0.0,0.0,0.0,0.0,0.0,0.0,0.0,0.0,0.0,0.0,0.0,0.0,0.0,0.0,0.0,0.0,0.0,0.0,0.0,0.0,0.0,0.0,0.0,0.0,0.0,0.0,0.0,0.0,0.0,0.0,0.0,0.0,0.0,0.0,0.0,0.0,0.0,0.0,0.0,0.0,0.0,0.0,0.0,0.0,0.0,0.0,0.0,0.0,0.0,0.0,0.0,0.0,3.5852,4.1992,4.6021,4.6975,4.4769,4.1625,3.7301,0.0,0.0,0.0,0.0,0.0,0.0,0.0,0.0,0.0,0.0,0.0,0.0,0.0,0.0,0.0,0.0,0.0,0.0,0.0,0.0,0.0,0.0,0.0,0.0,0.0,0.0,0.0,0.0,0.0,0.0,0.0,0.0,0.0,0.0,0.0,0.0,0.0,0.0,0.0,0.0,0.0,0.0,0.0,0.0,0.0,0.0,0.0,0.0,0.0,0.0,0.0,0.0,0.0,0.0,0.0,0.0,0.0,0.0,0.0,0.0,0.0,0.0,0.0,0.0,0.0,0.0,0.0,0.0,0.0,0.0,0.0,0.0,0.0,0.0,0.0,0.0,0.0,0.0,0.0,0.0,0.0,0.0,0.0,0.0,0.0,0.0,0.0,0.0,0.0,0.0,0.0,0.0,0.0,0.0,0.0,0.0,0.0,0.0,0.0,0.0,0.0,0.0,0.0,0.0,0.0,0.0,0.0,0.0,0.0,4.0716,4.5104,4.7672,4.7875,4.2772,3.8945,0.0,0.0,0.0,0.0,0.0,0.0,0.0,0.0,0.0,0.0,0.0,0.0,0.0,0.0,0.0,0.0,0.0,0.0,0.0,0.0,0.0,0.0,0.0,0.0,0.0,0.0,0.0,0.0,0.0,0.0,0.0,0.0,0.0,0.0,0.0,0.0,0.0,0.0,0.0,0.0,0.0,0.0,0.0,0.0,0.0,0.0,0.0,0.0,0.0,0.0,0.0,0.0,0.0,0.0,0.0,0.0,0.0,0.0,0.0,0.0,0.0,0.0,0.0,0.0,0.0,0.0,0.0,0.0,0.0,0.0,0.0,0.0,0.0,0.0,0.0,0.0,0.0,0.0,0.0,0.0,0.0,0.0,0.0,0.0,0.0,0.0,0.0,0.0,0.0,0.0,0.0,0.0,0.0,0.0,0.0,0.0,0.0,0.0,0.0,0.0,0.0,0.0,0.0,0.0,0.0,0.0,0.0,0.0,0.0,4.3694,4.7347,4.9581,5.0041,4.3919,3.9933,3.842,0.0,0.0,0.0,0.0,0.0,0.0,0.0,0.0,0.0,0.0,0.0,0.0,0.0,0.0,0.0,0.0,0.0,0.0,0.0,0.0,0.0,0.0,0.0,0.0,0.0,0.0,0.0,0.0,0.0,0.0,0.0,0.0,0.0,0.0,0.0,0.0,0.0,0.0,0.0,0.0,0.0,0.0,0.0,0.0,0.0,0.0,0.0,0.0,0.0,0.0,0.0,0.0,0.0,0.0,0.0,0.0,0.0,0.0,0.0,0.0,0.0,0.0,0.0,0.0,0.0,0.0,0.0,0.0,0.0,0.0,0.0,0.0,0.0,0.0,0.0,0.0,0.0,0.0,0.0,0.0,0.0,0.0,0.0,0.0,0.0,0.0,0.0,0.0,0.0,0.0,0.0,0.0,0.0,0.0,0.0,0.0,0.0,0.0,0.0,0.0,0.0,0.0,0.0,0.0,0.0,0.0,0.0,0.0,4.9569,5.194,5.2443,5.1012,4.5061,4.0398,0.0,0.0,0.0,0.0,0.0,0.0,0.0,0.0,0.0,0.0,0.0,0.0,0.0,0.0,0.0,0.0,0.0,0.0,0.0,0.0,0.0,0.0,0.0,0.0,0.0,0.0,0.0,0.0,0.0,0.0,0.0,0.0,0.0,0.0,0.0,0.0,0.0,0.0,0.0,0.0,0.0,0.0,0.0,0.0,0.0,0.0,0.0,0.0,0.0,0.0,0.0,0.0,0.0,0.0,0.0,0.0,0.0,0.0,0.0,0.0,0.0,0.0,0.0,0.0,0.0,0.0,0.0,0.0,0.0,0.0,0.0,0.0,0.0,0.0,0.0,0.0,0.0,0.0,0.0,0.0,0.0,0.0,0.0,0.0,0.0,0.0,0.0,0.0,0.0,0.0,0.0,0.0,0.0,0.0,0.0,0.0,0.0,0.0,0.0,0.0,0.0,0.0,0.0,0.0,0.0,0.0,0.0,0.0,0.0,4.9417,5.1935,5.3287,5.3287,4.6419,4.1606,0.0,0.0,0.0,0.0,0.0,0.0,0.0,0.0,0.0,0.0,0.0,0.0,0.0,0.0,0.0,0.0,0.0,0.0,0.0,0.0,0.0,0.0,0.0,0.0,0.0,0.0,0.0,0.0,0.0,0.0,0.0,0.0,0.0,0.0,0.0,0.0,0.0,0.0,0.0,0.0,0.0,0.0,0.0,0.0,0.0,0.0,0.0,0.0,0.0,0.0,0.0,0.0,0.0,0.0,0.0,0.0,0.0,0.0,0.0,0.0,0.0,0.0,0.0,0.0,0.0,0.0,0.0,0.0,0.0,0.0,0.0,0.0,0.0,0.0,0.0,0.0,0.0,0.0,0.0,0.0,0.0,0.0,0.0,0.0,0.0,0.0,0.0,0.0,0.0,0.0,0.0,0.0,0.0,0.0,0.0,0.0,0.0,0.0,0.0,0.0,0.0,0.0,0.0,0.0,0.0,0.0,0.0,0.0,4.7131,5.1468,5.2627,5.3355,5.3703,4.7954,4.3466,0.0,0.0,0.0,0.0,0.0,0.0,0.0,0.0,0.0,0.0,0.0,0.0,0.0,0.0,0.0,0.0,0.0,0.0,0.0,0.0,0.0,0.0,0.0,0.0,0.0,0.0,0.0,0.0,0.0,0.0,0.0,0.0,0.0,0.0,0.0,0.0,0.0,0.0,0.0,0.0,0.0,0.0,0.0,0.0,0.0,0.0,0.0,0.0,0.0,0.0,0.0,0.0,0.0,0.0,0.0,0.0,0.0,0.0,0.0,0.0,0.0,0.0,0.0,0.0,0.0,0.0,0.0,0.0,0.0,0.0,0.0,0.0,0.0,0.0,0.0,0.0,0.0,0.0,0.0,0.0,0.0,0.0,0.0,0.0,0.0,0.0,0.0,0.0,0.0,0.0,0.0,0.0,0.0,0.0,0.0,0.0,0.0,0.0,0.0,0.0,0.0,0.0,0.0,0.0,0.0,0.0,0.0,0.0,4.9434,5.4357,5.3633,5.3033,5.2694,4.9505,4.5624,0.0,0.0,0.0,0.0,0.0,0.0,0.0,0.0,0.0,0.0,0.0,0.0,0.0,0.0,0.0,0.0,0.0,0.0,0.0,0.0,0.0,0.0,0.0,0.0,0.0,0.0,0.0,0.0,0.0,0.0,0.0,0.0,0.0,0.0,0.0,0.0,0.0,0.0,0.0,0.0,0.0,0.0,0.0,0.0,0.0,0.0,0.0,0.0,0.0,0.0,0.0,0.0,0.0,0.0,0.0,0.0,0.0,0.0,0.0,0.0,0.0,0.0,0.0,0.0,0.0,0.0,0.0,0.0,0.0,0.0,0.0,0.0,0.0,0.0,0.0,0.0,0.0,0.0,0.0,0.0,0.0,0.0,0.0,0.0,0.0,0.0,0.0,0.0,0.0,0.0,0.0,0.0,0.0,0.0,0.0,0.0,0.0,0.0,0.0,0.0,0.0,0.0,0.0,0.0,0.0,0.0,0.0,0.0,4.915,5.5097,5.3743,5.2756,5.2482,5.0437,4.6681,0.0,0.0,0.0,0.0,0.0,0.0,0.0,0.0,0.0,0.0,0.0,0.0,0.0,0.0,0.0,0.0,0.0,0.0,0.0,0.0,0.0,0.0,0.0,0.0,0.0,0.0,0.0,0.0,0.0,0.0,0.0,0.0,0.0,0.0,0.0,0.0,0.0,0.0,0.0,0.0,0.0,0.0,0.0,0.0,0.0,0.0,0.0,0.0,3.7861,0.0,0.0,0.0,0.0,0.0,0.0,0.0,0.0,0.0,0.0,0.0,0.0,0.0,0.0,0.0,0.0,0.0,0.0,0.0,0.0,0.0,0.0,0.0,0.0,0.0,0.0,0.0,0.0,0.0,0.0,0.0,0.0,0.0,0.0,0.0,0.0,0.0,0.0,0.0,0.0,0.0,0.0,0.0,0.0,0.0,0.0,0.0,0.0,0.0,0.0,0.0,0.0,0.0,0.0,0.0,0.0,0.0,0.0,0.0,5.1174,5.5941,5.4352,5.3416,5.347,5.2498,4.8795,0.0,0.0,0.0,0.0,0.0,0.0,0.0,0.0,0.0,0.0,0.0,0.0,0.0,0.0,0.0,0.0,0.0,0.0,0.0,0.0,0.0,0.0,0.0,0.0,0.0,0.0,0.0,0.0,0.0,0.0,0.0,0.0,0.0,0.0,0.0,0.0,0.0,0.0,0.0,0.0,0.0,0.0,0.0,0.0,0.0,0.0,0.0,0.0,0.0,0.0,0.0,0.0,0.0,0.0,0.0,0.0,0.0,0.0,0.0,0.0,0.0,0.0,0.0,0.0,0.0,0.0,0.0,0.0,0.0,0.0,0.0,0.0,0.0,0.0,0.0,0.0,0.0,0.0,0.0,0.0,0.0,0.0,0.0,0.0,0.0,0.0,0.0,0.0,0.0,0.0,0.0,0.0,0.0,0.0,0.0,0.0,0.0,0.0,0.0,0.0,0.0,0.0,0.0,0.0,0.0,0.0,0.0,4.9412,5.3172,5.6492,5.5037,5.4293,5.4622,5.4486,5.0873,4.3481,0.0,0.0,0.0,0.0,0.0,0.0,0.0,0.0,0.0,0.0,0.0,0.0,0.0,0.0,0.0,0.0,0.0,0.0,0.0,0.0,0.0,0.0,0.0,0.0,0.0,0.0,0.0,0.0,0.0,0.0,0.0,0.0,0.0,0.0,0.0,0.0,0.0,0.0,3.4669,3.7528,0.0,0.0,0.0,0.0,0.0,0.0,0.0,0.0,3.9768,0.0,0.0,0.0,0.0,0.0,0.0,0.0,0.0,0.0,0.0,0.0,0.0,0.0,0.0,0.0,0.0,0.0,0.0,0.0,0.0,0.0,0.0,0.0,0.0,0.0,0.0,0.0,0.0,0.0,0.0,0.0,0.0,0.0,0.0,0.0,0.0,0.0,0.0,0.0,0.0,0.0,0.0,0.0,0.0,0.0,0.0,0.0,0.0,0.0,0.0,0.0,0.0,0.0,0.0,0.0,0.0,4.8646,4.8861,5.136,5.628,5.5292,5.4453,5.408,5.4207,5.1173,4.4796,0.0,0.0,0.0,0.0,0.0,0.0,0.0,0.0,0.0,0.0,0.0,0.0,0.0,0.0,0.0,0.0,0.0,0.0,0.0,0.0,0.0,0.0,0.0,0.0,0.0,0.0,0.0,0.0,0.0,0.0,0.0,0.0,0.0,0.0,0.0,0.0,0.0,0.0,0.0,4.1379,4.1988,0.0,0.0,0.0,0.0,0.0,0.0,0.0,0.0,3.9802,0.0,0.0,0.0,0.0,0.0,0.0,0.0,0.0,0.0,0.0,0.0,0.0,0.0,0.0,0.0,0.0,0.0,0.0,0.0,0.0,0.0,0.0,0.0,0.0,0.0,0.0,0.0,0.0,0.0,0.0,0.0,0.0,0.0,0.0,0.0,0.0,0.0,0.0,0.0,0.0,0.0,0.0,0.0,0.0,0.0,0.0,0.0,0.0,0.0,0.0,0.0,0.0,0.0,0.0,0.0,4.871,5.1705,5.4585,5.7455,5.6035,5.5194,5.5114,5.4725,5.1623,0.0,0.0,0.0,0.0,0.0,0.0,0.0,0.0,0.0,0.0,0.0,0.0,0.0,0.0,0.0,0.0,0.0,0.0,0.0,0.0,0.0,0.0,0.0,0.0,0.0,0.0,0.0,0.0,0.0,0.0,0.0,0.0,0.0,0.0,0.0,0.0,0.0,0.0,0.0,0.0,4.2625,4.3294,4.4437,0.0,0.0,0.0,0.0,0.0,0.0,4.1075,4.0493,0.0,0.0,0.0,0.0,0.0,0.0,0.0,0.0,0.0,0.0,0.0,0.0,0.0,0.0,0.0,0.0,0.0,0.0,0.0,0.0,0.0,0.0,0.0,0.0,0.0,0.0,0.0,0.0,0.0,0.0,0.0,0.0,0.0,0.0,0.0,0.0,0.0,0.0,0.0,0.0,0.0,0.0,0.0,0.0,0.0,0.0,0.0,0.0,0.0,0.0,0.0,0.0,0.0,0.0,0.0,4.8539,5.3959,5.7461,5.8709,5.712,5.6331,5.6588,5.5568,5.2101,0.0,0.0,0.0,0.0,0.0,0.0,0.0,0.0,0.0,0.0,0.0,0.0,0.0,0.0,0.0,0.0,0.0,0.0,0.0,0.0,0.0,0.0,0.0,0.0,0.0,0.0,0.0,0.0,0.0,0.0,0.0,0.0,0.0,0.0,0.0,0.0,0.0,0.0,0.0,0.0,0.0,4.4411,4.5331,4.4539,0.0,0.0,0.0,0.0,4.3376,4.2922,0.0,0.0,0.0,0.0,0.0,0.0,0.0,0.0,0.0,0.0,0.0,0.0,0.0,0.0,0.0,0.0,0.0,0.0,0.0,0.0,0.0,0.0,0.0,0.0,0.0,0.0,0.0,0.0,0.0,0.0,0.0,0.0,0.0,0.0,0.0,0.0,0.0,0.0,0.0,0.0,0.0,0.0,0.0,0.0,0.0,0.0,0.0,0.0,0.0,0.0,0.0,0.0,0.0,0.0,0.0,0.0,4.8847,5.2265,5.5627,5.8851,5.8535,5.8059,5.763,5.6523,5.2651,0.0,0.0,0.0,0.0,0.0,0.0,0.0,0.0,0.0,0.0,0.0,0.0,0.0,0.0,0.0,0.0,0.0,0.0,0.0,0.0,0.0,0.0,0.0,0.0,0.0,0.0,0.0,0.0,0.0,0.0,0.0,0.0,0.0,0.0,0.0,0.0,0.0,0.0,0.0,0.0,0.0,4.5974,4.4905,4.5135,4.5358,0.0,0.0,4.5763,4.7041,4.7169,0.0,0.0,0.0,0.0,0.0,0.0,0.0,0.0,0.0,0.0,0.0,0.0,0.0,0.0,0.0,0.0,0.0,0.0,0.0,0.0,0.0,0.0,0.0,0.0,0.0,0.0,0.0,0.0,0.0,0.0,0.0,0.0,0.0,0.0,0.0,0.0,0.0,0.0,0.0,0.0,0.0,0.0,0.0,0.0,0.0,0.0,0.0,0.0,0.0,0.0,0.0,0.0,0.0,0.0,0.0,4.5275,4.9149,5.3932,5.7297,5.9108,5.8466,5.7915,5.7526,5.7012,5.3214,0.0,0.0,0.0,0.0,0.0,0.0,0.0,0.0,0.0,0.0,0.0,0.0,0.0,0.0,0.0,0.0,0.0,0.0,0.0,0.0,0.0,0.0,0.0,0.0,0.0,0.0,0.0,0.0,0.0,0.0,0.0,0.0,0.0,0.0,0.0,0.0,0.0,0.0,0.0,0.0,0.0,0.0,4.824,4.7902,0.0,0.0,0.0,4.8131,4.7921,0.0,0.0,0.0,0.0,0.0,0.0,0.0,0.0,0.0,0.0,0.0,0.0,0.0,0.0,0.0,0.0,0.0,0.0,0.0,0.0,0.0,0.0,0.0,0.0,0.0,0.0,0.0,0.0,0.0,0.0,0.0,0.0,0.0,0.0,0.0,0.0,0.0,0.0,0.0,0.0,0.0,0.0,0.0,0.0,0.0,0.0,0.0,0.0,0.0,0.0,0.0,0.0,0.0,0.0,0.0,0.0,0.0,4.9446,5.5515,5.8929,5.9453,5.864,5.8085,5.7897,5.7618,0.0,0.0,0.0,0.0,0.0,0.0,0.0,0.0,0.0,0.0,0.0,0.0,0.0,0.0,0.0,0.0,0.0,0.0,0.0,0.0,0.0,0.0,0.0,0.0,0.0,0.0,0.0,2.8459,0.0,0.0,0.0,0.0,0.0,0.0,0.0,0.0,0.0,0.0,0.0,0.0,0.0,0.0,4.8563,5.0381,5.0025,4.9687,0.0,0.0,5.0127,4.9416,4.9763,4.9627,0.0,0.0,0.0,0.0,0.0,0.0,0.0,0.0,0.0,0.0,0.0,0.0,0.0,0.0,0.0,0.0,0.0,0.0,0.0,0.0,0.0,0.0,0.0,0.0,0.0,0.0,0.0,0.0,0.0,0.0,0.0,0.0,0.0,0.0,0.0,0.0,0.0,0.0,0.0,0.0,0.0,0.0,0.0,0.0,0.0,0.0,0.0,0.0,0.0,0.0,0.0,0.0,0.0,0.0,0.0,4.9915,5.5816,5.926,5.999,5.9676,5.9453,5.9428,5.8394,5.3958,0.0,0.0,0.0,0.0,0.0,0.0,0.0,0.0,0.0,0.0,0.0,0.0,0.0,0.0,0.0,0.0,0.0,0.0,0.0,0.0,0.0,0.0,0.0,0.0,0.0,0.0,0.0,0.0,0.0,0.0,0.0,0.0,0.0,0.0,0.0,0.0,0.0,0.0,0.0,0.0,0.0,4.8225,4.9052,5.0262,5.1573,0.0,5.2021,5.1573,5.2909,5.3137,5.2664,5.1133,0.0,0.0,0.0,0.0,0.0,0.0,0.0,0.0,0.0,0.0,0.0,0.0,0.0,0.0,0.0,0.0,0.0,0.0,0.0,0.0,0.0,0.0,0.0,0.0,0.0,0.0,0.0,0.0,0.0,0.0,0.0,0.0,0.0,0.0,0.0,0.0,0.0,0.0,0.0,0.0,0.0,0.0,0.0,0.0,0.0,0.0,0.0,0.0,0.0,0.0,0.0,0.0,0.0,4.7178,4.9987,5.6606,6.0279,6.0816,6.0713,6.0644,6.0644,5.9668,5.6322,0.0,0.0,0.0,0.0,0.0,0.0,0.0,0.0,0.0,0.0,0.0,0.0,0.0,0.0,0.0,0.0,0.0,0.0,0.0,0.0,0.0,0.0,0.0,0.0,0.0,0.0,0.0,0.0,3.768,3.8571,3.8402,0.0,0.0,0.0,0.0,0.0,0.0,0.0,0.0,0.0,0.0,5.104,5.2266,5.2942,0.0,0.0,5.4157,5.3807,5.4387,5.411,5.3597,5.3017,5.2555,0.0,0.0,0.0,0.0,0.0,0.0,0.0,0.0,0.0,0.0,0.0,0.0,0.0,0.0,0.0,0.0,0.0,0.0,0.0,0.0,0.0,0.0,0.0,0.0,0.0,0.0,0.0,0.0,0.0,0.0,0.0,0.0,0.0,0.0,0.0,0.0,0.0,0.0,0.0,0.0,0.0,0.0,0.0,0.0,0.0,0.0,0.0,0.0,0.0,0.0,0.0,0.0,4.7958,5.0314,5.7293,6.1016,6.1289,6.1323,6.1253,6.1191,6.0584,5.7947,0.0,0.0,0.0,0.0,0.0,0.0,0.0,0.0,0.0,0.0,0.0,0.0,0.0,0.0,0.0,0.0,0.0,0.0,0.0,0.0,0.0,0.0,0.0,0.0,0.0,0.0,0.0,0.0,3.9777,4.0358,4.0716,0.0,0.0,0.0,0.0,0.0,0.0,0.0,0.0,0.0,0.0,5.345,5.4744,5.5116,5.5446,5.5969,5.579,5.5629,5.5586,5.4883,5.4258,5.4048,0.0,0.0,0.0,0.0,0.0,0.0,0.0,0.0,0.0,0.0,0.0,0.0,0.0,0.0,0.0,0.0,0.0,0.0,0.0,0.0,0.0,0.0,0.0,0.0,0.0,0.0,0.0,0.0,0.0,0.0,3.2543,0.0,0.0,0.0,0.0,0.0,0.0,0.0,0.0,0.0,0.0,0.0,0.0,0.0,0.0,0.0,0.0,0.0,0.0,0.0,0.0,0.0,0.0,4.8776,5.1141,5.7805,6.1323,6.1358,6.1323,6.1251,6.1053,6.1,5.8409,5.2976,0.0,0.0,0.0,0.0,0.0,0.0,0.0,0.0,0.0,0.0,0.0,0.0,0.0,0.0,0.0,0.0,0.0,0.0,0.0,0.0,0.0,0.0,0.0,0.0,0.0,0.0,3.7094,3.7624,3.9269,0.0,0.0,0.0,0.0,0.0,0.0,0.0,0.0,0.0,0.0,5.3551,5.4846,5.5589,5.6308,5.6747,5.6797,5.6788,5.6788,5.6761,5.5799,5.4836,0.0,0.0,0.0,0.0,0.0,0.0,0.0,0.0,0.0,0.0,0.0,0.0,0.0,0.0,0.0,0.0,0.0,0.0,0.0,0.0,0.0,0.0,0.0,0.0,0.0,0.0,0.0,3.63,3.4689,0.0,0.0,0.0,0.0,0.0,0.0,0.0,0.0,0.0,0.0,0.0,5.2886,5.3336,0.0,0.0,0.0,0.0,0.0,0.0,0.0,0.0,0.0,0.0,0.0,0.0,4.9058,5.1988,5.8497,6.2158,6.263,6.2476,6.2383,6.2308,6.1708,5.885,5.3513,0.0,0.0,0.0,0.0,0.0,0.0,0.0,0.0,0.0,0.0,0.0,0.0,0.0,0.0,0.0,0.0,0.0,0.0,0.0,0.0,0.0,0.0,0.0,0.0,0.0,4.117,0.0,0.0,0.0,0.0,0.0,0.0,0.0,0.0,0.0,0.0,0.0,5.2198,5.3661,5.4693,5.5678,5.6621,5.6997,5.7364,0.0,0.0,0.0,0.0,0.0,0.0,0.0,0.0,0.0,0.0,0.0,0.0,0.0,0.0,4.9018,4.7799,4.7197,4.6994,4.7405,0.0,0.0,0.0,0.0,0.0,0.0,0.0,0.0,0.0,0.0,0.0,0.0,0.0,0.0,4.0821,0.0,3.9028,0.0,0.0,0.0,0.0,0.0,0.0,0.0,0.0,5.1606,5.4456,5.7091,5.7419,5.7662,0.0,5.7376,5.4298,0.0,0.0,0.0,0.0,0.0,0.0,0.0,0.0,5.1079,5.4169,5.9611,6.2719,6.3155,6.3076,6.2971,6.2895,6.1988,5.9843,5.6389,5.3754,5.1275,0.0,0.0,0.0,0.0,0.0,0.0,0.0,0.0,0.0,0.0,0.0,0.0,0.0,0.0,0.0,0.0,0.0,0.0,0.0,0.0,0.0,0.0,0.0,4.4726,0.0,0.0,0.0,0.0,0.0,0.0,0.0,0.0,0.0,4.995,5.2505,5.4731,5.564,5.6336,5.7072,5.795,0.0,0.0,0.0,0.0,0.0,0.0,0.0,5.6666,5.6695,5.5654,5.4878,5.5008,5.4399,5.3902,5.3889,0.0,0.0,5.1736,5.1046,5.085,5.1266,5.1618,5.1926,5.2098,5.2493,5.2774,0.0,0.0,0.0,0.0,0.0,0.0,0.0,0.0,4.7733,4.713,0.0,4.4078,0.0,0.0,0.0,0.0,4.301,4.7301,0.0,0.0,5.6641,5.9047,6.1091,6.0461,6.0565,6.1289,6.1245,6.0356,5.8539,5.4547,0.0,0.0,0.0,0.0,0.0,0.0,5.4653,5.7501,6.1101,6.2966,6.3,6.299,6.2876,6.2673,6.1811,6.1298,6.1163,5.7146,5.4059,5.2334,4.4811,0.0,0.0,0.0,0.0,0.0,0.0,0.0,0.0,0.0,0.0,0.0,0.0,0.0,0.0,0.0,0.0,0.0,0.0,0.0,0.0,4.6508,0.0,0.0,0.0,0.0,0.0,0.0,0.0,0.0,0.0,0.0,5.3872,5.5143,5.6664,5.7802,0.0,0.0,0.0,0.0,5.9865,5.9837,5.9837,5.9754,5.9516,5.8508,5.7494,5.6817,0.0,0.0,5.6057,5.5517,5.516,5.5189,5.5143,5.4803,5.3492,5.2744,5.2462,5.2865,5.3122,5.3398,5.3857,5.4489,5.5075,5.2376,0.0,0.0,0.0,0.0,4.8333,4.8706,4.978,5.0028,4.9192,4.7675,4.7576,0.0,0.0,0.0,0.0,0.0,0.0,5.2297,5.5237,5.5969,5.8038,6.1245,6.0415,6.0733,6.2108,6.1826,6.1759,6.1911,6.0585,5.6413,4.9737,0.0,0.0,0.0,0.0,5.6021,5.7525,6.0957,6.278,6.278,6.2644,6.2537,6.2479,6.2217,6.2086,6.2076,6.0351,5.7679,5.4059,5.0642,0.0,0.0,0.0,0.0,0.0,0.0,0.0,0.0,0.0,0.0,0.0,0.0,0.0,0.0,0.0,0.0,0.0,0.0,0.0,4.7665,4.9401,4.9763,0.0,0.0,0.0,0.0,0.0,0.0,0.0,0.0,0.0,5.6999,5.8136,5.9094,0.0,0.0,5.9415,5.9734,5.9602,5.9366,5.9011,5.8986,0.0,5.8094,5.734,5.6829,5.6964,5.652,5.5999,5.5527,5.531,5.5207,5.521,5.521,5.5059,5.4713,5.4473,5.4391,5.4502,5.462,5.466,5.4833,5.54,5.5923,5.6904,5.3432,5.1766,5.1569,5.2306,5.1705,5.2351,5.3771,5.4261,5.3853,5.2805,5.2666,5.1532,4.9743,4.9937,0.0,0.0,0.0,5.5215,5.823,5.823,5.958,6.1847,6.1483,6.1766,6.2646,6.2395,6.254,6.3091,6.3019,6.0198,5.481,0.0,0.0,5.3035,5.5911,5.8083,5.9445,6.1499,6.2567,6.2567,6.2449,6.2424,6.2424,6.2424,6.2424,6.2391,6.1985,6.0486,5.7789,5.5108,5.242,0.0,0.0,0.0,0.0,0.0,0.0,0.0,0.0,0.0,0.0,0.0,4.0428,4.1298,0.0,0.0,0.0,4.607,4.8005,5.1288,5.2304,0.0,0.0,0.0,0.0,0.0,0.0,0.0,5.7349,5.7764,5.8108,5.8721,5.9763,6.0354,6.0042,5.9761,5.9678,5.9897,0.0,5.9166,5.8807,5.8598,5.8246,5.7688,5.7304,5.7163,5.7371,5.6632,5.6063,5.5987,5.597,5.594,5.597,5.597,5.5927,5.597,5.5957,5.588,5.5641,5.5581,5.5671,5.591,5.6256,5.6581,6.0646,6.0351,5.6741,5.5608,5.6139,5.5701,5.6722,5.8704,5.936,5.981,5.9852,5.8461,5.7174,5.5973,5.3732,0.0,5.7072,5.7551,5.9338,6.2263,6.2229,6.247,6.2985,6.3121,6.3111,6.3,6.2981,6.2866,6.2702,6.2866,6.2131,6.0587,6.0059,5.9793,5.9666,5.9549,6.0587,6.262,6.2489,6.2424,6.2424,6.2424,6.2424,6.2424,6.2424,6.2424,6.2424,6.2391,6.2357,6.2178,5.8414,5.5673,5.4356,0.0,0.0,0.0,0.0,0.0,0.0,0.0,0.0,0.0,0.0,0.0,0.0,0.0,0.0,0.0,5.3161,0.0,5.5383,5.4892,0.0,0.0,0.0,5.4816,5.5709,5.6336,5.6902,5.7339,0.0,0.0,5.9447,6.027,6.0623,5.9975,5.9814,5.9858,5.9957,5.9659,5.9279,5.8956,5.8505,5.8133,5.7788,5.7821,5.7832,5.7704,5.6981,5.653,5.6898,5.7034,5.7077,5.7004,5.7094,5.7064,5.7094,5.7004,5.6958,5.6551,5.6342,5.6432,5.6898,5.7154,5.7334,6.0246,6.0163,5.9234,5.9111,5.9496,5.9261,5.9532,6.018,6.0342,6.0481,6.0483,6.0116,6.01,6.0298,5.9706,6.0257,6.167,6.1648,6.2137,6.2975,6.2469,6.2504,6.2975,6.2423,6.2457,6.2956,6.2693,6.2596,6.2673,6.2586,6.2339,6.1951,6.1787,6.1228,6.0288,6.1181,6.1941,6.2459,6.241,6.2424,6.2424,6.2424,6.2424,6.2424,6.2424,6.2424,6.2424,6.2424,6.2154,6.1569,6.1061,6.0271,5.8997,5.3053,0.0,0.0,0.0,0.0,0.0,0.0,0.0,0.0,0.0,4.8343,4.8017,0.0,5.1446,0.0,5.5671,5.6293,5.5557,5.5566,0.0,0.0,5.5869,5.607,5.815,5.8013,5.8335,5.9907,5.9876,5.9837,6.0094,6.004,5.9881,5.9709,6.0286,6.0571,6.0035,5.9989,5.9625,5.8713,5.8363,5.8052,5.7469,5.7328,5.7368,5.7286,5.7066,5.6958,5.7094,5.7094,5.7094,5.7094,5.7094,5.7094,5.7184,5.7094,5.7513,5.8112,5.7616,5.6928,5.7077,5.7902,5.862,6.1129,6.1139,6.1129,6.0847,6.0424,6.0321,6.0331,6.0467,6.0808,6.1024,6.1118,6.1552,6.1919,6.2199,6.2199,6.2504,6.3,6.2828,6.2837,6.3019,6.2609,6.2548,6.2707,6.2366,6.2366,6.2731,6.2508,6.2643,6.3036,6.2938,6.3067,6.3372,6.3362,6.3005,6.2339,6.2691,6.2878,6.2878,6.2888,6.2719,6.2424,6.2424,6.2255,6.1941,6.2221,6.2255,6.1907,6.2221,6.2076,6.1366,6.1366,6.106,6.0288,5.6497,5.4747,0.0,0.0,0.0,0.0,0.0,0.0,0.0,0.0,0.0,0.0,0.0,5.3607,5.4714,5.6097,5.6776,5.6391,5.6651,5.7126,5.7859,5.7577,5.7844,5.9058,5.8756,5.8993,6.0239,5.9738,5.946,5.9884,5.9702,5.9459,5.9414,6.0111,6.0375,5.972,5.9644,5.9401,5.8618,5.8265,5.8004,5.7575,5.7304,5.7304,5.7842,5.7752,5.7723,5.8321,5.8454,5.8514,5.88,5.889,5.889,5.889,5.8876,5.9159,5.9594,5.9415,5.8949,5.889,5.9488,5.9983,6.2424,6.2424,6.2424,6.1603,6.0385,6.0385,6.0182,5.9844,6.0564,6.1065,6.1459,6.2481,6.2828,6.2678,6.2678,6.2654,6.2673,6.2489,6.2532,6.2673,6.2683,6.2586,6.241,6.2688,6.2756,6.2526,6.2637,6.299,6.3646,6.3646,6.3994,6.458,6.4613,6.4613,6.458,6.4062,6.3724,6.3646,6.3555,6.3183,6.256,6.2516,6.2245,6.1637,6.2212,6.2245,6.1627,6.211,6.2091,6.139,6.068,6.0163,5.9859,5.8975,5.7654,0.0,5.4816,0.0,0.0,0.0,0.0,0.0,0.0,0.0,0.0,5.6346,5.6474,5.4895,5.5719,5.6688,5.741,5.7759,5.8221,5.8957,5.9402,5.9501,5.9138,5.9113,5.9202,5.956,5.918,5.903,5.9373,5.9376,5.9328,5.9358,5.9771,6.001,5.9515,5.9473,5.9367,5.8935,5.8562,5.8618,5.8564,5.8068,5.8155,5.9069,5.8966,5.8906,5.998,6.0146,6.0356,6.0864,6.091,6.097,6.109,6.103,6.109,6.1283,6.1283,6.118,6.097,6.103,6.1224,6.2424,6.2424,6.2424,6.2221,6.1951,6.1951,6.0564,5.833,5.8466,5.9229,6.0485,6.1879,6.2489,6.2449,6.2449,6.2528,6.2698,6.2479,6.2498,6.2683,6.2683,6.261,6.2478,6.3207,6.3493,6.3328,6.3893,6.4241,6.44,6.441,6.4468,6.4613,6.4613,6.4613,6.4613,0.0,0.0,0.0,6.3825,6.3409,6.3284,6.3284,6.3217,6.3115,6.3217,0.0,6.3071,6.2651,6.2156,6.1649,6.1485,0.0,0.0,0.0,0.0,0.0,0.0,0.0,0.0,0.0,0.0,0.0,5.3784,5.4035,5.4263,5.654,5.7136,5.5206,5.67,5.7889,5.8029,5.811,5.8433,5.9086,5.9263,5.9371,5.9613,5.9628,5.9615,5.9456,5.9334,5.9312,5.9395,5.9338,5.9509,5.9914,6.0041,6.0269,6.0648,6.0556,6.0337,5.9968,6.0076,6.045,6.0549,6.0342,6.0176,6.0671,6.0627,6.0581,6.0821,6.091,6.091,6.115,6.109,6.115,6.115,6.109,6.1583,6.251,6.2704,6.2405,6.1359,6.1539,6.1912,6.2424,6.2424,6.2424,6.1985,0.0,6.1274,5.9988,5.7992,5.949,6.053,6.1274,6.2052,6.2424,6.2357,6.1603,6.1332,6.1418,6.0931,6.1187,6.2019,6.2368,6.2885,6.3497,6.398,6.4139,6.4062,6.441,6.4783,6.5121,6.5121,6.5324,6.5686,6.5686,6.5686,6.5686,6.6068,6.5865,6.5165,6.4783,6.441,6.4062,6.4028,6.3859,6.3555,6.3859,0.0,0.0,0.0,0.0,0.0,0.0,0.0,0.0,0.0,0.0,5.6458,5.5308,5.4475,5.414,5.4211,5.462,5.5469,5.5848,5.5934,5.5751,5.7043,5.7557,5.6821,5.7543,5.8227,5.8766,5.8864,5.8978,5.9323,5.945,5.9492,5.9454,5.9351,5.9402,5.9733,5.9596,5.9624,6.0172,6.0195,6.0308,6.0569,6.0631,6.0731,6.1028,6.1027,6.0885,6.0637,6.0821,6.109,6.109,6.109,6.112,6.109,6.109,6.1239,6.1523,6.1613,6.1702,6.2002,6.2331,6.254,6.2556,6.2765,6.3244,6.3857,6.4036,6.3887,6.314,6.3304,6.3318,6.2424,6.2424,6.2424,6.167,6.052,6.0655,6.009,5.9219,0.0,0.0,0.0,6.2415,6.2584,6.2492,6.14,6.0892,6.0858,6.0274,6.067,6.1907,6.2492,6.3429,6.458,6.4715,6.4783,6.4816,6.4908,6.529,6.5909,6.6011,6.6383,6.6971,6.714,6.7208,6.7208,6.7208,6.6903,6.6315,6.5909,6.5402,6.4816,6.4783,6.4512,6.3883,6.4478,6.4471,6.3806,6.4221,6.3649,6.193,6.1265,6.0492,5.9512,5.8475,5.822,5.8841,5.8213,5.7751,5.7708,5.7366,5.7155,5.7136,5.766,5.7881,5.7727,5.7719,5.7957,5.8517,5.8201,5.8375,5.9296,5.9364,5.9464,5.9632,5.9792,5.9799,5.9547,5.9343,5.9626,6.0166,6.0049,6.0106,6.0932,6.1026,6.1164,6.1283,6.1431,6.1569,6.1688,6.1597,6.1371,6.1493,6.1613,6.1539,6.1628,6.1718,6.1658,6.1973,6.1928,6.1987,6.245,6.263,6.281,6.3318,6.3871,6.4066,6.4186,6.447,6.5024,6.5159,6.5188,6.5188,6.5188,6.5263,6.4919,6.2424,6.2424,6.2424,6.2289,6.212,6.2743,6.3284,6.3463,6.1366,6.0419,6.0554,6.2506,6.3352,6.3386,6.3758,6.3971,6.3971,6.3859,6.3937,6.414,6.4241,6.441,6.4613,6.5233,6.5537,6.5605,6.617,6.6531,6.67,6.7286,6.7658,6.7827,6.8436,6.8774,6.8764,6.8764,6.873,6.8571,6.6688,6.5639,6.5537,6.5537,6.5503,6.5402,6.5459,6.5307,6.4818,6.4304,6.3491,6.2453,6.23,6.1616,6.0267,5.9944,5.9565,5.8887,5.8684,5.8609,5.8622,5.8578,5.8541,5.8528,5.8621,5.864,5.8597,5.8609,5.864,5.8751,5.8701,5.8707,5.8887,5.898,5.939,6.0143,6.0314,6.0534,6.0998,6.1027,6.0982,6.0964,6.0902,6.0906,6.1224,6.1269,6.1539,6.1942,6.245,6.3153,6.3723,6.3005,6.2331,6.2674,6.2824,6.3033,6.3318,6.3588,6.3663,6.4381,6.4291,6.4157,6.4321,6.4336,6.4396,6.465,6.4755,6.4845,6.4874,6.4904,6.5308,6.5727,6.5877,6.5847,6.5877,6.6236,6.6221,6.3609,6.3599,6.3599,6.3599,6.3609,6.3971,6.4265,6.4478,6.3159,6.255,6.2651,6.3656,6.4096,6.4072,6.3599,6.3396,6.3396,6.299,6.326,6.3994,6.44,6.5043,6.5831,6.6542,6.688,6.6958,6.7692,6.8053,6.8053,6.8402,6.8538,6.8571,6.8944,6.9079,6.9079,6.9079,6.9079,6.9079,6.7624,6.6891,6.6891,6.6508,6.6294,6.6294,6.604,6.5818,6.5593,6.5045,6.4222,6.3119,6.2838,6.2075,6.0835,6.0177,5.9657,5.9179,5.8937,5.8818,5.8818,5.8818,5.8959,5.9298,5.9329,5.9667,6.0376,5.9421,5.8959,5.9329,5.9527,5.9824,6.0179,6.0372,6.0699,6.1132,6.1075,6.1128,6.1396,6.1353,6.1363,6.1597,6.1972,6.2301,6.2616,6.2975,6.3289,6.3618,6.3707,6.3977,6.4845,6.3693,6.3033,6.3887,6.4126,6.4246,6.45,6.453,6.4665,6.4964,6.4994,6.4994,6.4994,6.5024,6.5024,6.5024,6.5263,6.5518,6.5547,6.5847,6.6176,6.64,6.655,6.655,6.661,6.6835,6.6729,6.4613,6.4613,6.4613,6.4681,6.486,6.485,6.4952,6.5077,6.5111,6.5121,6.5087,6.4918,6.485,6.4749,6.3802,6.3497,6.3541,6.3067,6.3521,6.4739,6.5347,6.6237,6.7275,6.7929,6.8166,6.8233,6.8808,6.9079,6.9113,6.9248,6.9417,6.9586,6.9575,6.9586,6.9586,6.9465,6.9421,6.9343,6.8502,6.803,6.797,6.742,6.7039,6.6698,6.6385,6.6067,6.5813,6.5426,6.4691,6.3587,6.3108,6.2371,6.1265,6.042,5.9905,5.9768,5.945,5.9329,5.9483,5.9637,5.9914,6.0424,6.0468,6.093,6.1735,6.0575,5.9837,6.0416,6.0731,6.108,6.1498,6.1714,6.1921,6.2004,6.2006,6.2033,6.207,6.2009,6.2167,6.2735,6.3243,6.3707,6.4186,6.468,6.4979,6.5009,6.474,6.474,6.5159,6.4545,6.4515,6.4979,6.5084,6.4904,6.5084,6.5203,6.5293,6.5383,6.5488,6.5577,6.5577,6.5488,6.5458,6.5577,6.5877,6.6191,6.6281,6.658,6.6879,6.6909,6.6909,6.6908,6.6816,6.6938,6.6879,6.4613,6.4613,6.4681,6.4986,6.5605,6.5605,6.6,6.6565,6.6588,6.6599,6.6565,6.5909,6.5649,6.5672,6.6136,6.6667,6.7218,6.7286,6.7624,6.8368,6.8639,6.8774,6.8797,6.8944,6.9,6.899,6.908,6.9149,6.9161,6.9734,7.041,7.103,7.1097,7.0985,7.0996,7.0567,7.036,7.0349,6.9154,6.8443,6.8283,6.8216,6.7636,6.6543,6.6487,6.5941,6.496,6.4793,6.4312,6.3332,6.3208,6.2705,6.1696,6.1445,6.118,6.0738,6.0648,6.0855,6.1471,6.2117,6.235,6.2504,6.2443,6.246,6.2675,6.2294,6.2162,6.2357,6.2298,6.2171,6.2293,6.2129,6.216,6.2511,6.2967,6.344,6.3689,6.4306,6.4665,6.4695,6.468,6.4859,6.4919,6.5054,6.5338,6.5862,6.5712,6.5802,6.64,6.6251,6.6176,6.6281,6.5383,6.4874,6.5592,6.5906,6.6086,6.658,6.6759,6.667,6.658,6.664,6.6789,6.643,6.67,6.6789,6.6819,6.6984,6.6969,6.6983,6.6968,6.6907,6.6691,6.6753,6.6727,6.5889,6.5899,6.5889,6.6339,6.6958,6.6992,6.7421,6.8155,6.8155,6.8155,6.8121,6.7827,6.7455,6.7049,6.7817,6.8324,6.8605,6.8594,6.8774,6.9079,6.9079,6.9079,6.9147,6.9563,6.959,6.9346,6.9693,6.9781,6.962,6.9808,7.0109,7.033,7.0072,7.0072,7.034,6.9839,6.972,7.0049,6.9561,6.9122,6.8687,6.8125,6.7458,6.6686,6.6349,6.5816,6.5021,6.4686,6.4319,6.3929,6.3615,6.3216,6.2799,6.2475,6.2231,6.2007,6.1994,6.2104,6.2394,6.2645,6.2812,6.2812,6.2812,6.2899,6.3135,6.3044,6.3145,6.3371,6.2878,6.2469,6.2533,6.2855,6.3186,6.3446,6.3987,6.4453,6.4575,6.4815,6.4994,6.5024,6.5368,6.5607,6.5667,6.5936,6.6281,6.649,6.6311,6.6311,6.6864,6.634,6.6206,6.667,6.5922,6.5682,6.637,6.661,6.6729,6.6909,6.6999,6.6999,6.6999,6.6999,6.6969,6.6999,6.6999,6.6999,6.6969,6.6999,6.6999,6.6968,6.6799,6.666,6.6521,6.6459,6.628,6.7434,6.7411,6.7444,6.7749,6.8233,6.8233,6.8571,6.9045,6.9079,6.9079,6.9113,6.9316,6.9079,6.8639,6.8944,6.9214,6.9383,6.9383,6.9519,6.9655,6.9556,6.9478,6.9546,6.9861,6.9994,6.9919,7.0328,7.0403,7.0091,6.9711,6.9696,6.9767,6.944,6.9407,6.9775,6.928,6.9133,6.9329,6.9104,6.8736,6.8264,6.7643,6.7039,6.6578,6.6127,6.5561,6.4956,6.4577,6.4309,6.4155,6.3811,6.3536,6.3365,6.3026,6.2812,6.2843,6.2983,6.3089,6.3075,6.3273,6.3339,6.3258,6.3244,6.3306,6.3532,6.3637,6.3832,6.4015,6.3537,6.3215,6.3136,6.3612,6.4051,6.4261,6.4889,6.5233,6.5278,6.5383,6.5577,6.5607,6.6026,6.6281,6.634,6.664,6.6909,6.6879,6.658,6.64,6.6805,6.6251,6.5996,6.6835,6.655,6.649,6.6909,6.6939,6.6999,6.6999,6.6999,6.6999,6.6999,6.6999,6.6999,6.6999,6.6999,6.6999,6.6999,6.6999,6.6968,6.6877,6.6661,6.6441,6.6616,6.628,6.6198,6.9011,6.8977,6.8977,6.8977,6.9045,6.9045,6.9068,6.9248,6.918,6.9147,6.9282,6.9868,7.0139,7.0037,6.9485,6.9519,7.0071,7.0206,7.0567,7.1053,7.0667,7.0438,7.0392,7.0027,7.0156,7.0545,7.0681,7.0786,7.0753,6.9699,6.9444,6.9982,6.9767,6.9863,6.9774,6.9206,6.8865,6.8286,6.7455,6.6809,6.677,6.6688,6.6535,6.6301,6.5809,6.5215,6.4575,6.4404,6.4192,6.3685,6.3682,6.3414,6.2963,6.2887,6.2904,6.2935,6.3414,6.3752,6.3831,6.4309,6.4582,6.436,6.4318,6.4253,6.411,6.4293,6.4439,6.4473,6.4601,6.4588,6.4402,6.4287,6.4411,6.4919,6.5547,6.5906,6.5966,6.643,6.6849,6.6819,6.6819,6.6849,6.6879,6.6984,6.6999,6.6999,6.6939,6.6954,6.6939,6.6849,6.6879,6.6909,6.6939,6.6939,6.6999,6.6999,6.6999,6.6999,6.6999,6.6999,6.6999,6.6999,6.6999,6.6999,6.6999,6.6999,6.6999,6.6968,6.6922,6.6753,6.6321,6.6219,6.6347,6.6214,6.61,6.9079,6.9079,6.9079,6.935,6.9789,6.98,7.006,7.0522,7.0522,7.0522,7.0556,7.0804,7.0906,7.0894,7.0624,7.0624,7.0939,7.1379,7.1751,7.1988,7.1943,7.1687,7.1353,7.1205,7.0828,7.0501,7.0817,7.0659,7.0014,6.918,6.8691,6.8402,6.8073,6.7869,6.7758,6.7266,6.7021,6.7166,6.6791,6.6573,6.6506,6.6228,6.5991,6.5898,6.574,6.5353,6.4728,6.4715,6.4607,6.4435,6.4404,6.4353,6.4176,6.4149,6.4135,6.4166,6.4155,6.4167,6.4245,6.4629,6.484,6.4771,6.5152,6.5206,6.5037,6.5074,6.5048,6.4917,6.4904,6.5068,6.5398,6.5338,6.5368,6.5637,6.6221,6.661,6.667,6.6849,6.6999,6.6999,6.6999,6.6999,6.6999,6.6999,6.6999,6.6999,6.6999,6.6999,6.6999,6.6999,6.6999,6.6999,6.6999,6.6999,6.6999,6.6999,6.6999,6.6999,6.6999,6.6999,6.6999,6.6999,6.6999,6.6999,6.6999,6.6907,6.6861,6.6631,6.6645,6.6397,6.5992,6.5845,6.5973,6.5844,6.5728,6.9823,6.9812,6.9823,7.0094,7.0534,7.0567,7.0838,7.13,7.1289,7.1289,7.1289,7.1289,7.1289,7.1289,7.1289,7.1199,7.1108,7.1535,7.1783,7.1759,7.1611,7.1395,7.1239,7.0913,7.0632,7.0337,7.0516,7.0255,6.9554,6.8528,6.7939,6.7678,6.7048,6.6718,6.6649,6.6468,6.6456,6.6435,6.6359,6.6265,6.6036,6.5664,6.5447,6.546,6.5429,6.5283,6.4915,6.4901,6.4901,6.4901,6.4901,6.4901,6.4901,6.4901,6.4846,6.4718,6.4552,6.4462,6.4563,6.4761,6.4968,6.5079,6.5488,6.5629,6.538,6.5546,6.5517,6.5413,6.5577,6.5877,6.6191,6.6311,6.6295,6.637,6.6745,6.6999,6.6999,6.6969,6.6999,6.6999,6.6999,6.6999,6.6999,6.6999,6.6999,6.6999,6.6999,6.6999,6.6999,6.6999,6.6999,6.6999,6.6999,6.6999,6.6999,6.6999,6.6999,6.6999,6.6999,6.6999,6.6999,6.6999,6.6983,6.6983,6.6922,6.6814,6.6629,6.6397,6.6209,6.6035,6.5736,6.5539,6.5555,6.5489,6.5611,7.1233,7.1165,7.1255,7.1154,7.1199,7.1199,7.1255,7.13,7.1289,7.1289,7.1289,7.1334,7.1436,7.1346,7.1368,7.1073,7.0773,7.0652,7.0607,7.0552,6.9805,6.9743,7.0124,6.942,6.9587,7.0429,7.0049,6.9822,6.9683,6.8159,6.7477,6.7676,6.7228,6.6844,6.6884,6.7127,6.7,6.6231,6.5962,6.569,6.5025,6.5155,6.5155,6.5111,6.5111,6.5128,6.5025,6.4963,6.4901,6.4901,6.4901,6.4901,6.4994,6.4994,6.4824,6.4663,6.4487,6.4624,6.4872,6.4953,6.5204,6.5421,6.5543,6.5575,6.5488,6.5757,6.6042,6.6101,6.649,6.6909,6.6879,6.6909,6.6879,6.6984,6.6969,6.6999,6.6999,6.6999,6.6999,6.6999,6.6999,6.6999,6.6999,6.6999,6.6999,6.6999,6.6999,6.6999,6.6999,6.6999,6.6999,6.6999,6.6999,6.6999,6.6999,6.6999,6.6999,6.6999,6.6999,6.6999,6.6999,6.6999,6.6892,6.6861,6.6614,6.6475,6.643,6.6239,6.6233,6.6027,6.5651,6.5502,6.5627,6.577,6.5829,7.1289,7.1289,7.1289,7.1289,7.1289,7.1289,7.1289,7.1289,7.13,7.1289,7.1402,7.1842,7.2045,7.2009,7.1778,7.1539,7.1286,7.0262,6.9833,7.003,7.0012,6.9875,6.9793,6.9899,7.0216,7.0486,7.0047,6.9804,6.9595,6.8718,6.8212,6.7886,6.766,6.7073,6.6332,6.6394,6.6212,6.5948,6.5889,6.5982,6.6228,6.6259,6.6273,6.6304,6.6259,6.6259,6.6242,6.5411,6.4932,6.4963,6.4901,6.5103,6.5472,6.5596,6.5657,6.5727,6.5618,6.5404,6.5341,6.5529,6.5682,6.5907,6.6222,6.6447,6.6386,6.652,6.667,6.667,6.6879,6.6999,6.6999,6.6999,6.6999,6.6999,6.6999,6.6999,6.6999,6.6999,6.6999,6.6999,6.6999,6.6999,6.6999,6.6999,6.6999,6.6999,6.6999,6.6999,6.6999,6.6999,6.6999,6.6999,6.6999,6.6999,6.6999,6.6999,6.6999,6.6999,6.6999,6.6999,6.6999,6.6907,6.6815,6.6644,6.6365,6.6261,6.6211,6.6161,6.615,6.6154,6.5905,6.5952,6.6107,6.5993,6.5748,7.1537,7.1289,7.1289,7.147,7.1706,7.1706,7.1875,7.2078,7.2124,7.2067,7.2088,7.2448,7.2593,7.2426,7.1918,7.1569,7.1221,6.9714,6.9055,6.9232,6.959,6.9677,6.9624,7.0095,7.0201,6.9987,6.9629,6.9456,6.9427,6.8847,6.829,6.7951,6.766,6.7151,6.6396,6.6519,6.6536,6.6351,6.655,6.672,6.6874,6.6905,6.6905,6.6905,6.6905,6.6905,6.6813,6.6057,6.5657,6.5657,6.5657,6.5816,6.6086,6.6075,6.6088,6.6004,6.5924,6.575,6.5711,6.5832,6.6116,6.64,6.6775,6.6969,6.6969,6.6999,6.6999,6.6999,6.6999,6.6999,6.6999,6.6999,6.6999,6.6999,6.6999,6.6999,6.6999,6.6999,6.6999,6.6999,6.6999,6.6999,6.6999,6.6999,6.6999,6.6999,6.6999,6.6999,6.6999,6.6999,6.6999,6.6999,6.6999,6.6999,6.6999,6.6999,6.6999,6.6999,6.6999,6.6999,6.6999,6.6799,6.6676,6.6344,6.6059,6.6176,6.6137,6.6063,6.6033,6.6078,6.6065,6.5763,6.5561,6.5202,6.5011,7.2045,7.1436,7.1436,7.1875,7.2428,7.2473,7.2766,7.3353,7.3387,7.3134,7.2944,7.2917,7.2806,7.2423,7.1634,7.1138,7.0526,6.9304,6.8453,6.8308,6.8579,6.9028,6.9469,6.9666,6.9513,6.9123,6.9006,6.8963,6.8976,6.8457,6.7968,6.7982,6.7551,6.7028,6.7059,6.7582,6.7475,6.7075,6.7506,6.7506,6.7151,6.712,6.712,6.7151,6.7151,6.7182,6.7182,6.7016,6.6893,6.6846,6.6606,6.6494,6.646,6.6433,6.6203,6.5887,6.5663,6.5861,6.6012,6.6146,6.634,6.6819,6.6939,6.6999,6.6999,6.6999,6.6999,6.6999,6.6999,6.6999,6.6999,6.6999,6.6999,6.6999,6.6999,6.6999,6.6999,6.6999,6.6999,6.6999,6.6999,6.6999,6.6999,6.6999,6.6999,6.6999,6.6999,6.6999,6.6999,6.6999,6.6999,6.6999,6.6999,6.6999,6.6999,6.6999,6.6999,6.6968,6.6922,6.683,6.6768,6.6568,6.6305,6.6,6.594,6.6008,6.6092,6.6083,6.6087,6.6127,6.5867,6.5349,6.5013,6.4812,6.4599,7.3116,7.2902,7.2902,7.3048,7.3218,7.3218,7.3319,7.3488,7.351,7.303,7.2444,7.2731,7.2448,7.1595,7.1067,7.075,7.0344,6.9361,6.877,6.8625,6.8712,6.8875,6.9061,6.9116,6.908,6.8919,6.8904,6.8904,6.8904,6.8674,6.8581,6.8612,6.8411,6.8089,6.7797,6.7859,6.7828,6.766,6.7783,6.8105,6.8335,6.8304,6.8366,6.8366,6.8335,6.8304,6.8337,6.8132,6.7494,6.6563,6.6269,6.6368,6.6721,6.6798,6.6773,6.6838,6.6869,6.6839,6.6716,6.67,6.6819,6.6939,6.6999,6.6999,6.6999,6.6999,6.6999,6.6999,6.6999,6.6999,6.6999,6.6999,6.6999,6.6999,6.6999,6.6999,6.6999,6.6999,6.6999,6.6999,6.6999,6.6999,6.6999,6.6999,6.6999,6.6999,6.6999,6.6999,6.6999,6.6999,6.6999,6.6999,6.6999,6.6999,6.6999,6.6999,6.6983,6.6953,6.6814,6.6552,6.6397,6.6132,6.5868,6.5597,6.5809,6.5969,6.6108,6.6146,6.6191,6.6091,6.566,6.5145,6.5054,6.4874,6.4506,7.3793,7.3488,7.3488,7.3691,7.395,7.395,7.4002,7.4026,7.3821,7.3149,7.2408,7.2348,7.2053,7.1312,7.0701,7.0448,7.0293,6.9369,6.8917,6.8888,6.8886,6.8917,6.8933,6.8904,6.8904,6.8904,6.8904,6.8904,6.8904,6.8904,6.8904,6.8873,6.8904,6.8688,6.8366,6.8321,6.8321,6.8335,6.8321,6.8551,6.8873,6.8904,6.8904,6.8904,6.8904,6.886,6.8653,6.8238,6.7723,6.7247,6.6993,6.6909,6.7093,6.7154,6.7231,6.7335,6.7304,6.7168,6.706,6.6999,6.6999,6.6999,6.6999,6.6999,6.6999,6.6999,6.6999,6.6999,6.6999,6.6999,6.6999,6.6999,6.6999,6.6999,6.6999,6.6999,6.6999,6.6999,6.6999,6.6999,6.6999,6.6999,6.6999,6.6999,6.6999,6.6999,6.6999,6.6999,6.6999,6.6999,6.6999,6.6999,6.6968,6.6968,6.6876,6.683,6.6707,6.6691,6.629,6.6087,6.5898,6.566,6.5505,6.5422,6.5665,6.5848,6.5887,6.5901,6.5862,6.5654,6.5308,6.4996,6.4789,6.4807,6.4446,7.4322,7.3725,7.3725,7.4108,7.459,7.4575,7.4474,7.4562,7.3956,7.3185,7.2448,7.1934,7.1456,7.1186,7.0205,7.0058,6.9984,6.9224,6.8992,6.8904,6.8904,6.8904,6.8904,6.8904,6.8904,6.8904,6.8904,6.8904,6.8904,6.8904,6.8904,6.8904,6.8904,6.8904,6.8781,6.8842,6.8904,6.8842,6.8781,6.8812,6.8904,6.8904,6.8875,6.8786,6.8698,6.8595,6.8298,6.7894,6.7698,6.8253,6.8044,6.7608,6.7427,6.7426,6.7305,6.7076,6.706,6.7029,6.7014,6.6999,6.6999,6.6999,6.6999,6.6999,6.6999,6.6999,6.6999,6.6999,6.6999,6.6999,6.6999,6.6999,6.6999,6.6999,6.6999,6.6999,6.6999,6.6999,6.6999,6.6999,6.6999,6.6999,6.6999,6.6999,6.6999,6.6999,6.6999,6.6999,6.6999,6.6999,6.6999,6.6999,6.6968,6.6892,6.6784,6.6645,6.6459,6.6288,6.5666,6.5364,6.5251,6.5112,6.5113,6.5179,6.5485,6.5521,6.5365,6.5377,6.5316,6.5008,6.4487,6.4337,6.4229,6.4419,6.431,7.5359,7.5248,7.5236,7.5185,7.5032,7.4437,7.4011,7.3777,7.2998,7.2087,7.1237,7.0933,7.0364,6.9497,6.9369,6.9165,6.9238,6.9006,6.8904,6.8904,6.8904,6.8904,6.8904,6.8904,6.8904,6.8904,6.8904,6.8904,6.8904,6.8904,6.8904,6.8904,6.8904,6.8904,6.8904,6.8904,6.8904,6.8904,6.8904,6.8889,6.8875,6.8875,6.8757,6.8535,6.8313,6.8194,6.806,6.7714,6.7563,6.7563,6.7411,6.7259,6.7182,6.7137,6.7091,6.7045,6.6999,6.6999,6.6999,6.6999,6.6999,6.6999,6.6999,6.6999,6.6999,6.6999,6.6999,6.6999,6.6999,6.6999,6.6999,6.6999,6.6999,6.6999,6.6999,6.6999,6.6999,6.6999,6.6999,6.6999,6.6999,6.6999,6.6999,6.6999,6.6999,6.6999,6.6999,6.6999,6.6999,6.6999,6.6999,6.6999,6.6814,6.6737,6.6568,6.6243,6.579,6.5507,6.4938,6.4554,6.4467,6.4507,6.4462,6.4832,6.5317,6.5184,6.4791,6.4616,6.452,6.4114,6.3793,6.3794,6.3831,6.4048,6.431,7.5676,7.5662,7.5124,7.4819,7.4547,7.3637,7.2992,7.2532,7.1832,7.103,7.0279,6.997,6.9439,6.8919,6.8904,6.8919,6.8904,6.8904,6.8904,6.8904,6.8904,6.8904,6.8904,6.8904,6.8904,6.8904,6.8904,6.8904,6.8904,6.8904,6.8904,6.8904,6.8904,6.8904,6.8904,6.8904,6.8904,6.8904,6.8904,6.8845,6.8698,6.8638,6.8535,6.8209,6.7909,6.7774,6.7744,6.7426,6.7304,6.7213,6.7106,6.6999,6.6999,6.6999,6.6999,6.6999,6.6999,6.6999,6.6999,6.6999,6.6999,6.6999,6.6999,6.6999,6.6999,6.6999,6.6999,6.6999,6.6999,6.6999,6.6999,6.6999,6.6999,6.6999,6.6999,6.6999,6.6999,6.6999,6.6999,6.6999,6.6999,6.6999,6.6999,6.6999,6.6999,6.6999,6.6999,6.6999,6.6999,6.6999,6.6999,6.6922,6.6691,6.6506,6.6335,6.5837,6.5034,6.4586,6.4054,6.3745,6.3577,6.3685,6.3824,6.4211,6.4557,6.4378,6.4041,6.388,6.37,6.3373,6.3206,6.3288,6.3541,6.3939,6.4201,7.565,7.552,7.4402,7.3925,7.3676,7.2566,7.1783,7.1283,7.0599,7.0067,6.9658,6.9109,6.9021,6.8904,6.8904,6.8904,6.8904,6.8904,6.8904,6.8904,6.8904,6.8904,6.8904,6.8904,6.8904,6.8904,6.8904,6.8904,6.8904,6.8904,6.8904,6.8904,6.8904,6.8904,6.8904,6.8845,6.8801,6.8786,6.8698,6.8595,6.8387,6.8343,6.8194,6.7894,6.7608,6.7441,6.7381,6.7168,6.7014,6.6999,6.6999,6.6999,6.6999,6.6999,6.6999,6.6999,6.6999,6.6999,6.6999,6.6999,6.6999,6.6999,6.6999,6.6999,6.6999,6.6999,6.6999,6.6999,6.6999,6.6999,6.6999,6.6999,6.6999,6.6999,6.6999,6.6999,6.6999,6.6999,6.6999,6.6999,6.6999,6.6999,6.6999,6.6999,6.6999,6.6999,6.6999,6.6999,6.6999,6.6968,6.6953,6.6569,6.6243,6.5364,6.5034,6.489,6.4167,6.3794,6.3221,6.2924,6.2715,6.2771,6.2937,6.3325,6.3515,6.3418,6.3317,6.3155,6.2923,6.2619,6.2891,6.327,6.3596,6.3912,6.4102,7.5373,7.5289,7.4139,7.3542,7.309,7.1593,7.0683,7.0311,6.9614,6.9151,6.908,6.8932,6.8904,6.8904,6.8904,6.8904,6.8904,6.8904,6.8904,6.8904,6.8904,6.8904,6.8904,6.8904,6.8904,6.8904,6.8904,6.8904,6.8904,6.8904,6.8904,6.8904,6.8904,6.8904,6.883,6.8668,6.852,6.8521,6.8358,6.8209,6.8074,6.8015,6.7895,6.7593,6.7289,6.7152,6.7106,6.7045,6.6999,6.6999,6.6999,6.6999,6.6999,6.6999,6.6999,6.6999,6.6999,6.6999,6.6999,6.6999,6.6999,6.6999,6.6999,6.6999,6.6999,6.6999,6.6999,6.6999,6.6999,6.6999,6.6999,6.6999,6.6999,6.6999,6.6999,6.6999,6.6999,6.6999,6.6999,6.6999,6.6999,6.6999,6.6999,6.6999,6.6999,6.6999,6.6999,6.6999,6.6999,6.6937,6.6861,6.6321,6.5682,6.457,6.3533,6.3434,6.3122,6.2974,6.257,6.2125,6.1955,6.1857,6.2043,6.2412,6.2661,6.2711,6.2599,6.2457,6.243,6.2321,6.2782,6.3352,6.3614,6.3858,6.4156,7.5158,7.4522,7.3406,7.2519,7.1674,7.035,6.9641,6.9485,6.9094,6.8904,6.8904,6.8904,6.8904,6.8904,6.8904,6.8904,6.8904,6.8904,6.8904,6.8904,6.8904,6.8904,6.8904,6.8904,6.8904,6.8904,6.8904,6.8904,6.8904,6.8904,6.8904,6.8904,6.8904,6.8904,6.883,6.8609,6.8401,6.8312,6.8119,6.7895,6.7744,6.7623,6.7381,6.7243,6.7106,6.7014,6.6999,6.6999,6.6999,6.6999,6.6999,6.6999,6.6999,6.6999,6.6999,6.6999,6.6999,6.6999,6.6999,6.6999,6.6999,6.6999,6.6999,6.6999,6.6999,6.6999,6.6999,6.6999,6.6999,6.6999,6.6999,6.6999,6.6999,6.6999,6.6999,6.6999,6.6999,6.6999,6.6999,6.6999,6.6999,6.6999,6.6999,6.6999,6.6999,6.6999,6.6999,6.6968,6.6953,6.6815,6.6677,6.5619,6.4858,6.3859,6.2775,6.2504,6.237,6.2186,6.1968,6.1546,6.1346,6.1332,6.1335,6.1534,6.1726,6.2031,6.1905,6.1796,6.1905,6.2077,6.2619,6.3108,6.3478,6.3776,6.412,7.4601,7.3484,7.2341,7.1361,7.0434,6.9383,6.8933,6.8904,6.8919,6.8904,6.8904,6.8904,6.8904,6.8904,6.8904,6.8904,6.8904,6.8904,6.8904,6.8904,6.8904,6.8904,6.8904,6.8904,6.8904,6.8904,6.8904,6.8904,6.8904,6.8904,6.8904,6.8904,6.8904,6.8845,6.8742,6.8447,6.8327,6.8149,6.7939,6.7653,6.7411,6.7167,6.6999,6.6999,6.6999,6.6999,6.6999,6.6999,6.6999,6.6999,6.6999,6.6999,6.6999,6.6999,6.6999,6.6999,6.6999,6.6999,6.6999,6.6999,6.6999,6.6999,6.6999,6.6999,6.6999,6.6999,6.6999,6.6999,6.6999,6.6999,6.6999,6.6999,6.6999,6.6999,6.6999,6.6999,6.6999,6.6999,6.6999,6.6999,6.6999,6.6999,6.6999,6.6999,6.6999,6.6999,6.6999,6.6692,6.6661,6.6615,6.6182,6.4861,6.3863,6.3056,6.2303,6.18,6.1665,6.1563,6.1404,6.1098,6.0961,6.0905,6.0957,6.1063,6.1202,6.1434,6.1298,6.1461,6.1905,6.2284,6.2538,6.2918,6.3397,6.3831,6.4201,7.32,7.2047,7.0937,7.0353,7.0098,6.9253,6.8904,6.8904,6.8904,6.8904,6.8904,6.8904,6.8904,6.8904,6.8904,6.8904,6.8904,6.8904,6.8904,6.8904,6.8904,6.8904,6.8904,6.8904,6.8904,6.8904,6.8904,6.8904,6.8889,6.8889,6.8875,6.886,6.8786,6.8757,6.8461,6.8164,6.791,6.7638,6.7335,6.7137,6.7106,6.7045,6.6999,6.6999,6.6999,6.6999,6.6999,6.6999,6.6999,6.6999,6.6999,6.6999,6.6999,6.6999,6.6999,6.6999,6.6999,6.6999,6.6999,6.6999,6.6999,6.6999,6.6999,6.6999,6.6999,6.6999,6.6999,6.6999,6.6999,6.6999,6.6999,6.6999,6.6999,6.6999,6.6999,6.6999,6.6999,6.6999,6.6999,6.6999,6.6999,6.6999,6.6999,6.6999,6.6999,6.6999,6.6937,6.6646,6.6305,6.6151,6.5619,6.4284,6.2995,6.2125,6.1833,6.1326,6.1207,6.108,6.0961,6.079,6.079,6.079,6.079,6.0905,6.1017,6.1298,6.1597,6.1878,6.2203,6.2529,6.2854,6.3153,6.3424,6.3831,6.4283,7.206,7.1127,7.0645,7.0056,6.9456,6.9034,6.8904,6.8904,6.8904,6.8904,6.8904,6.8904,6.8904,6.8904,6.8904,6.8904,6.8904,6.8904,6.8904,6.8904,6.8904,6.8904,6.8904,6.8904,6.8904,6.8904,6.8904,6.8904,6.8875,6.8727,6.8608,6.8609,6.8461,6.8343,6.8149,6.7849,6.7684,6.7457,6.7213,6.7014,6.6999,6.6999,6.6999,6.6999,6.6999,6.6999,6.6999,6.6999,6.6999,6.6999,6.6999,6.6999,6.6999,6.6999,6.6999,6.6999,6.6999,6.6999,6.6999,6.6999,6.6999,6.6999,6.6999,6.6999,6.6999,6.7029,6.7029,6.6999,6.6999,6.6999,6.7029,6.6999,6.6999,6.6999,6.6999,6.6999,6.6999,6.6999,6.6999,6.6999,6.6999,6.6999,6.6999,6.6999,6.6999,6.6999,6.6937,6.6708,6.6072,6.5398,6.4653,6.3635,6.2392,6.1224,6.1149,6.0927,6.0995,6.091,6.091,6.079,6.079,6.079,6.0817,6.0962,6.118,6.1515,6.1932,6.2095,6.2203,6.2664,6.3207,6.3424,6.3668,6.3957,6.431,7.0767,7.0194,7.018,6.967,6.8919,6.8904,6.8904,6.8904,6.8904,6.8904,6.8904,6.8904,6.8904,6.8904,6.8904,6.8904,6.8904,6.8904,6.8904,6.8904,6.8904,6.8904,6.8904,6.8904,6.8904,6.8904,6.8904,6.8845,6.8683,6.8521,6.8358,6.8387,6.8194,6.8,6.7834,6.7669,6.7487,6.7335,6.7121,6.7014,6.6999,6.6999,6.6999,6.6999,6.6999,6.6999,6.6999,6.6999,6.6999,6.6999,6.6999,6.6999,6.6999,6.6999,6.6999,6.6999,6.6999,6.6999,6.6999,6.6999,6.6999,6.6999,6.6999,6.6999,6.7029,6.7104,6.7254,6.7343,6.7313,6.7313,6.7224,6.7148,6.6999,6.6999,6.6999,6.6999,6.6999,6.6999,6.6999,6.6999,6.6999,6.6999,6.6999,6.6999,6.6999,6.6999,6.6907,6.6661,6.5713,6.4589,6.3631,6.2642,6.1951,6.0927,6.0858,6.079,6.079,6.0772,6.0772,6.0772,6.0755,6.0827,6.0898,6.1098,6.1335,6.1759,6.2176,6.2149,6.2203,6.2854,6.3451,6.3668,6.393,6.4174,6.431,6.9094,6.9005,6.9065,6.9036,6.8904,6.8904,6.8904,6.8904,6.8904,6.8904,6.8904,6.8904,6.8904,6.8904,6.8904,6.8904,6.8904,6.8904,6.8904,6.8904,6.8904,6.8904,6.8904,6.8904,6.8904,6.8904,6.8845,6.8683,6.8447,6.8164,6.8194,6.8313,6.797,6.7774,6.7623,6.7457,6.7304,6.7167,6.7014,6.6999,6.6999,6.6999,6.6999,6.6999,6.6999,6.6999,6.6999,6.6999,6.6999,6.6999,6.6999,6.6999,6.6999,6.6999,6.6999,6.6999,6.6999,6.6999,6.6999,6.6999,6.7014,6.6999,6.7059,6.7178,6.7358,6.7703,6.7898,6.7942,6.7912,6.7958,6.7748,6.7433,6.7208,6.7148,6.7194,6.7134,6.7104,6.6999,6.6999,6.6999,6.6891,6.6677,6.6445,6.6321,6.6414,6.6414,6.5947,6.5711,6.4509,6.339,6.2459,6.1648,6.1302,6.0841,6.0807,6.079,6.079,6.0721,6.0687,6.0704,6.0704,6.0802,6.0761,6.1273,6.1546,6.1961,6.2447,6.2746,6.3071,6.337,6.3695,6.3912,6.3993,6.4129,6.4256,6.9383,6.8919,6.8904,6.8904,6.8904,6.8904,6.8904,6.8904,6.8904,6.8904,6.8904,6.8904,6.8904,6.8904,6.8904,6.8904,6.8904,6.8904,6.8904,6.8904,6.8904,6.8904,6.8904,6.8889,6.8904,6.8845,6.8713,6.8549,6.8372,6.7939,6.7789,6.7714,6.7593,6.7381,6.7228,6.7228,6.7121,6.7075,6.6999,6.6999,6.6999,6.6999,6.6999,6.6999,6.6999,6.6999,6.6999,6.6999,6.6999,6.6999,6.6999,6.6999,6.6999,6.6999,6.6999,6.6999,6.6999,6.6999,6.6999,6.7029,6.7148,6.7553,6.7643,6.7717,6.7986,6.8481,6.86,6.86,6.86,6.8616,6.8495,6.8032,6.7643,6.7523,6.7433,6.7403,6.7284,6.7224,6.7041,6.7024,6.6487,6.6011,6.5745,6.5493,6.5651,6.5745,6.5208,6.457,6.3483,6.2609,6.1816,6.1268,6.0944,6.0738,6.0704,6.0738,6.0755,6.0652,6.0549,6.0497,6.0429,6.0429,6.0529,6.1129,6.1873,6.2421,6.299,6.3559,6.3776,6.3722,6.3885,6.4129,6.4183,6.4129,6.421,6.9456,6.8919,6.8904,6.8904,6.8904,6.8904,6.8904,6.8904,6.8904,6.8904,6.8904,6.8904,6.8904,6.8904,6.8904,6.8904,6.8904,6.8904,6.8904,6.8904,6.8904,6.8845,6.8786,6.8727,6.8654,6.8609,6.8432,6.8253,6.8059,6.7684,6.7517,6.735,6.7122,6.703,6.7029,6.6999,6.6999,6.6999,6.6999,6.6999,6.6999,6.6999,6.6999,6.6999,6.6999,6.6999,6.6999,6.6999,6.6999,6.6999,6.6999,6.6999,6.6999,6.6999,6.6999,6.6999,6.6999,6.6999,6.6999,6.7029,6.7298,6.7762,6.7928,6.8301,6.881,6.9153,6.9289,6.9273,6.9273,6.9259,6.9123,6.8541,6.8062,6.7912,6.8062,6.8016,6.7762,6.7597,6.7292,6.7032,6.6325,6.554,6.4813,6.4493,6.4332,6.438,6.3993,6.3455,6.2841,6.2075,6.1597,6.1149,6.0841,6.0704,6.0584,6.0411,6.0239,6.0187,6.01,6.0065,6.0031,6.0136,6.0634,6.1457,6.2209,6.2919,6.3451,6.3939,6.3939,6.3804,6.4021,6.4265,6.4265,6.421,6.4256,6.8948,6.8904,6.8904,6.8904,6.8904,6.8904,6.8904,6.8904,6.8904,6.8904,6.8904,6.8904,6.8904,6.8904,6.8904,6.8904,6.8889,6.8875,6.8845,6.883,6.8727,6.8654,6.8535,6.8417,6.8343,6.8105,6.7985,6.7865,6.7608,6.7457,6.7304,6.7152,6.7029,6.6999,6.6999,6.6999,6.6999,6.6999,6.6999,6.6999,6.6999,6.6999,6.6999,6.6999,6.6999,6.6999,6.6999,6.6999,6.6999,6.6999,6.6999,6.6999,6.6999,6.6999,6.6999,6.6999,6.6999,6.6999,6.7029,6.7029,6.7493,6.8151,6.8466,6.8706,6.9093,6.9542,6.9947,6.9901,6.9931,6.9692,6.9333,6.8974,6.866,6.8481,6.8615,6.8435,6.8151,6.7643,6.7278,6.6965,6.6043,6.51,6.4187,6.3471,6.3094,6.2896,6.2631,6.2264,6.1923,6.1546,6.1087,6.0831,6.0549,6.036,6.0152,5.9874,5.97,5.9666,5.971,5.9736,6.0028,6.0355,6.0987,6.18,6.2552,6.3252,6.3776,6.4283,6.4147,6.4039,6.4147,6.431,6.431,6.431,6.431,6.8904,6.8904,6.8904,6.8904,6.8904,6.8904,6.8904,6.8904,6.8904,6.8904,6.8904,6.8904,6.8904,6.8904,6.8889,6.8889,6.886,6.8639,6.858,6.8565,6.8432,6.8238,6.8134,6.8119,6.809,6.7955,6.7819,6.7638,6.7532,6.7335,6.7167,6.7014,6.6999,6.6999,6.6999,6.6999,6.6999,6.6999,6.6999,6.6999,6.6999,6.6999,6.6999,6.6999,6.6999,6.6999,6.6999,6.6999,6.6999,6.6999,6.6999,6.6999,6.6999,6.6999,6.6999,6.6999,6.6999,6.7224,6.7493,6.7762,6.8227,6.8886,6.9245,6.9468,7.0201,7.041,7.056,7.0514,7.05,7.035,7.032,6.9842,6.9498,6.9229,6.9139,6.8704,6.8286,6.7597,6.707,6.6811,6.6186,6.4302,6.2995,6.2542,6.2175,6.1856,6.1654,6.1502,6.1207,6.0865,6.0488,6.0333,6.0108,5.9944,5.9718,5.9615,5.9554,5.9589,5.9624,5.9616,5.9995,6.0536,6.1318,6.2149,6.2885,6.3559,6.3984,6.431,6.431,6.4283,6.4165,6.4128,6.411,6.4183,6.4292,6.8904,6.8904,6.8904,6.8904,6.8904,6.8904,6.8904,6.8904,6.8904,6.8904,6.8904,6.8904,6.8904,6.8875,6.8786,6.8742,6.8698,6.8417,6.8268,6.8238,6.812,6.797,6.788,6.785,6.7714,6.7653,6.7487,6.732,6.7304,6.7106,6.7014,6.6999,6.6999,6.6999,6.6999,6.6999,6.6999,6.6999,6.6999,6.6999,6.6999,6.6999,6.6999,6.6999,6.6999,6.6999,6.6999,6.6999,6.6999,6.6999,6.6999,6.6999,6.6999,6.6999,6.6999,6.6999,6.7313,6.7762,6.8451,6.8736,6.9335,7.0097,7.0127,7.029,7.0769,7.0783,7.0813,7.0843,7.0903,7.0739,7.053,7.0127,7.0021,6.9738,6.9349,6.8914,6.8224,6.7507,6.6681,6.6463,6.5515,6.3621,6.2052,6.1614,6.1268,6.0995,6.0721,6.0645,6.0593,6.0325,6.0092,5.9963,5.9789,5.9606,5.9528,5.9502,5.9493,5.9519,5.9625,5.9721,6.017,6.0754,6.161,6.2443,6.3082,6.3677,6.4066,6.4292,6.4146,6.3964,6.3736,6.3754,6.3846,6.38,6.3726,6.8904,6.8904,6.8904,6.8904,6.8904,6.8904,6.8904,6.8904,6.8904,6.8904,6.8904,6.8904,6.8904,6.8845,6.8595,6.8461,6.8372,6.8119,6.7984,6.8015,6.7986,6.7789,6.7653,6.7652,6.7681,6.7347,6.73,6.7631,6.7179,6.7403,6.7358,6.7238,6.7403,6.7418,6.7388,6.7388,6.7328,6.7284,6.7208,6.7298,6.7448,6.7343,6.7418,6.7388,6.7298,6.7224,6.7164,6.7074,6.6999,6.6999,6.6999,6.6999,6.6999,6.7014,6.7029,6.7268,6.7778,6.863,6.9468,6.9648,7.0067,7.0546,7.0366,7.047,7.0679,7.0903,7.0903,7.0903,7.0873,7.05,7.0157,7.0171,7.0171,6.9842,6.9498,6.8898,6.8133,6.7312,6.6387,6.5598,6.4548,6.3065,6.1709,6.1029,6.0785,6.0584,6.0404,6.0279,6.02,6.0031,5.9868,5.9774,5.9581,5.9325,5.9324,5.9578,5.9647,5.9762,5.9943,6.0107,6.0555,6.1081,6.1872,6.2646,6.324,6.3755,6.4156,6.411,6.3836,6.3616,6.3167,6.2964,6.2927,6.2648,6.25,6.8904,6.8904,6.8904,6.8904,6.8904,6.8904,6.8904,6.8904,6.8904,6.8904,6.8904,6.8904,6.8935,6.8875,6.858,6.8432,6.8239,6.7924,6.7729,6.7744,6.8014,6.762,6.7678,6.8007,6.8034,6.8033,6.8092,6.8256,6.8391,6.8375,6.8345,6.8465,6.8226,6.8301,6.8331,6.8405,6.8092,6.7852,6.7762,6.7912,6.8166,6.8271,6.8256,6.8196,6.7852,6.7762,6.7673,6.7313,6.7178,6.7089,6.7044,6.7014,6.6999,6.7433,6.7822,6.8375,6.872,6.9109,6.9844,7.0023,7.0277,7.0769,7.0679,7.0739,7.0859,7.0903,7.0903,7.0903,7.0873,7.059,7.0336,7.0277,7.0081,6.9692,6.9301,6.8622,6.784,6.6891,6.5943,6.476,6.368,6.2621,6.1285,6.0726,6.0504,6.031,6.019,6.0108,5.9959,5.9853,5.9819,5.9757,5.9685,5.9498,5.9758,6.0035,6.0007,6.0057,6.0326,6.0635,6.1091,6.1647,6.2234,6.2885,6.3537,6.391,6.4228,6.4001,6.348,6.2815,6.2388,6.2164,6.1939,6.1658,6.1545,6.8904,6.8904,6.8904,6.8904,6.8904,6.8904,6.8904,6.8904,6.8904,6.8904,6.8904,6.8904,6.9043,6.9216,6.886,6.8758,6.9047,6.8544,6.8236,6.831,6.8275,6.8184,6.8301,6.8525,6.86,6.869,6.875,6.8824,6.9064,6.9034,6.8944,6.8914,6.9004,6.9004,6.8944,6.8854,6.8914,6.872,6.866,6.872,6.89,6.9064,6.9004,6.8974,6.8571,6.8451,6.8361,6.7867,6.7822,6.7792,6.7792,6.7792,6.7837,6.8241,6.869,6.9183,6.9393,6.9752,7.0277,7.0426,7.059,7.0799,7.0903,7.0889,7.0889,7.0903,7.0903,7.0873,7.0843,7.0769,7.056,7.0306,6.9901,6.9467,6.8891,6.8331,6.74,6.6391,6.5267,6.4048,6.2973,6.2003,6.116,6.0631,6.0443,6.065,6.0607,6.0447,6.0199,5.9969,5.9994,5.9981,5.9916,5.985,6.0151,6.0465,6.0561,6.0692,6.1024,6.1371,6.1724,6.194,6.2265,6.2988,6.3819,6.3946,6.3836,6.348,6.3019,6.2295,6.1563,6.1224,6.0939,6.0654,6.0616,6.8904,6.8904,6.8904,6.8904,6.8904,6.8904,6.8904,6.8904,6.886,6.8905,6.9012,6.9027,6.9352,6.968,6.9336,6.9336,6.9349,6.9035,6.8739,6.9019,6.9035,6.8914,6.8824,6.9123,6.9273,6.9183,6.9243,6.9542,6.9303,6.9393,6.9482,6.9153,6.9303,6.9423,6.9482,6.9453,6.9602,6.9782,6.9512,6.9393,6.9303,6.9243,6.9153,6.9213,6.9153,6.9064,6.9064,6.9004,6.9004,6.8974,6.8944,6.8854,6.9004,6.9034,6.9453,6.9812,7.0021,7.029,7.059,7.0739,7.0799,7.0873,7.0903,7.0903,7.0903,7.0903,7.0903,7.0903,7.0873,7.0679,7.047,7.0306,6.9961,6.9509,6.8963,6.7998,6.6784,6.5657,6.4349,6.3258,6.2433,6.1544,6.1426,6.0934,6.0581,6.0952,6.0843,6.059,6.0607,6.0299,6.026,6.0313,6.0329,6.0405,6.0718,6.1006,6.1136,6.1346,6.1562,6.1611,6.1648,6.1883,6.2145,6.2611,6.3037,6.3204,6.3111,6.2686,6.2127,6.1431,6.0794,6.0316,5.9984,5.9869,5.9888,6.8904,6.8904,6.8904,6.8904,6.8904,6.8904,6.8935,6.8875,6.8608,6.9006,6.9568,6.966,6.9833,7.0052,6.9763,6.9698,6.9538,6.9526,6.9081,6.9289,6.9512,6.9542,6.9363,6.9871,7.0021,6.9975,7.0095,7.029,7.0231,7.032,7.041,7.041,7.0304,7.026,7.026,7.026,7.038,7.053,7.041,7.0231,7.0231,7.038,7.044,7.026,7.0127,6.9798,6.9632,6.9303,6.9123,6.9004,6.9004,6.9243,6.9708,6.9738,7.0081,7.053,7.062,7.0723,7.0783,7.0903,7.0903,7.0903,7.0903,7.0903,7.0903,7.0903,7.0903,7.0903,7.0813,7.062,7.044,7.029,7.0141,6.9626,6.9092,6.7733,6.6313,6.4816,6.3452,6.2622,6.1836,6.1566,6.1461,6.1265,6.095,6.0714,6.0478,6.0428,6.091,6.0884,6.0821,6.0857,6.0893,6.1013,6.1293,6.1443,6.1547,6.1495,6.1603,6.1613,6.1559,6.1665,6.177,6.1752,6.1977,6.2276,6.2239,6.1582,6.1022,6.0565,6.0259,5.9913,5.9778,5.9637,5.9579,6.9089,6.932,6.932,6.9366,6.9366,6.9366,6.9277,6.913,6.9226,6.9655,7.0068,6.9563,6.9472,7.0052,6.9866,7.0148,7.0045,6.9985,6.9993,7.0051,7.0021,7.0141,7.035,7.053,7.0514,7.0514,7.0663,7.0843,7.0903,7.0873,7.0813,7.0903,7.0903,7.0903,7.0903,7.0903,7.0903,7.0873,7.0903,7.0903,7.0903,7.0889,7.0889,7.0739,7.062,7.0396,7.0336,6.9991,6.9931,6.9871,6.9931,7.0021,7.032,7.0396,7.056,7.0769,7.0843,7.0903,7.0903,7.0903,7.0903,7.0903,7.0903,7.0903,7.0903,7.0903,7.0903,7.0903,7.0903,7.0693,7.0679,7.059,7.053,7.0226,6.9627,6.8654,6.6382,6.4158,6.3069,6.2291,6.1666,6.1388,6.1332,6.129,6.1111,6.1451,6.1087,6.0964,6.1312,6.1379,6.1331,6.1275,6.1268,6.1439,6.1704,6.1801,6.188,6.1808,6.1608,6.1344,6.1174,6.128,6.1375,6.1337,6.1394,6.1601,6.142,6.087,6.0431,6.0067,5.9817,5.9585,5.9527,5.9527,5.9527,6.9304,6.9766,6.9843,6.9874,6.9905,6.9997,6.9834,6.967,7.0068,7.0371,7.0366,6.888,6.9032,6.9682,6.9919,7.0577,7.0854,7.0627,7.0709,7.0753,7.0783,7.0633,7.0663,7.0843,7.0813,7.0783,7.0873,7.0903,7.0903,7.0903,7.0903,7.0903,7.0903,7.0903,7.0903,7.0903,7.0903,7.0903,7.0903,7.0903,7.0903,7.0903,7.0903,7.0903,7.0903,7.0903,7.0889,7.0889,7.0873,7.0813,7.0679,7.0709,7.0739,7.0769,7.0799,7.0903,7.0903,7.0903,7.0903,7.0903,7.0903,7.0903,7.0903,7.0903,7.0903,7.0903,7.0903,7.0903,7.0903,7.0873,7.0843,7.0813,7.0783,7.0205,6.9608,6.8802,6.6133,6.3631,6.2744,6.197,6.1735,6.1387,6.1406,6.1385,6.1517,6.1898,6.201,6.201,6.1939,6.1726,6.1599,6.1513,6.1431,6.1673,6.1898,6.186,6.1804,6.1665,6.1401,6.1041,6.0756,6.0635,6.0673,6.0882,6.0977,6.0939,6.0787,6.0412,5.999,5.9701,5.9624,5.9527,5.9527,5.9527,5.9527,6.9458,6.915,6.9659,6.9905,6.9997,7.0459,7.054,7.0221,7.0113,6.9971,6.9735,6.9409,6.9649,7.1109,7.1075,7.1202,7.0931,7.0919,7.0919,7.0873,7.0903,7.0903,7.0903,7.0903,7.0903,7.0903,7.0903,7.0903,7.0903,7.0903,7.0903,7.0903,7.0903,7.0903,7.0903,7.0903,7.0903,7.0903,7.0903,7.0903,7.0903,7.0903,7.0903,7.0903,7.0903,7.0903,7.0903,7.0903,7.0873,7.0903,7.0903,7.0903,7.0903,7.0903,7.0903,7.0903,7.0903,7.0903,7.0903,7.0903,7.0903,7.0903,7.0903,7.0903,7.0903,7.0903,7.0903,7.0903,7.0903,7.0824,7.0824,7.0824,7.0697,6.9123,6.8118,6.6946,6.5036,6.3494,6.2373,6.2136,6.2065,6.2001,6.2083,6.1991,6.1786,6.201,6.201,6.201,6.201,6.1935,6.1841,6.1634,6.1483,6.1502,6.1521,6.1476,6.142,6.1325,6.1117,6.066,6.022,5.9836,5.9888,6.0233,6.0118,5.9984,5.9836,5.999,5.9817,5.9585,5.9566,5.9527,5.9527,5.9527,5.9527]},{"header":{"parameterUnit":"m.s-1","parameterCategory":1,"la1":31.0,"la2":29.5877,"lo1":-88.7671,"lo2":-86.6584,"dx":0.0162,"dy":0.0185,"nx":115,"ny":88,"refTime":"2022-11-20T06:00:00:Z","depth":0,"parameterNumber":3,"parameterNumberName":"V-component_of_WINDS"},"data":[0.0,0.0,0.0,0.0,0.0,0.0,0.0,0.0,0.0,0.0,0.0,0.0,0.0,0.0,0.0,0.0,0.0,0.0,0.0,0.0,0.0,0.0,0.0,0.0,0.0,0.0,0.0,0.0,0.0,0.0,0.0,0.0,0.0,0.0,0.0,0.0,0.0,0.0,0.0,0.0,0.0,0.0,0.0,0.0,0.0,0.0,0.0,0.0,0.0,0.0,0.0,0.0,0.0,0.0,0.0,0.0,0.0,0.0,0.0,0.0,0.0,0.0,0.0,0.0,0.0,0.0,0.0,0.0,0.0,0.0,0.0,0.0,0.0,0.0,0.0,0.0,0.0,0.0,0.0,0.0,0.0,0.0,0.0,0.0,0.0,0.0,0.0,0.0,0.0,0.0,0.0,0.0,0.0,0.0,0.0,0.0,0.0,0.0,0.0,0.0,0.0,0.0,0.0,0.0,0.0,0.0,0.0,0.0,0.0,0.0,0.0,0.0,0.0,0.0,0.0,0.0,0.0,0.0,0.0,0.0,0.0,0.0,0.0,0.0,0.0,0.0,0.0,0.0,0.0,0.0,0.0,0.0,0.0,0.0,0.0,0.0,0.0,0.0,0.0,0.0,0.0,0.0,0.0,0.0,0.0,0.0,0.0,0.0,0.0,0.0,0.0,0.0,0.0,0.0,0.0,0.0,0.0,0.0,0.0,0.0,0.0,0.0,0.0,0.0,0.0,0.0,0.0,0.0,0.0,0.0,0.0,0.0,0.0,0.0,0.0,0.0,0.0,0.0,0.0,0.0,0.0,0.0,0.0,0.0,0.0,0.0,0.0,0.0,0.0,0.0,0.0,0.0,0.0,0.0,0.0,0.0,0.0,0.0,0.0,0.0,0.0,0.0,0.0,0.0,0.0,0.0,0.0,0.0,0.0,0.0,0.0,0.0,0.0,0.0,0.0,0.0,0.0,0.0,0.0,0.0,0.0,0.0,0.0,0.0,0.0,0.0,0.0,0.0,0.0,0.0,0.0,0.0,0.0,0.0,0.0,0.0,0.0,0.0,0.0,0.0,0.0,0.0,0.0,0.0,0.0,0.0,0.0,0.0,0.0,0.0,0.0,0.0,0.0,0.0,0.0,0.0,0.0,0.0,0.0,0.0,0.0,0.0,0.0,0.0,0.0,0.0,0.0,0.0,0.0,0.0,0.0,0.0,0.0,0.0,0.0,0.0,0.0,0.0,0.0,0.0,0.0,0.0,0.0,0.0,0.0,0.0,0.0,0.0,0.0,0.0,0.0,0.0,0.0,0.0,0.0,0.0,0.0,0.0,0.0,0.0,0.0,0.0,0.0,0.0,0.0,0.0,0.0,0.0,0.0,0.0,0.0,0.0,0.0,0.0,0.0,0.0,0.0,0.0,0.0,0.0,0.0,0.0,0.0,0.0,0.0,0.0,0.0,0.0,0.0,0.0,0.0,0.0,0.0,0.0,0.0,0.0,0.0,0.0,0.0,0.0,0.0,0.0,0.0,0.0,0.0,0.0,0.0,0.0,0.0,0.0,0.0,0.0,0.0,0.0,0.0,0.0,0.0,0.0,0.0,0.0,0.0,0.0,0.0,0.0,0.0,0.0,0.0,0.0,0.0,0.0,0.0,0.0,0.0,0.0,0.0,0.0,0.0,0.0,0.0,0.0,0.0,0.0,0.0,0.0,0.0,0.0,0.0,0.0,0.0,0.0,0.0,0.0,0.0,0.0,0.0,0.0,0.0,0.0,0.0,0.0,0.0,0.0,0.0,0.0,0.0,0.0,0.0,0.0,0.0,0.0,0.0,0.0,0.0,0.0,0.0,0.0,0.0,0.0,0.0,0.0,0.0,0.0,0.0,0.0,0.0,0.0,0.0,0.0,0.0,0.0,0.0,0.0,0.0,0.0,0.0,0.0,0.0,0.0,0.0,0.0,0.0,0.0,0.0,0.0,0.0,0.0,0.0,0.0,0.0,0.0,0.0,0.0,0.0,0.0,0.0,0.0,0.0,0.0,0.0,0.0,0.0,0.0,0.0,0.0,0.0,0.0,0.0,0.0,0.0,0.0,0.0,0.0,0.0,0.0,0.0,0.0,0.0,0.0,0.0,0.0,0.0,0.0,0.0,0.0,0.0,0.0,0.0,0.0,0.0,0.0,0.0,0.0,0.0,0.0,0.0,0.0,0.0,0.0,0.0,0.0,0.0,0.0,0.0,0.0,0.0,0.0,0.0,0.0,0.0,0.0,0.0,0.0,0.0,0.0,0.0,0.0,0.0,0.0,0.0,0.0,0.0,0.0,0.0,0.0,0.0,0.0,0.0,0.0,0.0,0.0,0.0,0.0,0.0,0.0,0.0,0.0,0.0,0.0,0.0,0.0,0.0,0.0,0.0,0.0,0.0,0.0,0.0,0.0,0.0,0.0,0.0,0.0,0.0,0.0,0.0,0.0,0.0,0.0,0.0,0.0,0.0,0.0,0.0,0.0,0.0,0.0,0.0,0.0,0.0,0.0,0.0,0.0,0.0,0.0,0.0,0.0,0.0,0.0,0.0,0.0,0.0,0.0,0.0,0.0,0.0,0.0,0.0,0.0,0.0,0.0,0.0,0.0,0.0,0.0,0.0,0.0,0.0,0.0,0.0,0.0,0.0,0.0,0.0,0.0,0.0,0.0,0.0,0.0,0.0,0.0,0.0,0.0,0.0,0.0,0.0,0.0,0.0,0.0,0.0,0.0,0.0,0.0,0.0,0.0,0.0,0.0,0.0,0.0,0.0,0.0,0.0,0.0,0.0,0.0,0.0,0.0,0.0,0.0,0.0,0.0,0.0,0.0,0.0,0.0,0.0,0.0,0.0,0.0,0.0,0.0,0.0,0.0,0.0,0.0,0.0,0.0,0.0,0.0,0.0,0.0,0.0,0.0,0.0,0.0,0.0,0.0,0.0,0.0,0.0,0.0,0.0,0.0,0.0,0.0,0.0,0.0,0.0,0.0,0.0,0.0,0.0,0.0,0.0,0.0,0.0,0.0,0.0,0.0,0.0,0.0,0.0,0.0,0.0,0.0,0.0,0.0,0.0,0.0,0.0,0.0,0.0,0.0,0.0,0.0,0.0,0.0,0.0,0.0,0.0,0.0,0.0,0.0,0.0,0.0,0.0,0.0,0.0,0.0,0.0,0.0,0.0,0.0,0.0,0.0,0.0,0.0,0.0,0.0,0.0,0.0,0.0,0.0,0.0,0.0,0.0,0.0,0.0,0.0,0.0,0.0,0.0,0.0,0.0,0.0,0.0,0.0,0.0,0.0,0.0,0.0,0.0,0.0,0.0,0.0,0.0,0.0,0.0,0.0,0.0,0.0,0.0,0.0,0.0,0.0,0.0,0.0,0.0,0.0,0.0,0.0,0.0,0.0,0.0,0.0,0.0,0.0,0.0,0.0,0.0,0.0,0.0,0.0,0.0,0.0,0.0,0.0,0.0,0.0,0.0,0.0,0.0,0.0,0.0,0.0,0.0,0.0,0.0,0.0,0.0,0.0,0.0,0.0,0.0,0.0,0.0,0.0,0.0,0.0,0.0,0.0,0.0,0.0,0.0,0.0,0.0,0.0,0.0,0.0,0.0,0.0,0.0,0.0,0.0,0.0,0.0,0.0,0.0,0.0,0.0,0.0,0.0,0.0,0.0,0.0,0.0,0.0,0.0,0.0,0.0,0.0,0.0,0.0,0.0,0.0,0.0,0.0,0.0,0.0,0.0,0.0,0.0,0.0,0.0,0.0,0.0,0.0,0.0,0.0,0.0,0.0,0.0,0.0,0.0,0.0,0.0,0.0,0.0,0.0,0.0,0.0,0.0,0.0,0.0,0.0,0.0,0.0,0.0,0.0,0.0,0.0,0.0,0.0,0.0,0.0,0.0,0.0,0.0,0.0,0.0,0.0,0.0,0.0,0.0,0.0,0.0,0.0,0.0,0.0,0.0,0.0,0.0,0.0,0.0,0.0,0.0,0.0,0.0,0.0,0.0,0.0,0.0,0.0,0.0,0.0,0.0,0.0,0.0,0.0,0.0,0.0,0.0,0.0,0.0,0.0,0.0,0.0,0.0,0.0,0.0,0.0,0.0,0.0,0.0,0.0,0.0,0.0,0.0,0.0,0.0,0.0,0.0,0.0,0.0,0.0,0.0,0.0,0.0,0.0,0.0,0.0,0.0,0.0,0.0,0.0,0.0,0.0,0.0,0.0,0.0,0.0,0.0,0.0,1.2906,0.0,0.0,0.0,1.1597,0.0,0.0,0.0,0.0,0.0,0.0,0.0,0.0,0.0,0.0,0.0,0.0,0.0,0.0,0.0,0.0,0.0,0.0,0.0,0.0,0.0,0.0,0.0,0.0,0.0,0.0,0.0,0.0,0.0,0.0,0.0,0.0,0.0,0.0,0.0,0.0,0.0,0.0,0.0,0.0,0.0,0.0,0.0,0.0,0.0,0.0,0.0,0.0,0.0,0.0,0.0,0.0,0.0,0.0,0.0,0.0,0.0,0.0,0.0,0.0,0.0,0.0,0.0,0.0,0.0,0.0,0.0,0.0,0.0,0.0,0.0,0.0,0.0,0.0,0.0,0.0,0.0,0.0,0.0,0.0,0.0,0.0,0.0,0.0,0.0,0.0,0.0,0.0,0.0,0.0,0.0,0.0,0.0,0.0,0.0,0.0,0.0,0.0,0.0,0.0,0.0,0.0,0.0,0.0,0.0,0.0,0.0,0.0,0.0,0.0,1.2919,1.2345,1.3323,1.31,1.1499,0.0,0.0,0.0,0.0,0.0,0.0,0.0,0.0,0.0,0.0,0.0,0.0,0.0,0.0,0.0,0.0,0.0,0.0,0.0,0.0,0.0,0.0,0.0,0.0,0.0,0.0,0.0,0.0,0.0,0.0,0.0,0.0,0.0,0.0,0.0,0.0,0.0,0.0,0.0,0.0,0.0,0.0,0.0,0.0,0.0,0.0,0.0,0.0,0.0,0.0,0.0,0.0,0.0,0.0,0.0,0.0,0.0,0.0,0.0,0.0,0.0,0.0,0.0,0.0,0.0,0.0,0.0,0.0,0.0,0.0,0.0,0.0,0.0,0.0,0.0,0.0,0.0,0.0,0.0,0.0,0.0,0.0,0.0,0.0,0.0,0.0,0.0,0.0,0.0,0.0,0.0,0.0,0.0,0.0,0.0,0.0,0.0,0.0,0.0,0.0,0.0,0.0,0.0,0.0,0.0,0.0,0.0,0.0,0.0,0.0,0.0,0.0,1.345,1.3186,1.1686,0.0,0.0,0.0,0.0,0.0,0.0,0.0,0.0,0.0,0.0,0.0,0.0,0.0,0.0,0.0,0.0,0.0,0.0,0.0,0.0,0.0,0.0,0.0,0.0,0.0,0.0,0.0,0.0,0.0,0.0,0.0,0.0,0.0,0.0,0.0,0.0,0.0,0.0,0.0,0.0,0.0,0.0,0.0,0.0,0.0,0.0,0.0,0.0,0.0,0.0,0.0,0.0,0.0,0.0,0.0,0.0,0.0,0.0,0.0,0.0,0.0,0.0,0.0,0.0,0.0,0.0,0.0,0.0,0.0,0.0,0.0,0.0,0.0,0.0,0.0,0.0,0.0,0.0,0.0,0.0,0.0,0.0,0.0,0.0,0.0,0.0,0.0,0.0,0.0,0.0,0.0,0.0,0.0,0.0,0.0,0.0,0.0,0.0,0.0,0.0,0.0,0.0,0.0,0.0,0.0,0.0,0.0,0.0,0.0,0.0,1.2736,1.3453,1.3343,0.0,1.2274,0.0,0.0,0.0,0.0,0.0,0.0,0.0,0.0,0.0,0.0,0.0,0.0,0.0,0.0,0.0,0.0,0.0,0.0,0.0,0.0,0.0,0.0,0.0,0.0,0.0,0.0,0.0,0.0,0.0,0.0,0.0,0.0,0.0,0.0,0.0,0.0,0.0,0.0,0.0,0.0,0.0,0.0,0.0,0.0,0.0,0.0,0.0,0.0,0.0,0.0,0.0,0.0,0.0,0.0,0.0,0.0,0.0,0.0,0.0,0.0,0.0,0.0,0.0,0.0,0.0,0.0,0.0,0.0,0.0,0.0,0.0,0.0,0.0,0.0,0.0,0.0,0.0,0.0,0.0,0.0,0.0,0.0,0.0,0.0,0.0,0.0,0.0,0.0,0.0,0.0,0.0,0.0,0.0,0.0,0.0,0.0,0.0,0.0,0.0,0.0,0.0,0.0,0.0,0.0,0.0,0.0,0.0,0.0,0.0,0.0,1.3096,1.3597,1.3186,1.2671,0.0,0.0,0.0,0.0,0.0,0.0,0.0,0.0,0.0,0.0,0.0,0.0,0.0,0.0,0.0,0.0,0.0,0.0,0.0,0.0,0.0,0.0,0.0,0.0,0.0,0.0,0.0,0.0,0.0,0.0,0.0,0.0,0.0,0.0,0.0,0.0,0.0,0.0,0.0,0.0,0.0,0.0,0.0,0.0,0.0,0.0,0.0,0.0,0.0,0.0,0.0,0.0,0.0,0.0,0.0,0.0,0.0,0.0,0.0,0.0,0.0,0.0,0.0,0.0,0.0,0.0,0.0,0.0,0.0,0.0,0.0,0.0,0.0,0.0,0.0,0.0,0.0,0.0,0.0,0.0,0.0,0.0,0.0,0.0,0.0,0.0,0.0,0.0,0.0,0.0,0.0,0.0,0.0,0.0,0.0,0.0,0.0,0.0,0.0,0.0,0.0,0.0,0.0,0.0,0.0,0.0,0.0,0.0,0.0,0.0,1.3337,1.3617,1.394,1.3447,1.2811,1.2029,0.0,0.0,0.0,0.0,0.0,0.0,0.0,0.0,0.0,0.0,0.0,0.0,0.0,0.0,0.0,0.0,0.0,0.0,0.0,0.0,0.0,0.0,0.0,0.0,0.0,0.0,0.0,0.0,0.0,0.0,0.0,0.0,0.0,0.0,0.0,0.0,0.0,0.0,0.0,0.0,0.0,0.0,0.0,0.0,0.0,0.0,0.0,0.0,0.0,0.0,0.0,0.0,0.0,0.0,0.0,0.0,0.0,0.0,0.0,0.0,0.0,0.0,0.0,0.0,0.0,0.0,0.0,0.0,0.0,0.0,0.0,0.0,0.0,0.0,0.0,0.0,0.0,0.0,0.0,0.0,0.0,0.0,0.0,0.0,0.0,0.0,0.0,0.0,0.0,0.0,0.0,0.0,0.0,0.0,0.0,0.0,0.0,0.0,0.0,0.0,0.0,0.0,0.0,0.0,0.0,0.0,0.0,0.0,1.5095,1.4464,1.4344,1.4914,1.4357,1.349,0.0,0.0,0.0,0.0,0.0,0.0,0.0,0.0,0.0,0.0,0.0,0.0,0.0,0.0,0.0,0.0,0.0,0.0,0.0,0.0,0.0,0.0,0.0,0.0,0.0,0.0,0.0,0.0,0.0,0.0,0.0,0.0,0.0,0.0,0.0,0.0,0.0,0.0,0.0,0.0,0.0,0.0,0.0,0.0,0.0,0.0,0.0,0.0,0.0,0.0,0.0,0.0,0.0,0.0,0.0,0.0,0.0,0.0,0.0,0.0,0.0,0.0,0.0,0.0,0.0,0.0,0.0,0.0,0.0,0.0,0.0,0.0,0.0,0.0,0.0,0.0,0.0,0.0,0.0,0.0,0.0,0.0,0.0,0.0,0.0,0.0,0.0,0.0,0.0,0.0,0.0,0.0,0.0,0.0,0.0,0.0,0.0,0.0,0.0,0.0,0.0,0.0,0.0,0.0,0.0,0.0,0.0,0.0,0.0,1.339,1.4226,1.4934,1.5458,1.46,1.3811,0.0,0.0,0.0,0.0,0.0,0.0,0.0,0.0,0.0,0.0,0.0,0.0,0.0,0.0,0.0,0.0,0.0,0.0,0.0,0.0,0.0,0.0,0.0,0.0,0.0,0.0,0.0,0.0,0.0,0.0,0.0,0.0,0.0,0.0,0.0,0.0,0.0,0.0,0.0,0.0,0.0,0.0,0.0,0.0,0.0,0.0,0.0,0.0,0.0,0.0,0.0,0.0,0.0,0.0,0.0,0.0,0.0,0.0,0.0,0.0,0.0,0.0,0.0,0.0,0.0,0.0,0.0,0.0,0.0,0.0,0.0,0.0,0.0,0.0,0.0,0.0,0.0,0.0,0.0,0.0,0.0,0.0,0.0,0.0,0.0,0.0,0.0,0.0,0.0,0.0,0.0,0.0,0.0,0.0,0.0,0.0,0.0,0.0,0.0,0.0,0.0,0.0,0.0,0.0,0.0,0.0,0.0,0.0,0.0,1.332,1.4972,1.5896,1.5913,1.483,1.3817,0.0,0.0,0.0,0.0,0.0,0.0,0.0,0.0,0.0,0.0,0.0,0.0,0.0,0.0,0.0,0.0,0.0,0.0,0.0,0.0,0.0,0.0,0.0,0.0,0.0,0.0,0.0,0.0,0.0,0.0,0.0,0.0,0.0,0.0,0.0,0.0,0.0,0.0,0.0,0.0,0.0,0.0,0.0,0.0,0.0,0.0,0.0,0.0,0.0,0.0,0.0,0.0,0.0,0.0,0.0,0.0,0.0,0.0,0.0,0.0,0.0,0.0,0.0,0.0,0.0,0.0,0.0,0.0,0.0,0.0,0.0,0.0,0.0,0.0,0.0,0.0,0.0,0.0,0.0,0.0,0.0,0.0,0.0,0.0,0.0,0.0,0.0,0.0,0.0,0.0,0.0,0.0,0.0,0.0,0.0,0.0,0.0,0.0,0.0,0.0,0.0,0.0,0.0,0.0,0.0,0.0,0.0,0.0,1.3082,1.5284,1.6779,1.7127,1.6336,1.515,1.3554,0.0,0.0,0.0,0.0,0.0,0.0,0.0,0.0,0.0,0.0,0.0,0.0,0.0,0.0,0.0,0.0,0.0,0.0,0.0,0.0,0.0,0.0,0.0,0.0,0.0,0.0,0.0,0.0,0.0,0.0,0.0,0.0,0.0,0.0,0.0,0.0,0.0,0.0,0.0,0.0,0.0,0.0,0.0,0.0,0.0,0.0,0.0,0.0,0.0,0.0,0.0,0.0,0.0,0.0,0.0,0.0,0.0,0.0,0.0,0.0,0.0,0.0,0.0,0.0,0.0,0.0,0.0,0.0,0.0,0.0,0.0,0.0,0.0,0.0,0.0,0.0,0.0,0.0,0.0,0.0,0.0,0.0,0.0,0.0,0.0,0.0,0.0,0.0,0.0,0.0,0.0,0.0,0.0,0.0,0.0,0.0,0.0,0.0,0.0,0.0,0.0,0.0,0.0,0.0,0.0,0.0,0.0,0.0,0.0,1.4794,1.6444,1.7381,1.7396,1.5541,1.4404,0.0,0.0,0.0,0.0,0.0,0.0,0.0,0.0,0.0,0.0,0.0,0.0,0.0,0.0,0.0,0.0,0.0,0.0,0.0,0.0,0.0,0.0,0.0,0.0,0.0,0.0,0.0,0.0,0.0,0.0,0.0,0.0,0.0,0.0,0.0,0.0,0.0,0.0,0.0,0.0,0.0,0.0,0.0,0.0,0.0,0.0,0.0,0.0,0.0,0.0,0.0,0.0,0.0,0.0,0.0,0.0,0.0,0.0,0.0,0.0,0.0,0.0,0.0,0.0,0.0,0.0,0.0,0.0,0.0,0.0,0.0,0.0,0.0,0.0,0.0,0.0,0.0,0.0,0.0,0.0,0.0,0.0,0.0,0.0,0.0,0.0,0.0,0.0,0.0,0.0,0.0,0.0,0.0,0.0,0.0,0.0,0.0,0.0,0.0,0.0,0.0,0.0,0.0,0.0,0.0,0.0,0.0,0.0,0.0,1.5863,1.7247,1.8077,1.8183,1.6271,1.5217,1.5122,0.0,0.0,0.0,0.0,0.0,0.0,0.0,0.0,0.0,0.0,0.0,0.0,0.0,0.0,0.0,0.0,0.0,0.0,0.0,0.0,0.0,0.0,0.0,0.0,0.0,0.0,0.0,0.0,0.0,0.0,0.0,0.0,0.0,0.0,0.0,0.0,0.0,0.0,0.0,0.0,0.0,0.0,0.0,0.0,0.0,0.0,0.0,0.0,0.0,0.0,0.0,0.0,0.0,0.0,0.0,0.0,0.0,0.0,0.0,0.0,0.0,0.0,0.0,0.0,0.0,0.0,0.0,0.0,0.0,0.0,0.0,0.0,0.0,0.0,0.0,0.0,0.0,0.0,0.0,0.0,0.0,0.0,0.0,0.0,0.0,0.0,0.0,0.0,0.0,0.0,0.0,0.0,0.0,0.0,0.0,0.0,0.0,0.0,0.0,0.0,0.0,0.0,0.0,0.0,0.0,0.0,0.0,0.0,1.7996,1.8905,1.912,1.8598,1.7227,1.5964,0.0,0.0,0.0,0.0,0.0,0.0,0.0,0.0,0.0,0.0,0.0,0.0,0.0,0.0,0.0,0.0,0.0,0.0,0.0,0.0,0.0,0.0,0.0,0.0,0.0,0.0,0.0,0.0,0.0,0.0,0.0,0.0,0.0,0.0,0.0,0.0,0.0,0.0,0.0,0.0,0.0,0.0,0.0,0.0,0.0,0.0,0.0,0.0,0.0,0.0,0.0,0.0,0.0,0.0,0.0,0.0,0.0,0.0,0.0,0.0,0.0,0.0,0.0,0.0,0.0,0.0,0.0,0.0,0.0,0.0,0.0,0.0,0.0,0.0,0.0,0.0,0.0,0.0,0.0,0.0,0.0,0.0,0.0,0.0,0.0,0.0,0.0,0.0,0.0,0.0,0.0,0.0,0.0,0.0,0.0,0.0,0.0,0.0,0.0,0.0,0.0,0.0,0.0,0.0,0.0,0.0,0.0,0.0,0.0,1.7956,1.8919,1.9428,1.9428,1.7833,1.6731,0.0,0.0,0.0,0.0,0.0,0.0,0.0,0.0,0.0,0.0,0.0,0.0,0.0,0.0,0.0,0.0,0.0,0.0,0.0,0.0,0.0,0.0,0.0,0.0,0.0,0.0,0.0,0.0,0.0,0.0,0.0,0.0,0.0,0.0,0.0,0.0,0.0,0.0,0.0,0.0,0.0,0.0,0.0,0.0,0.0,0.0,0.0,0.0,0.0,0.0,0.0,0.0,0.0,0.0,0.0,0.0,0.0,0.0,0.0,0.0,0.0,0.0,0.0,0.0,0.0,0.0,0.0,0.0,0.0,0.0,0.0,0.0,0.0,0.0,0.0,0.0,0.0,0.0,0.0,0.0,0.0,0.0,0.0,0.0,0.0,0.0,0.0,0.0,0.0,0.0,0.0,0.0,0.0,0.0,0.0,0.0,0.0,0.0,0.0,0.0,0.0,0.0,0.0,0.0,0.0,0.0,0.0,0.0,1.7154,1.8717,1.9187,1.9585,1.9995,1.8844,1.7962,0.0,0.0,0.0,0.0,0.0,0.0,0.0,0.0,0.0,0.0,0.0,0.0,0.0,0.0,0.0,0.0,0.0,0.0,0.0,0.0,0.0,0.0,0.0,0.0,0.0,0.0,0.0,0.0,0.0,0.0,0.0,0.0,0.0,0.0,0.0,0.0,0.0,0.0,0.0,0.0,0.0,0.0,0.0,0.0,0.0,0.0,0.0,0.0,0.0,0.0,0.0,0.0,0.0,0.0,0.0,0.0,0.0,0.0,0.0,0.0,0.0,0.0,0.0,0.0,0.0,0.0,0.0,0.0,0.0,0.0,0.0,0.0,0.0,0.0,0.0,0.0,0.0,0.0,0.0,0.0,0.0,0.0,0.0,0.0,0.0,0.0,0.0,0.0,0.0,0.0,0.0,0.0,0.0,0.0,0.0,0.0,0.0,0.0,0.0,0.0,0.0,0.0,0.0,0.0,0.0,0.0,0.0,0.0,1.8023,1.9801,1.962,1.9779,2.0343,2.0017,1.9381,0.0,0.0,0.0,0.0,0.0,0.0,0.0,0.0,0.0,0.0,0.0,0.0,0.0,0.0,0.0,0.0,0.0,0.0,0.0,0.0,0.0,0.0,0.0,0.0,0.0,0.0,0.0,0.0,0.0,0.0,0.0,0.0,0.0,0.0,0.0,0.0,0.0,0.0,0.0,0.0,0.0,0.0,0.0,0.0,0.0,0.0,0.0,0.0,0.0,0.0,0.0,0.0,0.0,0.0,0.0,0.0,0.0,0.0,0.0,0.0,0.0,0.0,0.0,0.0,0.0,0.0,0.0,0.0,0.0,0.0,0.0,0.0,0.0,0.0,0.0,0.0,0.0,0.0,0.0,0.0,0.0,0.0,0.0,0.0,0.0,0.0,0.0,0.0,0.0,0.0,0.0,0.0,0.0,0.0,0.0,0.0,0.0,0.0,0.0,0.0,0.0,0.0,0.0,0.0,0.0,0.0,0.0,0.0,1.7889,2.0054,2.011,2.04,2.0988,2.0731,1.989,0.0,0.0,0.0,0.0,0.0,0.0,0.0,0.0,0.0,0.0,0.0,0.0,0.0,0.0,0.0,0.0,0.0,0.0,0.0,0.0,0.0,0.0,0.0,0.0,0.0,0.0,0.0,0.0,0.0,0.0,0.0,0.0,0.0,0.0,0.0,0.0,0.0,0.0,0.0,0.0,0.0,0.0,0.0,0.0,0.0,0.0,0.0,0.0,2.1845,0.0,0.0,0.0,0.0,0.0,0.0,0.0,0.0,0.0,0.0,0.0,0.0,0.0,0.0,0.0,0.0,0.0,0.0,0.0,0.0,0.0,0.0,0.0,0.0,0.0,0.0,0.0,0.0,0.0,0.0,0.0,0.0,0.0,0.0,0.0,0.0,0.0,0.0,0.0,0.0,0.0,0.0,0.0,0.0,0.0,0.0,0.0,0.0,0.0,0.0,0.0,0.0,0.0,0.0,0.0,0.0,0.0,0.0,0.0,1.861,2.0361,2.049,2.0856,2.1569,2.1779,2.1106,0.0,0.0,0.0,0.0,0.0,0.0,0.0,0.0,0.0,0.0,0.0,0.0,0.0,0.0,0.0,0.0,0.0,0.0,0.0,0.0,0.0,0.0,0.0,0.0,0.0,0.0,0.0,0.0,0.0,0.0,0.0,0.0,0.0,0.0,0.0,0.0,0.0,0.0,0.0,0.0,0.0,0.0,0.0,0.0,0.0,0.0,0.0,0.0,0.0,0.0,0.0,0.0,0.0,0.0,0.0,0.0,0.0,0.0,0.0,0.0,0.0,0.0,0.0,0.0,0.0,0.0,0.0,0.0,0.0,0.0,0.0,0.0,0.0,0.0,0.0,0.0,0.0,0.0,0.0,0.0,0.0,0.0,0.0,0.0,0.0,0.0,0.0,0.0,0.0,0.0,0.0,0.0,0.0,0.0,0.0,0.0,0.0,0.0,0.0,0.0,0.0,0.0,0.0,0.0,0.0,0.0,0.0,1.7969,1.9402,2.0788,2.0886,2.1404,2.2364,2.3198,2.2783,2.0987,0.0,0.0,0.0,0.0,0.0,0.0,0.0,0.0,0.0,0.0,0.0,0.0,0.0,0.0,0.0,0.0,0.0,0.0,0.0,0.0,0.0,0.0,0.0,0.0,0.0,0.0,0.0,0.0,0.0,0.0,0.0,0.0,0.0,0.0,0.0,0.0,0.0,0.0,2.0029,2.164,0.0,0.0,0.0,0.0,0.0,0.0,0.0,0.0,2.2917,0.0,0.0,0.0,0.0,0.0,0.0,0.0,0.0,0.0,0.0,0.0,0.0,0.0,0.0,0.0,0.0,0.0,0.0,0.0,0.0,0.0,0.0,0.0,0.0,0.0,0.0,0.0,0.0,0.0,0.0,0.0,0.0,0.0,0.0,0.0,0.0,0.0,0.0,0.0,0.0,0.0,0.0,0.0,0.0,0.0,0.0,0.0,0.0,0.0,0.0,0.0,0.0,0.0,0.0,0.0,0.0,1.7676,1.7769,1.9011,2.1463,2.1745,2.2468,2.3743,2.5169,2.4821,2.2472,0.0,0.0,0.0,0.0,0.0,0.0,0.0,0.0,0.0,0.0,0.0,0.0,0.0,0.0,0.0,0.0,0.0,0.0,0.0,0.0,0.0,0.0,0.0,0.0,0.0,0.0,0.0,0.0,0.0,0.0,0.0,0.0,0.0,0.0,0.0,0.0,0.0,0.0,0.0,2.3875,2.4227,0.0,0.0,0.0,0.0,0.0,0.0,0.0,0.0,2.2936,0.0,0.0,0.0,0.0,0.0,0.0,0.0,0.0,0.0,0.0,0.0,0.0,0.0,0.0,0.0,0.0,0.0,0.0,0.0,0.0,0.0,0.0,0.0,0.0,0.0,0.0,0.0,0.0,0.0,0.0,0.0,0.0,0.0,0.0,0.0,0.0,0.0,0.0,0.0,0.0,0.0,0.0,0.0,0.0,0.0,0.0,0.0,0.0,0.0,0.0,0.0,0.0,0.0,0.0,0.0,1.7729,1.9203,2.0646,2.2109,2.2622,2.3429,2.4592,2.5537,2.5056,0.0,0.0,0.0,0.0,0.0,0.0,0.0,0.0,0.0,0.0,0.0,0.0,0.0,0.0,0.0,0.0,0.0,0.0,0.0,0.0,0.0,0.0,0.0,0.0,0.0,0.0,0.0,0.0,0.0,0.0,0.0,0.0,0.0,0.0,0.0,0.0,0.0,0.0,0.0,0.0,2.4609,2.5012,2.5688,0.0,0.0,0.0,0.0,0.0,0.0,2.37,2.3379,0.0,0.0,0.0,0.0,0.0,0.0,0.0,0.0,0.0,0.0,0.0,0.0,0.0,0.0,0.0,0.0,0.0,0.0,0.0,0.0,0.0,0.0,0.0,0.0,0.0,0.0,0.0,0.0,0.0,0.0,0.0,0.0,0.0,0.0,0.0,0.0,0.0,0.0,0.0,0.0,0.0,0.0,0.0,0.0,0.0,0.0,0.0,0.0,0.0,0.0,0.0,0.0,0.0,0.0,0.0,1.7967,2.0645,2.2418,2.3089,2.3788,2.464,2.5695,2.6041,2.5324,0.0,0.0,0.0,0.0,0.0,0.0,0.0,0.0,0.0,0.0,0.0,0.0,0.0,0.0,0.0,0.0,0.0,0.0,0.0,0.0,0.0,0.0,0.0,0.0,0.0,0.0,0.0,0.0,0.0,0.0,0.0,0.0,0.0,0.0,0.0,0.0,0.0,0.0,0.0,0.0,0.0,2.5657,2.6172,2.5747,0.0,0.0,0.0,0.0,2.5027,2.4797,0.0,0.0,0.0,0.0,0.0,0.0,0.0,0.0,0.0,0.0,0.0,0.0,0.0,0.0,0.0,0.0,0.0,0.0,0.0,0.0,0.0,0.0,0.0,0.0,0.0,0.0,0.0,0.0,0.0,0.0,0.0,0.0,0.0,0.0,0.0,0.0,0.0,0.0,0.0,0.0,0.0,0.0,0.0,0.0,0.0,0.0,0.0,0.0,0.0,0.0,0.0,0.0,0.0,0.0,0.0,0.0,1.8919,2.0901,2.2899,2.481,2.5547,2.6517,2.7798,2.8105,2.6935,0.0,0.0,0.0,0.0,0.0,0.0,0.0,0.0,0.0,0.0,0.0,0.0,0.0,0.0,0.0,0.0,0.0,0.0,0.0,0.0,0.0,0.0,0.0,0.0,0.0,0.0,0.0,0.0,0.0,0.0,0.0,0.0,0.0,0.0,0.0,0.0,0.0,0.0,0.0,0.0,0.0,2.6543,2.5893,2.6042,2.6204,0.0,0.0,2.6438,2.7194,2.7285,0.0,0.0,0.0,0.0,0.0,0.0,0.0,0.0,0.0,0.0,0.0,0.0,0.0,0.0,0.0,0.0,0.0,0.0,0.0,0.0,0.0,0.0,0.0,0.0,0.0,0.0,0.0,0.0,0.0,0.0,0.0,0.0,0.0,0.0,0.0,0.0,0.0,0.0,0.0,0.0,0.0,0.0,0.0,0.0,0.0,0.0,0.0,0.0,0.0,0.0,0.0,0.0,0.0,0.0,0.0,1.8595,2.0673,2.3101,2.5062,2.6568,2.7127,2.7837,2.872,2.8873,2.7462,0.0,0.0,0.0,0.0,0.0,0.0,0.0,0.0,0.0,0.0,0.0,0.0,0.0,0.0,0.0,0.0,0.0,0.0,0.0,0.0,0.0,0.0,0.0,0.0,0.0,0.0,0.0,0.0,0.0,0.0,0.0,0.0,0.0,0.0,0.0,0.0,0.0,0.0,0.0,0.0,0.0,0.0,2.7851,2.7656,0.0,0.0,0.0,2.7806,2.7702,0.0,0.0,0.0,0.0,0.0,0.0,0.0,0.0,0.0,0.0,0.0,0.0,0.0,0.0,0.0,0.0,0.0,0.0,0.0,0.0,0.0,0.0,0.0,0.0,0.0,0.0,0.0,0.0,0.0,0.0,0.0,0.0,0.0,0.0,0.0,0.0,0.0,0.0,0.0,0.0,0.0,0.0,0.0,0.0,0.0,0.0,0.0,0.0,0.0,0.0,0.0,0.0,0.0,0.0,0.0,0.0,0.0,2.2339,2.5318,2.7244,2.806,2.8581,2.9,2.946,2.9576,0.0,0.0,0.0,0.0,0.0,0.0,0.0,0.0,0.0,0.0,0.0,0.0,0.0,0.0,0.0,0.0,0.0,0.0,0.0,0.0,0.0,0.0,0.0,0.0,0.0,0.0,0.0,1.641,0.0,0.0,0.0,0.0,0.0,0.0,0.0,0.0,0.0,0.0,0.0,0.0,0.0,0.0,2.8073,2.9143,2.89,2.8705,0.0,0.0,2.8959,2.8549,2.873,2.8652,0.0,0.0,0.0,0.0,0.0,0.0,0.0,0.0,0.0,0.0,0.0,0.0,0.0,0.0,0.0,0.0,0.0,0.0,0.0,0.0,0.0,0.0,0.0,0.0,0.0,0.0,0.0,0.0,0.0,0.0,0.0,0.0,0.0,0.0,0.0,0.0,0.0,0.0,0.0,0.0,0.0,0.0,0.0,0.0,0.0,0.0,0.0,0.0,0.0,0.0,0.0,0.0,0.0,0.0,0.0,2.3558,2.6885,2.8823,2.9198,2.9835,3.0191,3.0239,3.054,2.8652,0.0,0.0,0.0,0.0,0.0,0.0,0.0,0.0,0.0,0.0,0.0,0.0,0.0,0.0,0.0,0.0,0.0,0.0,0.0,0.0,0.0,0.0,0.0,0.0,0.0,0.0,0.0,0.0,0.0,0.0,0.0,0.0,0.0,0.0,0.0,0.0,0.0,0.0,0.0,0.0,0.0,2.7878,2.832,2.9037,2.9813,0.0,3.0053,2.9813,3.0547,3.0698,3.0424,2.9559,0.0,0.0,0.0,0.0,0.0,0.0,0.0,0.0,0.0,0.0,0.0,0.0,0.0,0.0,0.0,0.0,0.0,0.0,0.0,0.0,0.0,0.0,0.0,0.0,0.0,0.0,0.0,0.0,0.0,0.0,0.0,0.0,0.0,0.0,0.0,0.0,0.0,0.0,0.0,0.0,0.0,0.0,0.0,0.0,0.0,0.0,0.0,0.0,0.0,0.0,0.0,0.0,0.0,2.3298,2.5452,2.8551,3.0548,3.1301,3.1584,3.1717,3.1717,3.1809,3.0362,0.0,0.0,0.0,0.0,0.0,0.0,0.0,0.0,0.0,0.0,0.0,0.0,0.0,0.0,0.0,0.0,0.0,0.0,0.0,0.0,0.0,0.0,0.0,0.0,0.0,0.0,0.0,0.0,2.1768,2.2255,2.2157,0.0,0.0,0.0,0.0,0.0,0.0,0.0,0.0,0.0,0.0,2.9487,3.0176,3.0566,0.0,0.0,3.1742,3.1873,3.2197,3.2052,3.1768,3.1444,3.1151,0.0,0.0,0.0,0.0,0.0,0.0,0.0,0.0,0.0,0.0,0.0,0.0,0.0,0.0,0.0,0.0,0.0,0.0,0.0,0.0,0.0,0.0,0.0,0.0,0.0,0.0,0.0,0.0,0.0,0.0,0.0,0.0,0.0,0.0,0.0,0.0,0.0,0.0,0.0,0.0,0.0,0.0,0.0,0.0,0.0,0.0,0.0,0.0,0.0,0.0,0.0,0.0,2.4271,2.677,2.9864,3.1848,3.2588,3.2606,3.2655,3.2772,3.2745,3.1544,0.0,0.0,0.0,0.0,0.0,0.0,0.0,0.0,0.0,0.0,0.0,0.0,0.0,0.0,0.0,0.0,0.0,0.0,0.0,0.0,0.0,0.0,0.0,0.0,0.0,0.0,0.0,0.0,2.298,2.3301,2.3463,0.0,0.0,0.0,0.0,0.0,0.0,0.0,0.0,0.0,0.0,3.0859,3.1587,3.1801,3.2012,3.2355,3.274,3.3014,3.3009,3.2815,3.2642,3.2536,0.0,0.0,0.0,0.0,0.0,0.0,0.0,0.0,0.0,0.0,0.0,0.0,0.0,0.0,0.0,0.0,0.0,0.0,0.0,0.0,0.0,0.0,0.0,0.0,0.0,0.0,0.0,0.0,0.0,0.0,1.1895,0.0,0.0,0.0,0.0,0.0,0.0,0.0,0.0,0.0,0.0,0.0,0.0,0.0,0.0,0.0,0.0,0.0,0.0,0.0,0.0,0.0,0.0,2.5918,2.721,3.0736,3.2606,3.2625,3.2606,3.2825,3.3192,3.3207,3.2003,2.9478,0.0,0.0,0.0,0.0,0.0,0.0,0.0,0.0,0.0,0.0,0.0,0.0,0.0,0.0,0.0,0.0,0.0,0.0,0.0,0.0,0.0,0.0,0.0,0.0,0.0,0.0,2.1376,2.1708,2.2686,0.0,0.0,0.0,0.0,0.0,0.0,0.0,0.0,0.0,0.0,3.0918,3.1645,3.2155,3.255,3.2804,3.2874,3.289,3.289,3.2936,3.3032,3.2969,0.0,0.0,0.0,0.0,0.0,0.0,0.0,0.0,0.0,0.0,0.0,0.0,0.0,0.0,0.0,0.0,0.0,0.0,0.0,0.0,0.0,0.0,0.0,0.0,0.0,0.0,0.0,1.5152,1.3829,0.0,0.0,0.0,0.0,0.0,0.0,0.0,0.0,0.0,0.0,0.0,2.6296,2.6792,0.0,0.0,0.0,0.0,0.0,0.0,0.0,0.0,0.0,0.0,0.0,0.0,2.6136,2.7697,3.1431,3.353,3.3807,3.401,3.418,3.4316,3.4271,3.2979,3.0276,0.0,0.0,0.0,0.0,0.0,0.0,0.0,0.0,0.0,0.0,0.0,0.0,0.0,0.0,0.0,0.0,0.0,0.0,0.0,0.0,0.0,0.0,0.0,0.0,0.0,2.3769,0.0,0.0,0.0,0.0,0.0,0.0,0.0,0.0,0.0,0.0,0.0,3.0137,3.0962,3.1597,3.2389,3.3561,3.3846,3.4298,0.0,0.0,0.0,0.0,0.0,0.0,0.0,0.0,0.0,0.0,0.0,0.0,0.0,0.0,4.0452,3.8299,3.805,3.7991,3.7476,0.0,0.0,0.0,0.0,0.0,0.0,0.0,0.0,0.0,0.0,0.0,0.0,0.0,0.0,1.8469,0.0,1.7021,0.0,0.0,0.0,0.0,0.0,0.0,0.0,0.0,2.649,2.8292,2.966,2.9791,2.9917,0.0,2.9789,2.8172,0.0,0.0,0.0,0.0,0.0,0.0,0.0,0.0,2.741,2.9087,3.2408,3.4298,3.4558,3.4784,3.4973,3.511,3.5049,3.416,3.2331,3.0957,2.9548,0.0,0.0,0.0,0.0,0.0,0.0,0.0,0.0,0.0,0.0,0.0,0.0,0.0,0.0,0.0,0.0,0.0,0.0,0.0,0.0,0.0,0.0,0.0,2.5969,0.0,0.0,0.0,0.0,0.0,0.0,0.0,0.0,0.0,2.8875,3.062,3.1998,3.2144,3.3122,3.4102,3.4841,0.0,0.0,0.0,0.0,0.0,0.0,0.0,3.7462,3.8332,3.8744,3.9235,3.9989,4.2167,4.3674,4.313,0.0,0.0,4.1942,4.1614,4.1546,4.1031,4.159,4.2142,4.193,4.2248,4.2522,0.0,0.0,0.0,0.0,0.0,0.0,0.0,0.0,2.2417,2.2228,0.0,2.0642,0.0,0.0,0.0,0.0,2.1415,2.3664,0.0,0.0,3.0097,3.1396,3.2461,3.2148,3.2203,3.2588,3.2586,3.2345,3.1763,2.929,0.0,0.0,0.0,0.0,0.0,0.0,2.9752,3.1302,3.3673,3.4902,3.4921,3.4939,3.5144,3.5504,3.544,3.5391,3.5312,3.2973,3.1211,3.0215,2.5823,0.0,0.0,0.0,0.0,0.0,0.0,0.0,0.0,0.0,0.0,0.0,0.0,0.0,0.0,0.0,0.0,0.0,0.0,0.0,0.0,2.6868,0.0,0.0,0.0,0.0,0.0,0.0,0.0,0.0,0.0,0.0,3.1221,3.2684,3.3795,3.3477,0.0,0.0,0.0,0.0,3.7544,3.7663,3.7663,3.7793,3.8167,3.8428,3.8894,3.9876,0.0,0.0,4.3087,4.4907,4.5775,4.4443,4.5305,4.5959,4.4786,4.4159,4.3705,4.3216,4.3888,4.4411,4.4101,4.4992,4.606,2.3251,0.0,0.0,0.0,0.0,2.3427,2.4085,2.438,2.5371,2.4946,2.3527,2.3462,0.0,0.0,0.0,0.0,0.0,0.0,2.7533,2.9409,2.9779,3.088,3.2586,3.2483,3.2633,3.3045,3.3569,3.3773,3.3658,3.3152,3.0849,2.6935,0.0,0.0,0.0,0.0,3.0993,3.1825,3.4094,3.5316,3.5316,3.5555,3.5743,3.5845,3.5831,3.5823,3.584,3.4844,3.3301,3.1211,2.9238,0.0,0.0,0.0,0.0,0.0,0.0,0.0,0.0,0.0,0.0,0.0,0.0,0.0,0.0,0.0,0.0,0.0,0.0,0.0,2.7519,2.9118,2.9808,0.0,0.0,0.0,0.0,0.0,0.0,0.0,0.0,0.0,3.3995,3.4223,3.4441,0.0,0.0,3.6343,3.6942,3.7742,3.883,4.0344,4.0588,0.0,4.1654,4.1565,4.1669,4.2537,4.3639,4.4619,4.5267,4.5899,4.6145,4.5714,4.602,4.62,4.5884,4.5683,4.5538,4.5405,4.5629,4.5764,4.568,4.628,4.6873,2.874,2.695,2.5651,2.5256,2.5617,2.6809,2.7598,2.8085,2.908,2.8766,2.7488,2.7416,2.6719,2.5585,2.5205,0.0,0.0,0.0,2.9863,3.1268,3.1268,3.2055,3.3449,3.3382,3.3515,3.3859,3.432,3.4622,3.4837,3.4887,3.3368,3.044,0.0,0.0,2.9209,3.1192,3.259,3.3355,3.4883,3.5692,3.5692,3.5896,3.6018,3.6018,3.6018,3.6018,3.5999,3.5764,3.4922,3.3344,3.1816,3.0455,0.0,0.0,0.0,0.0,0.0,0.0,0.0,0.0,0.0,0.0,0.0,2.4487,2.4478,0.0,0.0,0.0,2.799,2.8791,3.076,3.1797,0.0,0.0,0.0,0.0,0.0,0.0,0.0,3.4779,3.5745,3.6376,3.6426,3.6221,3.5996,3.5832,3.6824,3.7768,3.8297,0.0,3.9978,4.1393,4.1822,4.2245,4.3004,4.3255,4.3764,4.4899,4.5579,4.6215,4.6797,4.6938,4.6913,4.6938,4.6938,4.6928,4.6938,4.6954,4.6863,4.6662,4.6612,4.6687,4.6888,4.7205,4.7425,3.3768,3.3496,2.9991,2.8871,2.9458,3.044,3.1502,3.2519,3.2946,3.294,3.2539,3.1825,3.0922,2.9938,2.9155,0.0,3.1028,3.1778,3.2744,3.3828,3.3809,3.4183,3.4868,3.454,3.4557,3.4921,3.4956,3.5162,3.5453,3.5162,3.4795,3.4431,3.3699,3.3293,3.3201,3.3648,3.4431,3.5519,3.5828,3.6018,3.6018,3.6018,3.6018,3.6018,3.6018,3.6018,3.6018,3.5999,3.5979,3.5898,3.3746,3.2631,3.2782,0.0,0.0,0.0,0.0,0.0,0.0,0.0,0.0,0.0,0.0,0.0,0.0,0.0,0.0,0.0,3.3603,0.0,3.4839,3.4592,0.0,0.0,0.0,3.4566,3.5128,3.5524,3.6164,3.7147,0.0,0.0,3.849,3.8512,3.832,3.7956,3.9286,4.0209,3.992,4.0573,4.1195,4.1859,4.2287,4.2796,4.3522,4.4318,4.5387,4.6676,4.7128,4.7303,4.7716,4.7857,4.7867,4.7832,4.7908,4.7883,4.7908,4.7832,4.7767,4.74,4.7224,4.7299,4.7716,4.7958,4.8109,3.4477,3.4386,3.3492,3.2913,3.262,3.3124,3.3361,3.3401,3.3513,3.3503,3.3419,3.3194,3.3143,3.3188,3.2968,3.3101,3.3528,3.3975,3.4222,3.4237,3.394,3.4202,3.4885,3.4512,3.4531,3.492,3.547,3.5641,3.5504,3.5658,3.5697,3.5588,3.5403,3.4884,3.4088,3.4968,3.5604,3.5879,3.5964,3.6018,3.6018,3.6018,3.6018,3.6018,3.6018,3.6018,3.6018,3.6018,3.5862,3.5547,3.5254,3.5215,3.5449,3.1917,0.0,0.0,0.0,0.0,0.0,0.0,0.0,0.0,0.0,3.1132,3.0041,0.0,3.2147,0.0,3.663,3.682,3.5075,3.557,0.0,0.0,3.5678,3.5506,3.7403,3.7472,3.7477,3.7844,3.8907,3.9465,3.9072,4.0498,4.1492,4.1397,4.0831,4.0688,4.1406,4.2495,4.3669,4.4823,4.5215,4.5739,4.6408,4.6891,4.7212,4.7617,4.7698,4.7767,4.7908,4.7908,4.7908,4.7908,4.7908,4.7908,4.7983,4.7908,4.8259,4.8761,4.8319,4.7741,4.7867,4.8586,4.9188,3.5293,3.5276,3.5293,3.4843,3.4165,3.4346,3.4329,3.4167,3.4359,3.4372,3.4206,3.4229,3.4455,3.4833,3.4833,3.4848,3.4921,3.523,3.5213,3.4887,3.466,3.485,3.5365,3.5016,3.5016,3.5401,3.5794,3.603,3.6051,3.6223,3.6389,3.6565,3.6582,3.6262,3.5697,3.6103,3.6326,3.6326,3.6309,3.6211,3.6018,3.6018,3.592,3.5762,3.5901,3.592,3.5742,3.5901,3.584,3.543,3.543,3.5877,3.6786,3.46,3.394,0.0,0.0,0.0,0.0,0.0,0.0,0.0,0.0,0.0,0.0,0.0,3.4502,3.5808,3.824,3.8907,3.6884,3.7697,3.8532,3.8981,3.7996,3.7946,3.9578,3.9538,3.9605,4.0061,4.1081,4.1755,4.1761,4.2831,4.3697,4.3889,4.3399,4.3165,4.3539,4.4235,4.5016,4.603,4.6476,4.705,4.8124,4.8083,4.8083,4.8535,4.846,4.8435,4.8937,4.9022,4.9072,4.9339,4.9414,4.9414,4.9414,4.943,4.964,5.0033,4.9882,4.9464,4.9414,4.9916,5.036,3.6018,3.6018,3.6018,3.5566,3.4863,3.4863,3.4746,3.4551,3.4944,3.5012,3.4794,3.4969,3.523,3.5575,3.5575,3.5538,3.5504,3.5828,3.5831,3.5504,3.5487,3.5658,3.5964,3.5716,3.5754,3.6077,3.6118,3.6367,3.6792,3.6792,3.697,3.7285,3.7305,3.7305,3.7285,3.701,3.6814,3.6792,3.6716,3.6502,3.6096,3.6094,3.5937,3.5586,3.5918,3.5937,3.5603,3.5859,3.5893,3.5622,3.5211,3.586,3.77,3.7345,3.7018,0.0,3.7828,0.0,0.0,0.0,0.0,0.0,0.0,0.0,0.0,3.7872,3.7468,3.6528,3.9265,4.0599,3.9434,4.0233,4.1004,4.145,4.1017,4.0942,4.1601,4.1704,4.1985,4.2828,4.3417,4.408,4.4664,4.5048,4.537,4.5779,4.6331,4.6596,4.6342,4.6205,4.6278,4.6512,4.7106,4.8213,4.8951,4.8752,4.8771,4.9565,4.9506,4.9455,5.0302,5.0469,5.0645,5.1071,5.1138,5.1188,5.1289,5.1239,5.1289,5.1423,5.1423,5.1364,5.1188,5.1239,5.1373,3.6018,3.6018,3.6018,3.5901,3.5745,3.5745,3.4944,3.3656,3.3734,3.4131,3.4767,3.5479,3.5828,3.5896,3.5896,3.576,3.554,3.5845,3.5811,3.5487,3.5487,3.5694,3.6004,3.5989,3.6197,3.6562,3.6912,3.709,3.7205,3.7187,3.7244,3.7305,3.7305,3.7305,3.7305,0.0,0.0,0.0,3.6873,3.6656,3.656,3.656,3.6521,3.6462,3.6521,0.0,3.646,3.6172,3.6248,3.6723,3.6693,0.0,0.0,0.0,0.0,0.0,0.0,0.0,0.0,0.0,0.0,0.0,4.0071,3.9666,3.9154,4.0469,4.0778,3.9515,4.0983,4.1938,4.1679,4.1833,4.2187,4.2683,4.2639,4.2889,4.3685,4.3796,4.4012,4.4423,4.4585,4.4745,4.5088,4.5996,4.7045,4.7604,4.8756,4.971,5.005,4.9174,4.8887,4.9461,4.9882,5.0471,5.0779,5.0661,5.0494,5.0937,5.0929,5.0862,5.1063,5.1138,5.1138,5.1339,5.1289,5.1339,5.1339,5.1289,5.1674,5.2452,5.2586,5.2335,5.1515,5.1666,5.195,3.6018,3.6018,3.6018,3.5764,0.0,3.5354,3.4612,3.3461,3.4303,3.4925,3.5354,3.5803,3.6018,3.5979,3.5566,3.5254,3.5103,3.509,3.5193,3.5469,3.5646,3.6079,3.666,3.6683,3.6798,3.701,3.7187,3.7402,3.7598,3.7598,3.7715,3.7948,3.7948,3.7948,3.7948,3.8144,3.8027,3.7599,3.7402,3.7187,3.701,3.699,3.6892,3.6716,3.6892,0.0,0.0,0.0,0.0,0.0,0.0,0.0,0.0,0.0,0.0,4.0248,4.0507,4.0517,4.0313,4.0804,4.1558,4.2635,4.2975,4.2605,4.1419,4.2234,4.259,4.2141,4.3067,4.3653,4.3584,4.3582,4.3691,4.3947,4.3841,4.4047,4.4751,4.5081,4.5529,4.638,4.6745,4.7215,4.797,4.869,4.9356,4.9653,5.0315,5.0987,5.118,5.0755,5.0498,5.0796,5.1063,5.1289,5.1289,5.1289,5.1314,5.1289,5.1289,5.1414,5.1624,5.1699,5.1774,5.2026,5.2302,5.2477,5.252,5.2695,5.3097,5.3582,5.3733,5.3607,5.3039,5.3148,5.313,3.6018,3.6018,3.6018,3.5605,3.4941,3.5019,3.4671,3.4147,0.0,0.0,0.0,3.6035,3.6133,3.6057,3.5449,3.5156,3.5137,3.4821,3.5072,3.5742,3.6057,3.6621,3.7285,3.7363,3.7402,3.7422,3.7498,3.7695,3.8029,3.8087,3.8302,3.869,3.8788,3.8827,3.8827,3.8827,3.8651,3.8263,3.8029,3.7736,3.7422,3.7402,3.7246,3.6929,3.7226,3.7316,3.714,3.7359,3.7562,3.7695,3.736,3.7868,3.939,3.9674,4.0459,4.202,4.3149,4.3766,4.3758,4.4268,4.4604,4.4565,4.4973,4.4816,4.3797,4.3742,4.3947,4.4371,4.4912,4.5199,4.509,4.5065,4.5192,4.5422,4.521,4.5395,4.6237,4.6625,4.7402,4.8477,4.9117,4.9907,5.093,5.1122,5.1322,5.1423,5.149,5.1691,5.1791,5.1657,5.144,5.1599,5.1699,5.1666,5.1741,5.1816,5.1766,5.2059,5.1992,5.2042,5.2402,5.2553,5.2703,5.313,5.3565,5.3758,5.3858,5.4127,5.4622,5.4705,5.473,5.473,5.473,5.4823,5.4504,3.6018,3.6018,3.6018,3.594,3.5842,3.6247,3.656,3.6641,3.543,3.4883,3.4961,3.6111,3.6599,3.6619,3.6834,3.6934,3.6934,3.6892,3.6914,3.7031,3.709,3.7187,3.7305,3.7638,3.7814,3.7853,3.8203,3.8436,3.8534,3.8848,3.9062,3.916,3.9512,3.9707,3.9726,3.9726,3.9706,3.959,3.8478,3.7873,3.7814,3.7814,3.7795,3.7736,3.7793,3.8133,3.873,3.8447,3.8812,4.0027,4.0049,4.0952,4.2914,4.3029,4.375,4.5109,4.5438,4.5534,4.5518,4.5638,4.5686,4.5702,4.5774,4.5686,4.555,4.5534,4.5558,4.567,4.5734,4.579,4.575,4.5821,4.6375,4.744,4.7601,4.8205,4.956,4.9834,5.0074,5.0647,5.0905,5.1022,5.1373,5.144,5.1666,5.1975,5.2402,5.2962,5.3499,5.2896,5.2302,5.2561,5.2686,5.2862,5.313,5.3356,5.3449,5.4052,5.3976,5.3893,5.4002,5.4044,5.4094,5.4278,5.4396,5.4471,5.4496,5.4522,5.483,5.5182,5.5308,5.5282,5.5308,5.5609,5.5566,3.6701,3.6719,3.6719,3.6719,3.6701,3.6934,3.7127,3.7226,3.6465,3.6113,3.6172,3.6775,3.7029,3.6992,3.6719,3.6601,3.6601,3.6367,3.6523,3.697,3.7205,3.7576,3.8008,3.8418,3.8613,3.8634,3.9082,3.9315,3.9315,3.9492,3.957,3.959,3.9805,3.9883,3.9883,3.9883,3.9883,3.9883,3.9043,3.8595,3.8595,3.8398,3.8299,3.8299,3.8659,3.9036,3.9412,3.964,4.0155,4.0941,4.137,4.2092,4.3193,4.3973,4.4675,4.5307,4.5685,4.5902,4.5902,4.5902,4.6038,4.6303,4.6327,4.6591,4.7144,4.6399,4.6038,4.6327,4.677,4.7214,4.7521,4.7969,4.8499,4.9146,4.9403,4.9833,5.0554,5.0913,5.1206,5.1657,5.2,5.2277,5.257,5.2871,5.3165,5.3441,5.3457,5.3683,5.4471,5.3474,5.2862,5.3607,5.3808,5.3909,5.4152,5.4177,5.4321,5.4572,5.4597,5.4597,5.4597,5.4622,5.4622,5.4622,5.4823,5.5006,5.5031,5.5282,5.5559,5.5717,5.5842,5.5842,5.5892,5.605,5.5993,3.7305,3.7305,3.7305,3.7344,3.7424,3.7441,3.75,3.7596,3.7615,3.7598,3.7578,3.748,3.7441,3.7383,3.6836,3.666,3.6662,3.6389,3.6697,3.74,3.7752,3.8242,3.8866,3.9219,3.9355,3.9394,3.9726,3.9883,3.9902,3.998,4.0078,4.0176,4.0195,4.0176,4.0176,4.0384,4.046,4.044,4.0175,3.9898,3.9614,3.9318,3.9194,3.9313,3.9839,4.014,4.0256,4.0808,4.1386,4.1938,4.2517,4.3042,4.3599,4.4632,4.5321,4.55,4.5979,4.6327,4.6447,4.6567,4.6783,4.7209,4.7216,4.7577,4.826,4.746,4.6881,4.7282,4.7957,4.8585,4.9,4.9669,5.0282,5.049,5.0858,5.1193,5.1394,5.1773,5.2193,5.267,5.3038,5.3457,5.3858,5.4303,5.4554,5.4579,5.4353,5.4353,5.4705,5.416,5.4135,5.4554,5.4672,5.4522,5.4672,5.4773,5.4848,5.4924,5.4981,5.5056,5.5056,5.4981,5.4956,5.5056,5.5308,5.5541,5.5616,5.5867,5.6118,5.6143,5.6143,5.6205,5.6314,5.623,5.6118,3.7305,3.7305,3.7344,3.7519,3.7853,3.7853,3.8105,3.8456,3.8493,3.8475,3.8456,3.8029,3.7855,3.7892,3.8184,3.8514,3.8809,3.8848,3.9043,3.9473,3.9629,3.9707,3.9745,3.9805,3.9862,3.9881,3.9959,4.0074,4.0131,4.0388,4.0702,4.1035,4.1074,4.1112,4.1171,4.1827,4.2172,4.2192,4.2429,4.2019,4.1003,4.0887,4.1017,4.1304,4.1395,4.153,4.1834,4.1877,4.2542,4.3782,4.4028,4.4675,4.5862,4.6197,4.6549,4.7187,4.7303,4.7545,4.8026,4.8531,4.8741,4.8861,4.8813,4.8854,4.9022,4.9191,4.917,4.9048,4.925,4.9536,4.9633,5.0087,5.0731,5.1473,5.1964,5.2558,5.3235,5.3959,5.4321,5.4346,5.4303,5.4454,5.4504,5.4647,5.4856,5.5265,5.5139,5.5214,5.5717,5.5591,5.5498,5.5616,5.4863,5.4436,5.5039,5.5333,5.5483,5.5867,5.6018,5.5942,5.5867,5.5917,5.6043,5.5742,5.5968,5.6043,5.6068,5.6175,5.6194,5.6237,5.6255,5.6328,5.6583,5.651,5.6177,3.8065,3.8047,3.8065,3.8301,3.8634,3.8654,3.8926,3.9374,3.9374,3.9374,3.9354,3.916,3.8945,3.8711,3.9179,3.9472,3.9609,3.9628,3.9707,3.9883,3.9883,3.9883,3.9922,4.0137,4.0482,4.0975,4.1232,4.1619,4.2039,4.2256,4.2439,4.2677,4.3098,4.3098,4.2736,4.3402,4.3592,4.3136,4.3256,4.3297,4.3181,4.2311,4.2127,4.2689,4.3139,4.3666,4.4219,4.4639,4.5167,4.5784,4.6219,4.6698,4.7322,4.7749,4.813,4.8418,4.8435,4.8548,4.8748,4.8998,4.9102,4.9102,4.9102,4.9308,4.9828,5.0007,5.0256,5.0662,5.0776,5.0784,5.0892,5.167,5.2435,5.2855,5.3365,5.3843,5.4185,5.4446,5.4597,5.4622,5.4881,5.5082,5.5132,5.5358,5.5616,5.5792,5.5641,5.5641,5.6075,5.5666,5.5584,5.5942,5.5315,5.5114,5.5691,5.5892,5.5993,5.6143,5.6219,5.6219,5.6219,5.6219,5.6194,5.6219,5.6219,5.6219,5.6194,5.6219,5.6219,5.6255,5.6456,5.662,5.6783,5.6856,5.6765,3.8982,3.8944,3.8964,3.9139,3.9394,3.9394,3.959,3.9863,3.9883,3.9883,3.9902,4.0019,3.9883,3.9629,3.9805,3.9961,4.0059,4.0059,4.0137,4.0291,4.0462,4.0595,4.0634,4.11,4.172,4.2376,4.2755,4.3381,4.4251,4.4411,4.4508,4.4687,4.4907,4.4885,4.4747,4.5152,4.5164,4.4862,4.485,4.5199,4.5558,4.4586,4.4083,4.4355,4.5024,4.564,4.6093,4.6623,4.6992,4.7202,4.7731,4.8096,4.8321,4.8827,4.9102,4.9126,4.9263,4.9318,4.9335,4.9462,4.9569,4.9673,4.969,4.999,5.0649,5.1017,5.146,5.2041,5.2317,5.24,5.219,5.3023,5.3715,5.3951,5.4479,5.4798,5.4805,5.4924,5.5056,5.5082,5.5433,5.5616,5.5666,5.5917,5.6143,5.6118,5.5867,5.5717,5.6025,5.5591,5.5408,5.605,5.5842,5.5792,5.6143,5.6168,5.6219,5.6219,5.6219,5.6219,5.6219,5.6219,5.6219,5.6219,5.6219,5.6219,5.6219,5.6219,5.6255,5.6303,5.6558,5.6997,5.7273,5.7363,5.7577,3.9844,3.9824,3.9824,3.9824,3.9863,3.9863,3.9902,3.998,3.9941,3.9922,4.0,4.0313,4.0469,4.041,4.0117,4.0137,4.043,4.0508,4.0742,4.1152,4.1886,4.2271,4.2348,4.3097,4.3705,4.4189,4.4193,4.4906,4.6112,4.6434,4.6813,4.7204,4.626,4.6187,4.6953,4.6817,4.6971,4.7399,4.77,4.8068,4.8123,4.8036,4.7377,4.6559,4.705,4.7273,4.7024,4.6927,4.7283,4.7963,4.8097,4.8385,4.8971,4.9133,4.9174,4.9198,4.96,4.9865,4.9954,5.0357,5.0769,5.1051,5.1103,5.131,5.18,5.2442,5.2942,5.3147,5.3788,5.3926,5.3355,5.3616,5.4077,5.4504,5.5031,5.5333,5.5383,5.5742,5.6093,5.6068,5.6068,5.6093,5.6118,5.6175,5.6219,5.6219,5.6168,5.615,5.6168,5.6093,5.6118,5.6143,5.6168,5.6168,5.6219,5.6219,5.6219,5.6219,5.6219,5.6219,5.6219,5.6219,5.6219,5.6219,5.6219,5.6219,5.6219,5.6255,5.631,5.651,5.6957,5.7374,5.7643,5.7559,5.7809,3.9883,3.9883,3.9883,4.0039,4.0293,4.0274,4.0449,4.0742,4.0742,4.0742,4.0761,4.0879,4.0937,4.0957,4.08,4.08,4.0957,4.1211,4.1426,4.1719,4.2722,4.3527,4.4074,4.4386,4.5204,4.614,4.5797,4.6326,4.7783,4.844,4.8659,4.8594,4.8584,4.8467,4.822,4.8369,4.8443,4.8241,4.836,4.8396,4.8486,4.8866,4.8858,4.8457,4.8672,4.8996,4.9304,4.9322,4.9463,4.975,4.9727,4.9856,5.0084,5.0119,5.0136,5.016,5.0491,5.0727,5.0818,5.1466,5.1952,5.21,5.2437,5.2744,5.3137,5.3523,5.38,5.4081,5.434,5.4508,5.4663,5.4734,5.4881,5.5107,5.5566,5.5892,5.5942,5.6093,5.6219,5.6219,5.6219,5.6219,5.6219,5.6219,5.6219,5.6219,5.6219,5.6219,5.6219,5.6219,5.6219,5.6219,5.6219,5.6219,5.6219,5.6219,5.6219,5.6219,5.6219,5.6219,5.6219,5.6219,5.6219,5.6219,5.6219,5.6328,5.6383,5.6594,5.6638,5.6928,5.7397,5.7744,5.7953,5.8158,5.8407,4.0312,4.0331,4.0312,4.0469,4.0723,4.0742,4.0898,4.1191,4.1211,4.1211,4.1211,4.1211,4.1211,4.1211,4.1211,4.1366,4.1599,4.1875,4.1994,4.2111,4.3428,4.445,4.5139,4.5722,4.6723,4.8003,4.8295,4.8879,4.9871,5.042,5.0559,5.0452,5.0381,5.0105,4.9741,4.9917,4.9738,4.944,4.9411,4.9341,4.9256,4.9622,4.9908,4.989,4.9866,5.0122,5.066,5.0678,5.0678,5.0678,5.0678,5.0678,5.0678,5.0678,5.0749,5.0848,5.106,5.1361,5.1673,5.2238,5.2727,5.3024,5.3387,5.3771,5.4135,5.4363,5.4581,5.4827,5.5056,5.5308,5.5541,5.5641,5.5659,5.5691,5.5974,5.6219,5.6219,5.6194,5.6219,5.6219,5.6219,5.6219,5.6219,5.6219,5.6219,5.6219,5.6219,5.6219,5.6219,5.6219,5.6219,5.6219,5.6219,5.6219,5.6219,5.6219,5.6219,5.6219,5.6219,5.6219,5.6219,5.6219,5.6237,5.6237,5.631,5.6438,5.6656,5.6928,5.7207,5.7467,5.7808,5.8208,5.8543,5.8967,5.9532,4.1152,4.1113,4.1191,4.1132,4.1133,4.1133,4.1191,4.1191,4.1211,4.1211,4.1211,4.1211,4.1269,4.1269,4.1542,4.1813,4.2472,4.2899,4.2898,4.2838,4.4337,4.5373,4.6003,4.7405,4.8471,4.9516,5.145,5.2346,5.2272,5.2212,5.2393,5.2519,5.1179,5.0974,5.2138,5.1247,5.1092,5.1195,5.116,5.1064,5.0774,5.0734,5.0734,5.0727,5.0727,5.0769,5.0774,5.0726,5.0678,5.0678,5.0678,5.0678,5.075,5.075,5.0903,5.1234,5.1267,5.1722,5.2473,5.2745,5.3303,5.3839,5.406,5.4327,5.4738,5.5085,5.5354,5.5465,5.5792,5.6143,5.6118,5.6143,5.6118,5.6175,5.6194,5.6219,5.6219,5.6219,5.6219,5.6219,5.6219,5.6219,5.6219,5.6219,5.6219,5.6219,5.6219,5.6219,5.6219,5.6219,5.6219,5.6219,5.6219,5.6219,5.6219,5.6219,5.6219,5.6219,5.6219,5.6219,5.6219,5.6219,5.6285,5.6321,5.6674,5.6837,5.7429,5.7708,5.7893,5.8128,5.8435,5.9011,5.9514,6.0169,6.1085,4.1211,4.1211,4.1211,4.1211,4.1211,4.1211,4.1211,4.1211,4.1191,4.1211,4.125,4.1504,4.1621,4.1994,4.3075,4.392,4.4329,4.5792,4.5948,4.5072,4.6808,4.8192,4.8926,4.9859,5.049,5.0918,5.198,5.2631,5.2712,5.3087,5.3293,5.2949,5.2476,5.2021,5.1766,5.1495,5.1411,5.1495,5.1507,5.158,5.1772,5.1796,5.1778,5.1802,5.1796,5.1796,5.1754,5.1105,5.0702,5.0726,5.0678,5.0864,5.1153,5.1249,5.1614,5.2281,5.2605,5.2933,5.3505,5.4138,5.4566,5.4967,5.526,5.554,5.5673,5.5817,5.5942,5.5942,5.6118,5.6219,5.6219,5.6219,5.6219,5.6219,5.6219,5.6219,5.6219,5.6219,5.6219,5.6219,5.6219,5.6219,5.6219,5.6219,5.6219,5.6219,5.6219,5.6219,5.6219,5.6219,5.6219,5.6219,5.6219,5.6219,5.6219,5.6219,5.6219,5.6219,5.6219,5.6219,5.6219,5.6328,5.6376,5.6699,5.7026,5.7505,5.8097,5.8567,5.8815,5.9337,5.9963,6.0434,6.0842,6.154,6.2427,4.1328,4.1211,4.1211,4.1289,4.1426,4.1426,4.1523,4.1641,4.1641,4.1739,4.1935,4.2171,4.2388,4.2902,4.4423,4.5348,4.5893,4.8082,4.855,4.7749,4.8671,4.9901,5.0642,5.1454,5.2035,5.2321,5.2797,5.3025,5.3063,5.3367,5.3384,5.3119,5.2921,5.2494,5.1874,5.197,5.2013,5.1868,5.1994,5.2157,5.2277,5.2301,5.2301,5.2301,5.2301,5.2301,5.2229,5.161,5.1297,5.1297,5.1297,5.1537,5.1952,5.2031,5.2392,5.3122,5.3533,5.387,5.447,5.4996,5.5509,5.5717,5.6,5.6194,5.6194,5.6219,5.6219,5.6219,5.6219,5.6219,5.6219,5.6219,5.6219,5.6219,5.6219,5.6219,5.6219,5.6219,5.6219,5.6219,5.6219,5.6219,5.6219,5.6219,5.6219,5.6219,5.6219,5.6219,5.6219,5.6219,5.6219,5.6219,5.6219,5.6219,5.6219,5.6219,5.6219,5.6219,5.6219,5.6219,5.6219,5.6456,5.6601,5.7229,5.7677,5.8195,5.8771,5.9614,6.0112,6.0815,6.1405,6.1728,6.2113,6.2828,6.3642,4.1621,4.1269,4.1269,4.1523,4.1816,4.1816,4.2012,4.2324,4.2343,4.2624,4.3101,4.33,4.3638,4.4272,4.5828,4.6807,4.7375,4.9348,5.0653,5.0718,5.0746,5.0729,5.1316,5.2229,5.2949,5.3521,5.3672,5.3728,5.3648,5.3424,5.3162,5.3143,5.2806,5.2397,5.2422,5.2831,5.2777,5.2464,5.2801,5.2801,5.2494,5.247,5.247,5.2494,5.2494,5.2518,5.2518,5.2476,5.238,5.2314,5.2302,5.2508,5.2865,5.2962,5.3312,5.4072,5.4098,5.4594,5.5207,5.5472,5.5666,5.6068,5.6168,5.6219,5.6219,5.6219,5.6219,5.6219,5.6219,5.6219,5.6219,5.6219,5.6219,5.6219,5.6219,5.6219,5.6219,5.6219,5.6219,5.6219,5.6219,5.6219,5.6219,5.6219,5.6219,5.6219,5.6219,5.6219,5.6219,5.6219,5.6219,5.6219,5.6219,5.6219,5.6219,5.6219,5.6219,5.6255,5.631,5.6419,5.6492,5.6729,5.6975,5.7626,5.8403,5.8915,5.964,6.0521,6.1324,6.1968,6.2472,6.2901,6.3472,6.4178,6.4669,4.2187,4.209,4.209,4.2148,4.2246,4.2246,4.2304,4.2402,4.2441,4.334,4.4312,4.4815,4.5711,4.7108,4.8872,4.9943,5.0379,5.1854,5.2828,5.3016,5.2903,5.282,5.2962,5.3275,5.3578,5.3785,5.3803,5.3803,5.3803,5.3654,5.3582,5.3606,5.3419,5.3197,5.2999,5.3047,5.3023,5.2921,5.3017,5.324,5.3389,5.3365,5.3413,5.3413,5.3389,5.3365,5.3451,5.3711,5.3447,5.2799,5.2979,5.3355,5.3789,5.3881,5.4222,5.4944,5.5153,5.5374,5.5826,5.5968,5.6068,5.6168,5.6219,5.6219,5.6219,5.6219,5.6219,5.6219,5.6219,5.6219,5.6219,5.6219,5.6219,5.6219,5.6219,5.6219,5.6219,5.6219,5.6219,5.6219,5.6219,5.6219,5.6219,5.6219,5.6219,5.6219,5.6219,5.6219,5.6219,5.6219,5.6219,5.6219,5.6219,5.6219,5.6219,5.6219,5.6237,5.6273,5.6438,5.6747,5.6928,5.7235,5.748,5.7908,5.8962,5.966,6.061,6.1547,6.23,6.3199,6.3928,6.4508,6.4877,6.5442,6.575,4.2577,4.2402,4.2402,4.2519,4.2695,4.2695,4.2995,4.3496,4.3919,4.4881,4.6212,4.6955,4.7832,4.9068,5.0752,5.1566,5.1777,5.3138,5.3723,5.3761,5.3699,5.3723,5.3766,5.3803,5.3803,5.3803,5.3803,5.3803,5.3803,5.3803,5.3803,5.3779,5.3803,5.3635,5.3413,5.3408,5.3408,5.3389,5.3408,5.3558,5.3779,5.3803,5.3803,5.3803,5.3803,5.386,5.4061,5.4583,5.4475,5.3821,5.3888,5.4303,5.4695,5.4806,5.5144,5.5816,5.5852,5.5956,5.6146,5.6219,5.6219,5.6219,5.6219,5.6219,5.6219,5.6219,5.6219,5.6219,5.6219,5.6219,5.6219,5.6219,5.6219,5.6219,5.6219,5.6219,5.6219,5.6219,5.6219,5.6219,5.6219,5.6219,5.6219,5.6219,5.6219,5.6219,5.6219,5.6219,5.6219,5.6219,5.6219,5.6219,5.6255,5.6255,5.6365,5.6419,5.6565,5.6583,5.6993,5.7228,5.7505,5.7836,5.8305,5.8809,5.9646,6.0604,6.171,6.2777,6.3776,6.4659,6.5451,6.5816,6.5965,6.6056,6.6409,4.291,4.2538,4.2538,4.2813,4.3227,4.3409,4.4197,4.519,4.6101,4.7244,4.8437,4.9266,4.9889,5.0543,5.1831,5.2226,5.226,5.3327,5.3691,5.3803,5.3803,5.3803,5.3803,5.3803,5.3803,5.3803,5.3803,5.3803,5.3803,5.3803,5.3803,5.3803,5.3803,5.3803,5.3707,5.3755,5.3803,5.3755,5.3707,5.3731,5.3803,5.3803,5.3841,5.3954,5.4066,5.4197,5.457,5.5072,5.5189,5.4565,5.4886,5.5238,5.5582,5.5644,5.5791,5.6066,5.6146,5.6182,5.62,5.6219,5.6219,5.6219,5.6219,5.6219,5.6219,5.6219,5.6219,5.6219,5.6219,5.6219,5.6219,5.6219,5.6219,5.6219,5.6219,5.6219,5.6219,5.6219,5.6219,5.6219,5.6219,5.6219,5.6219,5.6219,5.6219,5.6219,5.6219,5.6219,5.6219,5.6219,5.6219,5.6219,5.6255,5.6285,5.6474,5.6638,5.6856,5.7055,5.7651,5.8052,5.8239,5.8627,5.9209,5.9889,6.0766,6.1872,6.3053,6.4106,6.489,6.5364,6.5659,6.6079,6.6402,6.6381,6.6595,4.3536,4.3417,4.3437,4.3682,4.4252,4.517,4.5939,4.6606,4.7746,4.9111,5.0404,5.083,5.1682,5.2906,5.3138,5.3403,5.3309,5.3672,5.3803,5.3803,5.3803,5.3803,5.3803,5.3803,5.3803,5.3803,5.3803,5.3803,5.3803,5.3803,5.3803,5.3803,5.3803,5.3803,5.3803,5.3803,5.3803,5.3803,5.3803,5.3822,5.3841,5.3841,5.3991,5.4272,5.4552,5.4762,5.493,5.5355,5.5478,5.5478,5.5662,5.5907,5.5999,5.6054,5.6109,5.6164,5.6219,5.6219,5.6219,5.6219,5.6219,5.6219,5.6219,5.6219,5.6219,5.6219,5.6219,5.6219,5.6219,5.6219,5.6219,5.6219,5.6219,5.6219,5.6219,5.6219,5.6219,5.6219,5.6219,5.6219,5.6219,5.6219,5.6219,5.6219,5.6219,5.6219,5.6219,5.6219,5.6219,5.6219,5.6219,5.6219,5.6438,5.6529,5.6729,5.7047,5.7569,5.7892,5.847,5.8894,5.9105,5.9695,6.0375,6.1121,6.1916,6.3016,6.4088,6.4265,6.4802,6.5314,6.5736,6.5953,6.6135,6.636,6.6595,4.3691,4.3793,4.4556,4.5067,4.5515,4.6827,4.7827,4.8522,4.9484,5.0695,5.1797,5.2279,5.2982,5.3785,5.3803,5.3785,5.3803,5.3803,5.3803,5.3803,5.3803,5.3803,5.3803,5.3803,5.3803,5.3803,5.3803,5.3803,5.3803,5.3803,5.3803,5.3803,5.3803,5.3803,5.3803,5.3803,5.3803,5.3803,5.3803,5.3878,5.4066,5.4079,5.4272,5.4682,5.5053,5.5281,5.5318,5.5644,5.5852,5.5901,5.6091,5.6219,5.6219,5.6219,5.6219,5.6219,5.6219,5.6219,5.6219,5.6219,5.6219,5.6219,5.6219,5.6219,5.6219,5.6219,5.6219,5.6219,5.6219,5.6219,5.6219,5.6219,5.6219,5.6219,5.6219,5.6219,5.6219,5.6219,5.6219,5.6219,5.6219,5.6219,5.6219,5.6219,5.6219,5.6219,5.6219,5.6219,5.6219,5.6219,5.6219,5.631,5.6583,5.6801,5.7,5.7516,5.8364,5.8859,5.9438,5.9769,6.0004,6.0799,6.1668,6.2279,6.282,6.3784,6.4673,6.4722,6.468,6.5055,6.538,6.5573,6.5871,6.6247,6.6483,4.3814,4.3959,4.5677,4.6446,4.6767,4.8401,4.9624,5.0407,5.1293,5.2084,5.2759,5.354,5.3653,5.3803,5.3803,5.3803,5.3803,5.3803,5.3803,5.3803,5.3803,5.3803,5.3803,5.3803,5.3803,5.3803,5.3803,5.3803,5.3803,5.3803,5.3803,5.3803,5.3803,5.3803,5.3803,5.3878,5.3935,5.3954,5.4066,5.4197,5.4459,5.4515,5.4701,5.5072,5.5485,5.5687,5.5761,5.5956,5.62,5.6219,5.6219,5.6219,5.6219,5.6219,5.6219,5.6219,5.6219,5.6219,5.6219,5.6219,5.6219,5.6219,5.6219,5.6219,5.6219,5.6219,5.6219,5.6219,5.6219,5.6219,5.6219,5.6219,5.6219,5.6219,5.6219,5.6219,5.6219,5.6219,5.6219,5.6219,5.6219,5.6219,5.6219,5.6219,5.6219,5.6219,5.6219,5.6219,5.6219,5.6255,5.6273,5.6667,5.7047,5.8052,5.8364,5.8523,5.9315,5.9717,6.0323,6.0632,6.0961,6.1853,6.2629,6.3015,6.3654,6.4464,6.4891,6.4831,6.4839,6.4915,6.5196,6.559,6.5927,6.6219,6.6416,4.4288,4.4431,4.6103,4.7049,4.7749,4.9897,5.1178,5.182,5.2816,5.3422,5.3578,5.3704,5.3803,5.3803,5.3803,5.3803,5.3803,5.3803,5.3803,5.3803,5.3803,5.3803,5.3803,5.3803,5.3803,5.3803,5.3803,5.3803,5.3803,5.3803,5.3803,5.3803,5.3803,5.3803,5.3897,5.4103,5.4229,5.4291,5.4496,5.4744,5.4849,5.4985,5.5133,5.5503,5.5871,5.6036,5.6091,5.6164,5.6219,5.6219,5.6219,5.6219,5.6219,5.6219,5.6219,5.6219,5.6219,5.6219,5.6219,5.6219,5.6219,5.6219,5.6219,5.6219,5.6219,5.6219,5.6219,5.6219,5.6219,5.6219,5.6219,5.6219,5.6219,5.6219,5.6219,5.6219,5.6219,5.6219,5.6219,5.6219,5.6219,5.6219,5.6219,5.6219,5.6219,5.6219,5.6219,5.6219,5.6219,5.6292,5.6383,5.6957,5.7633,5.8877,5.9994,6.0098,6.0426,6.0581,6.1053,6.1451,6.1955,6.2877,6.3515,6.3372,6.373,6.4445,6.4717,6.4746,6.4718,6.4606,6.5084,6.5674,6.591,6.6163,6.6472,4.4576,4.5556,4.7188,4.8541,4.978,5.1701,5.2717,5.2987,5.3559,5.3803,5.3803,5.3803,5.3803,5.3803,5.3803,5.3803,5.3803,5.3803,5.3803,5.3803,5.3803,5.3803,5.3803,5.3803,5.3803,5.3803,5.3803,5.3803,5.3803,5.3803,5.3803,5.3803,5.3803,5.3803,5.3897,5.4178,5.4378,5.449,5.4794,5.5133,5.5318,5.5466,5.5761,5.5926,5.6091,5.62,5.6219,5.6219,5.6219,5.6219,5.6219,5.6219,5.6219,5.6219,5.6219,5.6219,5.6219,5.6219,5.6219,5.6219,5.6219,5.6219,5.6219,5.6219,5.6219,5.6219,5.6219,5.6219,5.6219,5.6219,5.6219,5.6219,5.6219,5.6219,5.6219,5.6219,5.6219,5.6219,5.6219,5.6219,5.6219,5.6219,5.6219,5.6219,5.6219,5.6219,5.6219,5.6255,5.6273,5.6376,5.654,5.7705,5.8559,5.9647,6.0787,6.1121,6.1258,6.1444,6.1665,6.2086,6.2393,6.3062,6.3168,6.3029,6.3606,6.4235,6.4139,6.4027,6.4139,6.4353,6.4915,6.5421,6.5769,6.6078,6.6398,4.5352,4.7068,4.8737,5.0229,5.1586,5.312,5.3766,5.3803,5.3785,5.3803,5.3803,5.3803,5.3803,5.3803,5.3803,5.3803,5.3803,5.3803,5.3803,5.3803,5.3803,5.3803,5.3803,5.3803,5.3803,5.3803,5.3803,5.3803,5.3803,5.3803,5.3803,5.3803,5.3803,5.3878,5.401,5.4384,5.4472,5.4756,5.5016,5.5429,5.5724,5.6017,5.6219,5.6219,5.6219,5.6219,5.6219,5.6219,5.6219,5.6219,5.6219,5.6219,5.6219,5.6219,5.6219,5.6219,5.6219,5.6219,5.6219,5.6219,5.6219,5.6219,5.6219,5.6219,5.6219,5.6219,5.6219,5.6219,5.6219,5.6219,5.6219,5.6219,5.6219,5.6219,5.6219,5.6219,5.6219,5.6219,5.6219,5.6219,5.6219,5.6219,5.6219,5.6219,5.6219,5.6219,5.6219,5.6522,5.6558,5.6613,5.7058,5.8497,5.9586,6.0495,6.1326,6.1833,6.1968,6.2069,6.2281,6.2582,6.2715,6.2932,6.2882,6.2888,6.3134,6.3616,6.3476,6.3645,6.4139,6.4533,6.4831,6.5224,6.5685,6.6135,6.6483,4.7508,4.917,5.0892,5.1762,5.2107,5.329,5.3803,5.3803,5.3803,5.3803,5.3803,5.3803,5.3803,5.3803,5.3803,5.3803,5.3803,5.3803,5.3803,5.3803,5.3803,5.3803,5.3803,5.3803,5.3803,5.3803,5.3803,5.3803,5.3822,5.3822,5.3841,5.386,5.3954,5.3991,5.4365,5.4738,5.5115,5.5448,5.5816,5.6054,5.6091,5.6164,5.6219,5.6219,5.6219,5.6219,5.6219,5.6219,5.6219,5.6219,5.6219,5.6219,5.6219,5.6219,5.6219,5.6219,5.6219,5.6219,5.6219,5.6219,5.6219,5.6219,5.6219,5.6219,5.6219,5.6219,5.6219,5.6219,5.6219,5.6219,5.6219,5.6219,5.6219,5.6219,5.6219,5.6219,5.6219,5.6219,5.6219,5.6219,5.6219,5.6219,5.6219,5.6219,5.6219,5.6219,5.6292,5.6576,5.6975,5.7094,5.7705,5.9131,6.0502,6.1451,6.18,6.2303,6.242,6.2598,6.2715,6.2881,6.2881,6.2881,6.2881,6.2932,6.315,6.3476,6.3785,6.4111,6.4448,6.4786,6.5123,6.5432,6.5713,6.6135,6.6567,4.915,5.0559,5.1297,5.2164,5.3025,5.3572,5.3803,5.3803,5.3803,5.3803,5.3803,5.3803,5.3803,5.3803,5.3803,5.3803,5.3803,5.3803,5.3803,5.3803,5.3803,5.3803,5.3803,5.3803,5.3803,5.3803,5.3803,5.3803,5.3841,5.4029,5.4117,5.4178,5.4365,5.4576,5.4756,5.5127,5.5392,5.5669,5.5962,5.62,5.6219,5.6219,5.6219,5.6219,5.6219,5.6219,5.6219,5.6219,5.6219,5.6219,5.6219,5.6219,5.6219,5.6219,5.6219,5.6219,5.6219,5.6219,5.6219,5.6219,5.6219,5.6219,5.6219,5.6219,5.6219,5.6244,5.6244,5.6219,5.6219,5.6219,5.6244,5.6219,5.6219,5.6219,5.6219,5.6219,5.6219,5.6219,5.6219,5.6219,5.6219,5.6219,5.6219,5.6219,5.6219,5.6219,5.6292,5.6503,5.7246,5.7955,5.8727,5.9829,6.1179,6.2404,6.2532,6.2748,6.2682,6.2765,6.2765,6.2881,6.2881,6.2881,6.2909,6.3094,6.3319,6.3701,6.4167,6.4336,6.4448,6.4926,6.5488,6.5713,6.5966,6.623,6.6595,5.1062,5.1912,5.1931,5.2679,5.3785,5.3803,5.3803,5.3803,5.3803,5.3803,5.3803,5.3803,5.3803,5.3803,5.3803,5.3803,5.3803,5.3803,5.3803,5.3803,5.3803,5.3803,5.3803,5.3803,5.3803,5.3803,5.3803,5.3878,5.4085,5.4291,5.4496,5.4459,5.4701,5.5004,5.5207,5.5411,5.5632,5.5816,5.6072,5.62,5.6219,5.6219,5.6219,5.6219,5.6219,5.6219,5.6219,5.6219,5.6219,5.6219,5.6219,5.6219,5.6219,5.6219,5.6219,5.6219,5.6219,5.6219,5.6219,5.6219,5.6219,5.6219,5.6219,5.6219,5.6244,5.6276,5.6401,5.6477,5.6451,5.6451,5.6376,5.6344,5.6219,5.6219,5.6219,5.6219,5.6219,5.6219,5.6219,5.6219,5.6219,5.6219,5.6219,5.6219,5.6219,5.6219,5.6328,5.6558,5.7597,5.8797,5.989,6.0924,6.1681,6.2748,6.2814,6.2881,6.2881,6.2897,6.2897,6.2897,6.2914,6.2954,6.2993,6.3235,6.3549,6.3954,6.442,6.4392,6.4448,6.5123,6.5741,6.5966,6.6202,6.6454,6.6595,5.3559,5.361,5.3596,5.3634,5.3803,5.3803,5.3803,5.3803,5.3803,5.3803,5.3803,5.3803,5.3803,5.3803,5.3803,5.3803,5.3803,5.3803,5.3803,5.3803,5.3803,5.3803,5.3803,5.3803,5.3803,5.3803,5.3878,5.4085,5.4384,5.4738,5.4701,5.4552,5.5041,5.5281,5.5466,5.5669,5.5852,5.6017,5.62,5.6219,5.6219,5.6219,5.6219,5.6219,5.6219,5.6219,5.6219,5.6219,5.6219,5.6219,5.6219,5.6219,5.6219,5.6219,5.6219,5.6219,5.6219,5.6219,5.6219,5.6219,5.62,5.6219,5.6269,5.6369,5.652,5.6778,5.691,5.6979,5.6953,5.696,5.6784,5.6552,5.6394,5.6344,5.6351,5.6301,5.6276,5.6219,5.6219,5.6219,5.6346,5.654,5.6812,5.6957,5.6848,5.6848,5.739,5.7659,5.8885,6.0089,6.1111,6.1985,6.2381,6.2831,6.2864,6.2881,6.2881,6.2947,6.298,6.2964,6.2964,6.3031,6.3126,6.3554,6.3942,6.4302,6.4701,6.501,6.5348,6.5657,6.5994,6.6219,6.6303,6.6444,6.6539,5.312,5.3785,5.3803,5.3803,5.3803,5.3803,5.3803,5.3803,5.3803,5.3803,5.3803,5.3803,5.3803,5.3803,5.3803,5.3803,5.3803,5.3803,5.3803,5.3803,5.3803,5.3803,5.3803,5.3822,5.3803,5.3878,5.4047,5.4192,5.4416,5.5016,5.5263,5.5294,5.5503,5.5761,5.5944,5.5944,5.6072,5.6127,5.6219,5.6219,5.6219,5.6219,5.6219,5.6219,5.6219,5.6219,5.6219,5.6219,5.6219,5.6219,5.6219,5.6219,5.6219,5.6219,5.6219,5.6219,5.6219,5.6219,5.6219,5.6244,5.6344,5.6652,5.6728,5.6821,5.7047,5.743,5.7531,5.7531,5.7531,5.7512,5.7474,5.7054,5.6728,5.6627,5.6552,5.6527,5.6426,5.6376,5.6472,5.6552,5.6943,5.7256,5.7562,5.7848,5.7669,5.7562,5.8169,5.8877,6.0046,6.0958,6.1816,6.2415,6.2731,6.2931,6.2964,6.2931,6.2914,6.3013,6.3112,6.3162,6.3228,6.3228,6.3402,6.3856,6.4387,6.478,6.5263,6.5854,6.6078,6.6022,6.6191,6.6444,6.65,6.6444,6.6528,5.3025,5.3785,5.3803,5.3803,5.3803,5.3803,5.3803,5.3803,5.3803,5.3803,5.3803,5.3803,5.3803,5.3803,5.3803,5.3803,5.3803,5.3803,5.3803,5.3803,5.3803,5.3878,5.3954,5.4029,5.4122,5.4178,5.4403,5.4626,5.4868,5.5331,5.5595,5.5797,5.6011,5.612,5.6182,5.6219,5.6219,5.6219,5.6219,5.6219,5.6219,5.6219,5.6219,5.6219,5.6219,5.6219,5.6219,5.6219,5.6219,5.6219,5.6219,5.6219,5.6219,5.6219,5.6219,5.6219,5.6219,5.6219,5.6219,5.6244,5.647,5.6828,5.6935,5.728,5.7706,5.8027,5.8108,5.8127,5.8127,5.8083,5.8001,5.7481,5.7079,5.6953,5.7079,5.7072,5.6828,5.6721,5.6841,5.6967,5.7371,5.7794,5.855,5.8903,5.9079,5.9026,5.9446,6.002,6.0718,6.1502,6.2035,6.2532,6.2831,6.2964,6.3079,6.3244,6.3409,6.3458,6.354,6.3573,6.3606,6.3613,6.3895,6.4515,6.4984,6.5332,6.5741,6.6247,6.6247,6.6107,6.6331,6.6584,6.6584,6.6528,6.6539,5.3747,5.3803,5.3803,5.3803,5.3803,5.3803,5.3803,5.3803,5.3803,5.3803,5.3803,5.3803,5.3803,5.3803,5.3803,5.3803,5.3822,5.3841,5.3878,5.3897,5.4029,5.4122,5.4272,5.4421,5.4515,5.4874,5.5022,5.517,5.5485,5.5607,5.5852,5.6036,5.6182,5.6219,5.6219,5.6219,5.6219,5.6219,5.6219,5.6219,5.6219,5.6219,5.6219,5.6219,5.6219,5.6219,5.6219,5.6219,5.6219,5.6219,5.6219,5.6219,5.6219,5.6219,5.6219,5.6219,5.6219,5.6219,5.6244,5.6244,5.6602,5.7154,5.7387,5.7587,5.7976,5.8353,5.866,5.8654,5.8679,5.8478,5.8177,5.7876,5.7581,5.743,5.7575,5.7424,5.7154,5.6728,5.6797,5.7225,5.7695,5.8232,5.9236,6.0002,6.0399,6.0605,6.0879,6.1254,6.1654,6.2086,6.2537,6.2786,6.3112,6.3294,6.3491,6.3753,6.3916,6.3948,6.3961,6.3989,6.4091,6.4159,6.4583,6.5159,6.5414,6.5607,6.6078,6.6567,6.6426,6.6314,6.6426,6.6595,6.6595,6.6595,6.6595,5.3803,5.3803,5.3803,5.3803,5.3803,5.3803,5.3803,5.3803,5.3803,5.3803,5.3803,5.3803,5.3803,5.3803,5.3822,5.3822,5.386,5.4141,5.4216,5.4234,5.4403,5.4645,5.4775,5.4794,5.4892,5.5059,5.5226,5.5448,5.5577,5.5816,5.6017,5.62,5.6219,5.6219,5.6219,5.6219,5.6219,5.6219,5.6219,5.6219,5.6219,5.6219,5.6219,5.6219,5.6219,5.6219,5.6219,5.6219,5.6219,5.6219,5.6219,5.6219,5.6219,5.6219,5.6219,5.6219,5.6219,5.6376,5.6602,5.6828,5.7186,5.7738,5.8039,5.8259,5.8905,5.9081,5.9207,5.9201,5.9156,5.9031,5.9006,5.8604,5.8284,5.8058,5.7983,5.765,5.7298,5.6721,5.6559,5.7346,5.7948,5.9342,6.0502,6.1026,6.14,6.1721,6.1923,6.2075,6.242,6.2753,6.3117,6.3266,6.3479,6.3688,6.39,6.4209,6.4319,6.4287,6.436,6.4421,6.4549,6.4846,6.5183,6.5742,6.5798,6.5854,6.6258,6.6595,6.6595,6.6567,6.6735,6.677,6.6788,6.6718,6.6613,5.3803,5.3803,5.3803,5.3803,5.3803,5.3803,5.3803,5.3803,5.3803,5.3803,5.3803,5.3803,5.3803,5.3841,5.3954,5.401,5.4066,5.4421,5.4608,5.4645,5.4855,5.5041,5.5152,5.5251,5.5355,5.5429,5.5632,5.5834,5.5852,5.6091,5.62,5.6219,5.6219,5.6219,5.6219,5.6219,5.6219,5.6219,5.6219,5.6219,5.6219,5.6219,5.6219,5.6219,5.6219,5.6219,5.6219,5.6219,5.6219,5.6219,5.6219,5.6219,5.6219,5.6219,5.6219,5.6219,5.6451,5.6828,5.7405,5.7612,5.8114,5.8786,5.8811,5.8981,5.9382,5.9427,5.9452,5.9477,5.9527,5.9357,5.9182,5.8811,5.8755,5.8485,5.8158,5.7826,5.731,5.6707,5.7077,5.7808,5.8764,6.0242,6.158,6.2018,6.2415,6.2682,6.2947,6.3075,6.3124,6.3327,6.3601,6.3777,6.394,6.4164,6.4396,6.4686,6.4747,6.467,6.4891,6.5174,6.5557,6.5975,6.6141,6.627,6.6365,6.6445,6.6451,6.6613,6.6753,6.6927,6.7091,6.7073,6.6986,6.7084,6.7154,5.3803,5.3803,5.3803,5.3803,5.3803,5.3803,5.3803,5.3803,5.3803,5.3803,5.3803,5.3803,5.3803,5.3878,5.4197,5.4365,5.4477,5.4794,5.4961,5.5109,5.5331,5.5448,5.5614,5.5799,5.601,5.6168,5.6346,5.6498,5.6308,5.6527,5.652,5.642,5.6527,5.657,5.6545,5.6545,5.6495,5.6426,5.6394,5.647,5.6595,5.6477,5.657,5.6545,5.647,5.6376,5.6326,5.6251,5.6219,5.6219,5.6219,5.6219,5.6219,5.62,5.6244,5.6445,5.6809,5.7556,5.8259,5.8409,5.8761,5.9162,5.9012,5.9131,5.9307,5.9527,5.9527,5.9527,5.9502,5.9156,5.8836,5.888,5.888,5.8604,5.8284,5.7844,5.7297,5.73,5.7836,5.8612,5.9537,6.0768,6.1979,6.2648,6.3048,6.3079,6.3306,6.3694,6.3715,6.3606,6.392,6.4275,6.4454,6.4636,6.4954,6.5411,6.5559,6.5613,6.6029,6.6355,6.6739,6.6841,6.675,6.6777,6.6969,6.6964,6.6689,6.6788,6.7049,6.7258,6.7627,6.7816,6.785,6.8107,6.8244,5.3803,5.3803,5.3803,5.3803,5.3803,5.3803,5.3803,5.3803,5.3803,5.3803,5.3803,5.3803,5.3827,5.3841,5.4216,5.4403,5.4707,5.5035,5.5337,5.5627,5.6098,5.6145,5.6381,5.6718,5.6929,5.6992,5.7104,5.7273,5.7355,5.7374,5.7349,5.7449,5.7248,5.728,5.7305,5.7399,5.7104,5.6903,5.6828,5.6953,5.7198,5.7255,5.7273,5.7223,5.6903,5.6828,5.6753,5.6451,5.6369,5.6294,5.6226,5.62,5.6219,5.6552,5.6878,5.7374,5.7631,5.7957,5.8541,5.8691,5.8936,5.9382,5.9307,5.9357,5.9458,5.9527,5.9527,5.9527,5.9502,5.9232,5.8987,5.8936,5.8805,5.8478,5.8215,5.7869,5.7463,5.7732,5.8341,5.9537,6.0463,6.1504,6.2671,6.3159,6.348,6.3449,6.367,6.4177,6.4369,6.4255,6.4499,6.4929,6.5207,6.543,6.5933,6.642,6.6498,6.6663,6.6999,6.7194,6.7256,6.7276,6.7214,6.7142,6.7064,6.6871,6.6619,6.6892,6.7333,6.7953,6.8346,6.855,6.8753,6.9006,6.9106,5.3803,5.3803,5.3803,5.3803,5.3803,5.3803,5.3803,5.3803,5.3803,5.3803,5.3803,5.3803,5.3942,5.4229,5.4743,5.5184,5.5447,5.6253,5.6626,5.6781,5.7068,5.7055,5.728,5.7499,5.7531,5.7606,5.7656,5.775,5.7951,5.7926,5.7851,5.7826,5.7901,5.7901,5.7851,5.7775,5.7826,5.7631,5.7581,5.7631,5.7782,5.7951,5.7901,5.7876,5.7506,5.7405,5.733,5.6947,5.6878,5.6853,5.6853,5.6853,5.6922,5.723,5.7606,5.8052,5.8227,5.8529,5.8936,5.9062,5.9232,5.9408,5.9527,5.9483,5.9483,5.9527,5.9527,5.9502,5.9477,5.9382,5.9207,5.8961,5.8654,5.8322,5.8095,5.7911,5.7979,5.8128,5.9155,6.0415,6.148,6.2513,6.3229,6.3683,6.4183,6.4579,6.4886,6.5248,6.5265,6.5052,6.54,6.5889,6.6107,6.6324,6.6841,6.719,6.726,6.7405,6.7737,6.7898,6.7841,6.7856,6.7876,6.7473,6.6958,6.6945,6.7049,6.7333,6.7765,6.8431,6.909,6.9391,6.9641,6.989,6.9923,5.3803,5.3803,5.3803,5.3803,5.3803,5.3803,5.3803,5.3803,5.386,5.3865,5.3918,5.39,5.4245,5.4839,5.5524,5.6085,5.6503,5.7193,5.7487,5.7882,5.7863,5.7826,5.775,5.8001,5.8127,5.8052,5.8102,5.8353,5.8152,5.8227,5.8303,5.8027,5.8152,5.8252,5.8303,5.8278,5.8403,5.8554,5.8328,5.8227,5.8152,5.8102,5.8027,5.8077,5.8027,5.7951,5.7951,5.7901,5.7901,5.7876,5.7851,5.7775,5.7901,5.7926,5.8278,5.8579,5.8755,5.8981,5.9232,5.9357,5.9408,5.9502,5.9527,5.9527,5.9527,5.9527,5.9527,5.9527,5.9502,5.9307,5.9131,5.8961,5.8704,5.8454,5.8253,5.8301,5.8568,5.9248,6.0666,6.1859,6.2912,6.3835,6.4166,6.4633,6.5071,6.5686,6.6,6.6232,6.6322,6.6022,6.6269,6.6801,6.6892,6.7086,6.7434,6.7754,6.7899,6.8131,6.8409,6.8576,6.8542,6.854,6.8567,6.8141,6.7747,6.7593,6.7679,6.8073,6.8584,6.9207,6.982,7.0233,7.0465,7.0563,7.0547,5.3803,5.3803,5.3803,5.3803,5.3803,5.3803,5.3827,5.3841,5.4117,5.4369,5.4413,5.4485,5.4898,5.5691,5.6178,5.6693,5.7259,5.7824,5.787,5.8108,5.8328,5.8353,5.8202,5.8629,5.8755,5.8749,5.8849,5.8981,5.893,5.9006,5.9081,5.9081,5.9025,5.8956,5.8956,5.8956,5.9056,5.9182,5.9081,5.893,5.893,5.9056,5.9106,5.8956,5.8811,5.8535,5.8428,5.8152,5.8001,5.7901,5.7901,5.8102,5.8459,5.8485,5.8805,5.9182,5.9257,5.9377,5.9427,5.9527,5.9527,5.9527,5.9527,5.9527,5.9527,5.9527,5.9527,5.9527,5.9452,5.9257,5.9106,5.8981,5.8855,5.8618,5.8523,5.8847,5.9219,6.074,6.2219,6.3274,6.4314,6.4842,6.5157,6.5555,6.6007,6.633,6.6545,6.6855,6.7314,6.7285,6.7289,6.7625,6.7592,6.7799,6.8073,6.8201,6.8318,6.8522,6.8793,6.8993,6.9198,6.9052,6.8905,6.8922,6.8719,6.8448,6.8482,6.9073,6.962,7.0018,7.0282,7.0577,7.0691,7.0759,7.0808,5.3948,5.4159,5.4159,5.4164,5.4164,5.4164,5.4277,5.4528,5.4973,5.5437,5.5672,5.524,5.5354,5.6317,5.6734,5.7377,5.7933,5.8432,5.8666,5.878,5.8755,5.8855,5.9031,5.9182,5.9201,5.9201,5.9326,5.9477,5.9527,5.9502,5.9452,5.9527,5.9527,5.9527,5.9527,5.9527,5.9527,5.9502,5.9527,5.9527,5.9527,5.9483,5.9483,5.9357,5.9257,5.9037,5.8987,5.873,5.8679,5.8629,5.8679,5.8755,5.9006,5.9037,5.9207,5.9382,5.9477,5.9527,5.9527,5.9527,5.9527,5.9527,5.9527,5.9527,5.9527,5.9527,5.9527,5.9527,5.9527,5.9351,5.9307,5.9232,5.9182,5.9057,5.9402,5.9812,6.1062,6.267,6.3656,6.4363,6.5231,6.5867,6.624,6.6703,6.7131,6.7615,6.7733,6.7633,6.8056,6.8206,6.8302,6.8352,6.8306,6.831,6.8492,6.8562,6.8649,6.8871,6.9102,6.9337,6.9487,6.9341,6.9257,6.9291,6.9241,6.9056,6.927,6.9753,7.0134,7.0446,7.0658,7.0854,7.0903,7.0903,7.0903,5.4116,5.4477,5.4568,5.4592,5.4616,5.4688,5.496,5.5418,5.5922,5.6605,5.7109,5.5965,5.6088,5.6774,5.7349,5.8147,5.8732,5.9066,5.9332,5.9402,5.9427,5.9301,5.9326,5.9477,5.9452,5.9427,5.9502,5.9527,5.9527,5.9527,5.9527,5.9527,5.9527,5.9527,5.9527,5.9527,5.9527,5.9527,5.9527,5.9527,5.9527,5.9527,5.9527,5.9527,5.9527,5.9527,5.9483,5.9483,5.9502,5.9452,5.9307,5.9332,5.9357,5.9382,5.9408,5.9527,5.9527,5.9527,5.9527,5.9527,5.9527,5.9527,5.9527,5.9527,5.9527,5.9527,5.9527,5.9527,5.9527,5.9502,5.9477,5.9452,5.9427,5.9928,6.0442,6.124,6.2929,6.4364,6.4903,6.5481,6.6131,6.6773,6.7233,6.7727,6.8134,6.8632,6.8794,6.8794,6.8753,6.8629,6.8638,6.8768,6.8789,6.8834,6.8895,6.8929,6.898,6.9052,6.9287,6.9604,6.9853,6.9906,6.9873,6.9691,6.9608,6.9641,6.9774,7.015,7.0511,7.0756,7.0821,7.0903,7.0903,7.0903,7.0903,5.4236,5.3996,5.4423,5.4616,5.4688,5.5049,5.5516,5.5981,5.6366,5.6852,5.7326,5.7599,5.7798,5.8423,5.8525,5.8923,5.9189,5.9508,5.9508,5.9502,5.9527,5.9527,5.9527,5.9527,5.9527,5.9527,5.9527,5.9527,5.9527,5.9527,5.9527,5.9527,5.9527,5.9527,5.9527,5.9527,5.9527,5.9527,5.9527,5.9527,5.9527,5.9527,5.9527,5.9527,5.9527,5.9527,5.9527,5.9527,5.9502,5.9527,5.9527,5.9527,5.9527,5.9527,5.9527,5.9527,5.9527,5.9527,5.9527,5.9527,5.9527,5.9527,5.9527,5.9527,5.9527,5.9527,5.9527,5.9527,5.9527,5.956,5.956,5.956,5.9651,6.1054,6.1942,6.3321,6.4894,6.5428,6.5799,6.6451,6.7105,6.7588,6.7937,6.8285,6.847,6.8794,6.8794,6.8794,6.8794,6.8862,6.8946,6.9131,6.9266,6.9249,6.9232,6.922,6.927,6.9353,6.9537,6.9936,7.0315,7.0642,7.0547,7.0252,7.0351,7.0465,7.0642,7.0511,7.0658,7.0854,7.087,7.0903,7.0903,7.0903,7.0903]}]]